GFSNGP_prec_cloud_003.txt.gz
Cloud_Cover
64 5 0 0 5 9 0 50 23 17 0 0 78 100 100 100 100 100 100 100 100 100 100 100 100 40 5 5 5 5 17 16 6 2 4 1 0 0 0 0 0 0 0 0
65 100 2 0 0 3 53 16 5 6 85 100 100 100 100 100 100 100 100 100 100 100 62 10 25 5 5 5 5 5 23 49 1 5 5 5 5 0 0 0 0 0 0 0
48 5 5 0 4 5 5 40 100 100 100 100 100 96 97 100 100 99 88 17 46 43 16 5 5 5 4 5 14 97 98 12 5 5 5 5 5 5 5 5 5 5 0 0
98 46 30 100 83 46 87 100 100 100 100 88 24 54 48 6 6 5 5 5 5 4 3 1 5 5 9 97 91 23 5 5 5 5 5 5 5 5 5 2 0 0 5 5
95 99 100 100 100 100 100 100 100 100 100 100 100 60 9 5 5 4 5 5 5 5 5 5 31 74 100 93 13 6 7 5 5 5 5 5 5 3 0 0 0 0 3 5
100 100 100 100 100 100 100 100 100 100 100 100 100 95 9 5 3 5 5 14 20 7 60 100 100 87 6 7 72 83 10 5 5 5 4 0 0 0 0 0 0 0 0 0
100 100 100 100 100 99 97 100 100 100 100 88 41 12 5 11 47 78 71 52 5 14 27 66 98 91 78 69 99 29 26 5 3 0 0 0 0 0 0 0 0 0 0 0
100 100 100 100 100 100 100 100 100 100 7 5 5 5 6 50 68 69 49 8 5 5 5 80 94 83 82 50 5 5 1 2 0 0 0 0 0 0 0 0 0 0 0 0
100 100 100 100 100 100 100 36 21 14 6 39 29 18 40 13 19 71 30 5 5 24 25 13 99 100 11 5 5 5 1 0 0 0 0 0 0 0 0 0 0 1 5 16
100 100 100 100 100 100 96 100 99 83 8 5 5 15 78 54 6 5 5 5 5 13 85 100 84 6 1 5 5 5 0 0 0 0 0 0 0 0 0 0 0 5 66 100
100 100 49 93 73 86 94 66 16 17 11 5 23 42 25 24 6 5 27 100 100 100 90 45 5 5 4 5 5 0 0 0 0 0 0 0 0 0 0 0 17 100 100 100
98 34 7 23 69 58 5 7 5 5 20 63 17 6 5 3 20 83 100 100 100 48 5 5 5 5 4 3 0 0 0 0 0 0 0 0 0 0 1 5 23 64 100 100
99 59 7 27 39 20 30 7 38 34 10 5 1 0 0 56 100 100 100 83 6 5 5 5 6 5 5 1 3 0 0 0 0 0 0 0 1 5 74 45 69 5 74 100
96 79 50 58 5 5 33 94 100 100 99 70 33 46 100 38 89 93 15 5 5 5 6 51 11 5 5 3 0 0 0 0 0 0 0 4 5 64 67 98 100 64 5 54
22 63 72 12 5 17 34 70 85 71 97 100 100 100 100 85 79 43 5 5 5 36 43 5 5 5 1 0 0 0 0 0 0 3 5 5 5 5 18 93 99 80 78 41
73 90 100 100 100 98 74 7 5 42 100 100 65 22 17 25 5 5 3 5 8 20 5 5 5 0 0 0 0 0 0 0 5 5 5 5 5 69 97 93 98 100 100 85
25 5 34 40 34 28 5 5 15 98 53 12 5 12 5 5 4 4 5 5 5 5 5 4 0 0 0 0 0 0 0 1 5 5 5 5 41 98 94 98 100 93 88 51
5 5 6 7 5 5 5 5 11 7 5 5 5 5 5 5 5 5 5 5 5 5 4 0 0 0 4 5 4 3 2 5 5 5 9 91 100 98 94 94 98 100 95 88
20 55 31 6 5 5 5 5 5 6 24 5 5 5 5 5 5 5 5 5 5 4 0 2 5 5 5 5 5 5 5 5 5 27 99 100 97 85 92 100 100 100 100 97
87 68 56 38 20 13 10 12 57 51 18 5 5 5 5 5 5 5 5 5 3 1 1 5 5 5 0 1 5 5 54 88 87 31 97 100 66 75 95 59 99 98 98 94
100 100 99 81 84 94 96 74 64 56 54 19 5 5 5 5 5 5 5 5 5 5 5 5 5 5 5 5 31 88 34 9 5 57 37 6 5 60 100 99 81 98 100 100
53 27 11 10 6 67 86 100 100 72 24 5 5 5 5 36 65 61 23 5 5 5 5 5 5 5 5 17 44 5 5 5 4 5 5 5 54 92 97 87 100 100 100 100
71 49 42 42 50 48 49 64 43 9 5 60 74 71 60 68 64 42 5 11 5 5 5 5 5 5 5 47 6 5 1 0 5 5 5 5 5 79 97 100 100 100 100 100
52 49 56 20 11 5 6 5 5 7 76 90 99 98 90 57 84 18 5 5 5 5 5 5 3 4 5 5 1 2 5 5 5 5 5 74 92 99 100 96 100 100 100 94
64 38 40 37 45 50 5 5 8 73 95 100 100 100 100 53 5 5 5 5 5 5 5 5 0 4 1 3 5 5 5 10 78 100 100 98 78 92 94 100 100 100 100 99
5 5 5 5 5 5 9 46 94 95 94 100 100 95 24 5 17 8 5 5 5 2 2 5 0 5 5 5 5 5 66 100 100 93 100 95 87 97 100 97 100 100 100 100
41 34 30 5 5 57 93 100 100 100 100 93 47 14 54 76 82 36 5 5 5 4 1 0 3 5 5 8 50 82 100 100 100 100 100 100 93 95 98 99 100 99 95 100

GFSNGP_prec_cloud_006.txt.gz
Cloud_Cover
64 12 37 46 67 43 2 0 0 0 0 0 0 92 77 5 56 79 18 100 100 100 100 100 100 92 87 96 74 24 9 5 8 5 5 5 0 0 4 0 0 0 0 0
100 97 100 13 5 0 0 0 0 0 0 0 64 90 70 99 72 37 100 100 100 100 100 100 100 99 46 17 33 20 5 10 16 5 0 4 0 0 0 0 0 0 0 0
73 75 66 3 4 0 0 5 0 1 2 82 28 38 85 100 100 100 100 100 100 100 100 100 97 50 31 11 5 39 66 51 5 5 5 0 0 0 0 0 0 0 0 0
100 46 5 57 4 0 1 5 6 91 100 99 43 51 99 100 100 100 100 100 100 97 90 84 71 23 5 5 64 70 6 6 5 5 4 0 0 0 2 0 0 0 0 0
100 100 100 100 100 91 20 95 97 100 98 100 99 100 99 100 100 99 100 96 94 97 62 91 14 26 59 100 51 6 5 5 5 5 0 0 0 0 0 1 0 0 0 0
100 100 100 100 100 100 100 100 100 100 99 100 95 92 96 96 85 96 73 53 22 83 9 5 5 5 27 24 5 5 5 5 1 0 0 4 3 0 4 0 0 0 0 0
100 98 92 100 100 100 100 100 100 75 71 100 100 100 72 76 93 86 20 5 5 5 5 5 15 57 76 5 5 5 0 0 0 1 5 4 1 2 0 0 0 0 0 0
100 100 100 97 100 94 96 100 100 95 100 100 100 100 100 100 100 78 6 5 5 5 5 36 94 49 5 5 5 1 0 4 4 36 4 1 4 0 0 0 0 0 0 2
100 100 100 100 100 100 100 100 100 100 100 100 100 100 100 90 6 5 5 19 17 5 5 5 5 5 5 5 0 0 1 5 5 5 5 5 0 0 0 0 0 0 5 80
100 100 100 100 100 100 100 100 100 100 100 100 100 94 44 5 5 39 19 31 13 8 62 95 100 20 4 0 3 16 31 5 5 5 5 1 0 0 0 0 2 7 100 97
99 100 100 100 100 100 100 100 100 100 100 93 62 7 5 5 22 39 14 5 24 30 96 99 25 3 3 5 5 5 4 5 5 5 1 0 0 0 0 2 37 100 94 100
100 99 100 100 100 100 98 21 7 8 5 5 7 43 33 13 8 5 5 14 50 96 93 8 5 5 5 5 5 5 5 5 5 5 0 0 0 0 5 5 49 7 75 100
24 83 96 67 46 10 5 5 10 5 9 32 32 35 5 5 5 63 51 32 87 25 5 5 5 5 5 4 5 5 5 5 4 0 0 0 4 5 5 5 5 5 68 100
17 22 6 12 26 75 87 90 82 58 96 92 83 100 81 99 98 16 5 13 5 5 5 4 5 0 0 5 5 5 5 2 0 0 1 5 5 5 5 19 67 45 10 95
54 6 5 5 13 5 11 44 70 67 7 16 72 100 100 100 33 5 5 5 5 5 2 0 0 4 5 5 11 34 4 0 0 4 5 5 5 5 6 90 100 100 99 86
80 100 86 92 95 84 76 69 23 5 5 84 100 81 60 7 5 6 5 5 5 5 0 5 5 5 5 5 5 1 0 0 5 5 5 5 5 62 99 100 100 100 100 100
59 83 100 100 96 41 2 5 5 5 71 68 8 20 66 83 82 31 5 5 5 5 4 5 5 5 5 4 0 0 0 0 5 0 5 5 71 100 100 100 100 100 100 96
100 100 80 5 5 5 5 5 5 5 28 5 7 14 19 26 34 25 5 5 5 5 5 5 5 4 0 0 0 0 0 3 3 5 8 91 100 98 32 72 100 100 100 98
90 27 6 5 5 5 5 5 5 15 21 12 5 18 61 74 34 5 5 5 5 5 11 5 4 0 0 1 3 5 0 4 5 24 98 60 57 92 65 70 100 100 100 98
13 5 5 5 5 5 5 5 5 5 5 5 5 5 40 32 15 5 5 17 34 5 5 5 0 0 0 2 1 5 5 5 9 27 14 66 11 5 5 52 100 100 100 100
14 8 5 5 5 5 5 5 5 7 12 52 65 63 71 65 6 5 5 5 14 5 5 2 0 5 4 2 5 5 5 5 5 5 5 5 5 27 95 100 99 100 100 100
66 53 39 47 68 16 5 5 19 12 20 15 5 10 7 15 5 5 5 8 5 5 2 4 5 5 5 5 5 5 5 5 4 5 5 5 49 76 88 100 100 100 100 100
93 98 96 98 98 58 13 8 10 17 22 40 16 20 18 5 5 5 5 81 40 5 5 5 5 5 5 5 5 4 0 0 5 5 5 5 48 73 96 100 100 100 100 99
100 98 67 34 5 5 5 5 19 8 5 5 5 5 5 5 30 65 27 5 5 5 5 5 5 4 5 3 0 0 5 5 5 5 5 76 77 100 100 100 100 100 94 82
69 33 17 7 14 21 29 42 12 5 5 5 5 5 35 44 5 23 26 5 5 5 5 4 0 0 0 3 5 5 5 5 18 100 99 80 85 100 100 100 100 100 100 96
95 52 17 25 35 14 5 5 5 5 5 40 55 64 63 55 37 5 5 5 5 4 0 0 0 5 5 5 5 5 5 5 84 98 100 85 100 100 100 100 100 99 100 100
64 30 42 5 5 5 5 24 70 72 74 83 89 72 79 11 5 5 5 5 0 4 0 0 1 4 5 5 5 5 60 87 100 100 100 100 100 100 100 100 99 100 100 100

GFSNGP_prec_cloud_009.txt.gz
Cloud_Cover
31 100 13 6 1 39 15 19 44 4 0 0 0 0 0 0 0 0 3 5 5 5 84 90 96 98 100 84 77 94 100 92 32 50 32 27 20 5 16 5 5 0 0 0
100 31 8 5 5 5 46 60 5 0 0 0 0 0 0 0 0 4 5 18 31 5 55 99 99 82 70 100 100 100 99 100 84 72 12 5 5 5 5 4 0 0 0 0
98 58 89 10 5 9 59 6 4 1 0 0 0 0 0 0 2 48 99 100 100 100 100 99 77 82 100 100 100 100 98 86 42 5 5 5 4 5 0 0 0 0 0 0
93 80 42 14 78 34 7 5 5 5 5 0 0 0 0 4 99 99 100 100 100 100 100 96 80 100 100 100 100 77 33 7 5 5 4 0 0 0 0 0 0 0 0 0
75 61 36 61 96 83 36 33 5 5 25 5 5 5 5 60 87 100 100 100 99 99 100 40 82 88 99 95 9 5 5 2 5 0 0 0 0 0 0 0 0 0 0 0
100 68 57 100 100 49 45 71 100 92 78 32 50 84 77 100 100 100 100 100 94 92 36 47 78 100 41 47 94 7 5 0 0 0 0 0 0 0 0 0 0 0 0 0
100 100 100 100 99 76 94 100 100 65 94 96 100 100 100 100 100 100 98 98 58 8 31 100 91 70 100 94 8 5 0 0 0 1 2 0 0 2 0 0 0 0 0 0
100 100 100 100 84 54 99 100 100 100 100 100 100 100 100 97 88 69 75 39 57 87 100 17 60 100 52 5 5 1 0 1 4 2 2 1 0 0 4 1 0 0 0 4
100 100 100 100 100 100 100 100 100 100 100 100 90 92 99 100 100 55 85 98 100 55 7 42 42 77 5 5 2 0 4 5 5 5 0 0 1 5 4 1 0 0 5 40
100 100 100 100 100 100 100 100 100 83 99 92 80 82 85 99 96 59 100 84 51 6 6 41 59 45 63 2 5 5 5 5 5 0 2 5 0 0 4 0 4 5 67 97
100 100 100 79 42 76 81 88 98 87 91 95 100 100 92 84 95 87 94 50 5 5 5 22 95 59 5 8 6 5 5 0 0 4 3 0 4 5 1 5 18 84 79 97
100 74 40 8 12 5 68 100 100 100 76 33 70 98 100 65 62 67 44 24 84 33 59 94 18 5 5 5 5 5 5 0 2 0 3 1 5 0 5 5 30 16 91 100
100 100 26 5 5 5 5 22 75 70 90 99 100 90 40 12 17 83 100 68 16 23 77 5 5 5 5 5 5 5 0 0 0 0 0 0 4 5 5 5 5 19 83 100
98 100 99 49 5 5 7 85 100 100 99 82 28 37 66 67 64 40 86 8 30 12 5 5 5 5 5 5 5 5 4 0 0 0 0 4 5 5 5 5 43 59 44 100
15 23 17 5 5 20 87 97 99 89 7 5 56 72 78 80 70 55 7 17 5 5 5 5 5 5 5 5 4 0 0 0 2 2 5 5 5 5 6 85 100 100 79 36
97 5 5 24 87 98 93 99 95 71 50 81 10 79 96 9 24 7 5 5 5 5 5 5 5 5 4 0 0 0 0 0 3 5 5 5 5 5 94 100 100 100 98 77
5 41 97 100 100 100 97 18 26 82 41 91 46 5 5 5 5 5 5 5 5 5 5 5 5 5 5 5 0 0 0 0 5 4 5 5 7 97 100 99 67 98 99 96
100 100 100 96 45 5 25 91 100 58 7 36 5 5 5 5 5 5 5 5 5 5 5 5 5 5 5 4 0 0 0 4 5 5 5 43 87 73 5 62 66 100 100 95
50 10 5 35 86 100 82 20 5 5 5 5 5 6 31 5 5 5 5 5 4 5 5 5 5 5 5 0 0 0 0 4 5 5 13 35 34 6 11 16 99 100 100 100
22 6 6 66 15 5 5 5 5 5 5 5 5 5 5 5 5 5 5 5 5 5 5 5 5 5 0 0 1 5 5 5 5 5 5 26 6 5 5 79 100 100 100 100
100 100 96 57 45 29 20 5 5 5 5 5 5 6 10 10 7 5 5 5 5 5 5 5 5 2 0 3 5 5 5 5 5 5 5 5 5 9 88 100 100 100 100 100
38 30 20 9 5 6 8 5 5 7 13 49 65 91 94 95 60 34 10 5 5 5 5 5 5 2 4 5 5 5 5 4 2 4 5 5 25 96 100 100 100 100 100 100
88 74 41 40 58 94 94 56 50 61 94 100 100 100 97 60 51 9 5 5 5 5 5 5 4 2 5 5 1 0 0 0 4 5 5 6 70 100 100 100 100 100 100 100
100 100 100 97 86 60 10 11 88 100 100 100 95 50 7 5 5 5 5 5 5 5 5 1 0 1 5 0 0 2 5 5 5 5 8 92 98 100 100 100 100 100 100 100
100 100 100 95 58 98 100 98 86 76 21 5 5 5 6 5 28 33 6 57 11 5 1 0 0 0 0 1 5 5 5 5 17 99 100 96 93 100 100 100 100 100 100 100
100 100 91 81 55 54 50 55 55 31 14 22 55 56 7 5 5 5 5 5 0 0 0 0 0 3 5 5 5 5 5 5 40 85 100 100 100 100 100 100 100 100 100 100
100 85 79 70 68 92 99 95 52 30 45 41 9 5 5 5 5 5 5 5 0 0 0 0 3 5 5 5 5 5 5 49 98 100 100 99 100 100 100 100 100 100 100 100

GFSNGP_prec_cloud_012.txt.gz
Cloud_Cover
1 1 0 1 4 4 2 28 5 3 2 4 4 0 0 0 0 0 0 0 0 1 3 5 5 5 5 48 85 85 67 6 49 88 91 56 99 56 3 5 5 5 5 0
5 5 1 0 0 0 0 5 5 5 1 5 0 0 0 0 0 0 0 0 3 5 5 5 5 8 93 98 100 82 13 76 100 91 95 91 5 5 5 2 5 0 0 0
45 5 5 5 6 4 4 0 0 2 4 0 0 0 0 0 0 0 0 0 0 0 5 5 62 100 88 55 61 68 83 87 97 100 98 6 4 5 5 2 0 0 0 0
31 89 36 3 4 5 1 0 0 2 5 0 0 0 0 0 5 5 5 4 0 25 69 100 92 87 78 97 96 86 64 100 99 29 5 0 5 3 0 0 0 0 0 0
96 54 65 99 10 4 0 4 5 5 5 5 5 5 3 2 5 5 6 53 92 100 96 100 100 100 90 72 86 80 96 30 5 5 5 5 0 0 0 0 0 0 0 0
88 84 5 84 40 5 5 6 6 39 7 5 5 5 5 5 9 19 56 84 100 100 100 100 100 94 35 29 94 79 5 5 5 5 0 0 0 0 0 0 0 0 0 0
90 75 70 80 29 75 11 50 7 9 14 12 34 25 50 86 98 100 100 100 100 100 100 94 82 100 55 100 100 93 6 5 5 0 2 2 4 0 0 0 0 0 0 0
99 95 58 100 100 81 98 27 16 13 49 47 23 75 92 99 100 100 100 100 100 98 58 96 90 92 100 100 74 6 5 0 5 5 5 5 4 0 0 0 0 0 0 0
99 91 94 88 65 32 8 20 92 100 100 100 100 100 100 100 100 100 100 100 64 99 83 97 100 100 100 51 5 4 5 5 5 5 5 0 0 0 0 0 0 0 0 5
100 100 100 100 100 100 100 100 100 100 100 100 100 100 100 100 100 99 98 100 100 100 100 80 100 89 26 5 5 5 5 5 5 5 1 0 0 0 0 0 0 0 5 5
100 100 100 100 97 100 100 100 100 100 100 100 100 99 100 97 100 100 100 100 100 96 42 38 5 5 5 5 5 5 4 4 0 0 0 0 0 0 0 0 4 5 5 72
100 100 100 100 100 100 100 100 100 100 100 67 93 98 100 98 95 100 100 100 44 12 21 5 5 5 5 3 1 4 4 1 3 0 0 0 0 0 0 5 5 6 53 97
100 100 89 100 80 58 26 9 6 6 5 26 96 100 100 100 100 100 100 8 39 23 5 5 5 0 4 3 2 0 0 0 0 0 0 0 0 0 0 0 5 23 82 99
49 95 100 91 78 77 26 16 39 15 37 91 100 93 98 100 82 31 18 12 8 5 5 4 0 4 5 5 5 0 0 0 0 0 0 0 0 0 1 5 5 21 83 99
4 21 62 74 26 8 5 5 5 4 13 65 37 7 52 55 5 28 5 5 5 5 5 5 5 5 5 3 3 0 0 0 0 0 0 1 3 5 5 32 76 93 90 58
5 2 4 4 21 25 2 5 5 5 5 10 75 48 14 5 63 49 5 5 5 5 5 5 5 5 4 5 0 0 0 0 0 0 0 3 5 5 5 74 95 91 98 100
4 86 20 100 94 38 32 62 54 45 89 47 6 32 74 84 18 5 5 5 5 5 5 5 5 5 5 4 5 5 0 0 0 4 5 5 5 5 77 93 97 100 100 100
5 5 20 86 92 69 61 74 68 39 51 75 84 72 7 5 8 53 24 15 5 5 5 5 5 5 5 5 5 4 0 0 4 5 5 5 5 63 71 81 97 100 100 100
30 29 61 80 92 84 79 80 73 81 96 100 58 15 41 47 24 6 12 9 21 16 5 5 5 5 5 5 5 0 2 5 5 5 5 5 6 16 24 79 100 100 100 100
85 92 94 99 100 96 56 71 99 100 91 82 99 72 51 71 68 51 63 59 7 5 5 5 5 5 5 5 1 5 6 5 5 5 5 5 5 5 60 97 100 100 100 100
45 61 77 65 70 100 99 99 93 100 100 98 86 99 96 100 94 44 6 5 5 5 5 5 5 5 5 3 5 5 5 5 5 5 5 5 5 28 96 100 100 100 100 100
95 79 64 51 65 98 100 100 100 100 94 93 98 100 98 54 34 31 49 12 5 5 5 5 5 5 4 18 5 5 2 0 0 3 5 7 62 98 100 100 100 100 100 100
40 70 41 77 100 100 100 98 82 78 91 100 99 95 40 35 74 88 15 5 5 14 5 5 2 4 5 5 4 0 0 2 5 5 15 92 100 100 100 100 100 100 100 100
78 47 61 71 60 56 66 81 94 78 77 71 63 48 43 23 6 5 42 22 5 5 5 0 0 5 5 1 0 2 5 5 5 77 100 100 100 100 100 100 100 100 100 100
73 77 81 90 98 91 60 44 9 28 44 39 8 5 5 5 5 5 5 5 5 1 0 0 0 4 0 3 5 5 5 29 80 99 100 100 100 100 100 100 100 100 100 100
68 91 98 100 99 58 33 47 72 55 39 10 5 5 5 5 5 5 5 3 0 0 0 0 0 5 5 5 5 5 26 78 100 100 100 100 100 100 100 100 100 100 100 100
51 91 87 50 61 39 43 33 11 5 5 5 5 5 5 5 5 5 5 0 0 0 0 2 3 5 5 8 26 57 90 100 100 100 100 100 100 100 100 100 100 100 100 100

GFSNGP_prec_cloud_015.txt.gz
Cloud_Cover
100 99 100 100 100 100 6 100 21 39 5 17 35 0 0 0 0 0 0 0 0 0 0 0 0 0 0 5 5 5 22 82 70 5 11 56 45 5 42 68 100 33 5 0
100 62 100 94 94 5 2 3 5 5 5 22 4 4 1 1 0 0 0 0 0 0 0 0 0 0 4 0 5 80 100 83 22 97 100 42 9 5 33 41 5 0 0 0
99 8 5 5 5 5 4 0 2 2 51 8 1 4 0 0 0 0 0 0 0 0 0 0 0 0 1 13 78 100 90 78 100 100 57 5 6 9 9 5 0 0 4 2
94 6 54 3 0 0 0 0 0 0 7 1 0 0 0 0 0 0 0 0 5 5 5 5 2 4 49 98 99 76 94 100 100 92 5 5 5 8 2 0 4 5 3 0
91 18 35 1 2 0 0 2 4 18 8 5 1 1 0 0 0 0 0 3 5 5 3 5 28 89 100 100 100 100 100 96 24 5 5 5 5 0 4 5 3 0 0 0
76 82 99 90 8 4 2 5 5 5 1 4 5 4 0 0 0 0 2 4 12 48 84 100 100 100 100 100 100 99 100 89 11 5 5 0 0 3 5 1 0 0 0 0
84 99 91 68 55 19 5 38 6 5 5 5 5 5 31 4 5 5 6 37 81 99 100 100 100 100 100 88 47 5 7 50 20 5 2 0 4 3 0 0 0 0 0 0
100 70 100 68 26 56 84 42 23 5 9 5 5 5 22 91 90 93 98 100 100 100 100 100 100 79 81 88 12 22 48 31 5 5 5 4 0 0 0 0 0 0 0 0
30 84 100 94 100 69 96 99 92 75 72 46 79 28 46 94 100 100 100 100 100 100 100 98 90 73 97 98 61 98 40 5 5 5 5 5 0 0 0 0 0 0 0 0
67 100 100 99 99 58 86 60 14 18 19 68 100 100 100 100 100 100 100 100 100 100 94 84 100 100 100 97 99 9 5 5 5 5 5 0 0 0 0 0 0 0 1 5
100 100 100 100 100 100 100 100 100 100 100 100 100 100 100 100 100 100 100 90 62 76 99 100 86 100 100 100 32 5 5 5 5 5 0 0 0 0 0 0 1 5 5 28
100 86 100 100 100 100 100 100 100 100 100 100 100 100 100 100 98 55 69 93 99 100 100 100 100 100 100 48 5 5 5 5 1 0 0 0 0 0 0 0 2 5 48 95
100 100 100 100 100 100 100 100 100 100 100 100 100 72 9 5 5 5 6 57 90 100 100 100 100 100 100 10 5 5 2 0 5 4 0 0 0 0 0 0 0 2 11 73
61 38 46 20 21 35 48 56 34 38 22 43 5 5 5 5 47 100 100 100 100 100 100 100 100 61 13 5 5 1 5 5 4 0 0 0 0 0 0 0 1 5 5 67
6 88 98 100 100 69 11 6 71 43 7 5 5 5 5 22 88 100 100 100 100 100 100 63 5 5 5 5 5 5 5 1 0 0 0 0 0 0 0 2 5 5 5 5
5 45 5 5 6 5 5 15 5 4 5 5 5 11 64 100 100 99 100 100 99 81 58 17 5 5 5 5 5 5 0 0 0 0 0 0 0 0 5 5 5 5 5 5
3 94 100 100 7 4 5 5 5 5 5 23 71 98 100 100 93 70 27 85 99 67 5 5 5 5 5 5 5 5 5 5 0 0 0 1 5 5 5 5 5 5 5 45
5 5 5 5 5 5 4 7 24 80 100 100 100 100 87 45 20 70 74 52 13 6 26 34 5 5 5 5 5 5 5 1 0 2 5 5 5 5 5 5 5 5 26 76
20 5 5 5 5 38 93 100 100 100 100 100 100 96 65 64 59 52 41 47 73 79 78 15 5 5 5 5 5 5 1 3 5 5 5 3 5 5 5 5 5 17 97 99
84 93 99 100 100 100 100 95 64 78 100 100 98 64 54 59 60 89 94 99 77 28 7 5 5 5 5 5 5 4 5 5 5 2 0 1 1 5 5 5 69 99 100 100
100 100 100 100 100 98 94 91 89 76 96 77 95 69 54 65 89 99 68 53 11 5 5 5 5 5 5 4 4 5 5 4 0 0 0 0 5 5 6 27 98 100 100 98
100 100 100 84 49 50 64 59 93 100 99 50 77 98 100 90 83 52 15 5 5 5 5 5 5 5 1 5 5 3 0 0 0 0 3 5 8 60 97 99 100 100 100 100
100 93 89 97 97 100 100 97 97 74 88 100 99 74 34 31 6 5 5 5 5 5 5 5 5 4 4 4 0 0 0 0 4 5 6 47 92 100 100 100 100 100 100 100
100 100 100 96 84 80 58 72 86 100 97 69 41 22 6 5 5 5 5 5 5 5 5 5 5 3 5 3 0 0 0 5 5 13 86 100 100 100 100 100 100 100 100 100
85 95 100 95 68 54 35 66 56 18 5 5 5 5 5 5 5 5 5 5 5 41 5 4 0 1 0 0 0 3 5 5 13 100 100 99 100 100 100 100 100 96 100 100
94 84 80 60 19 34 11 5 5 5 5 5 31 41 31 10 7 13 5 24 28 5 2 0 0 2 5 5 5 5 5 5 57 71 100 100 100 100 100 100 100 100 100 100
58 45 20 35 36 28 39 72 46 75 95 100 93 54 46 49 30 19 9 5 5 0 0 0 0 2 5 5 5 5 6 44 85 100 100 98 100 100 100 100 100 100 100 100

GFSNGP_prec_cloud_018.txt.gz
Cloud_Cover
100 100 100 100 100 100 100 100 72 13 10 39 5 5 2 0 5 5 5 5 5 3 0 0 0 0 0 0 0 0 0 2 5 99 96 89 100 100 100 91 100 100 85 30
100 100 100 100 100 100 100 95 99 6 5 92 25 0 3 5 3 1 0 0 0 0 0 0 2 3 2 0 0 0 5 74 100 100 99 100 100 100 100 100 82 49 7 3
99 90 93 100 100 100 100 100 96 100 100 40 29 9 3 2 0 0 0 0 0 0 0 0 0 0 4 5 4 51 100 100 100 100 100 100 100 99 82 47 8 3 0 0
84 34 6 4 11 77 90 21 15 98 91 5 4 4 4 0 0 0 0 0 0 0 0 2 4 5 5 5 54 81 100 100 100 100 100 88 76 11 5 5 3 0 0 0
5 5 31 5 5 32 88 42 0 0 0 5 5 5 5 5 0 0 0 0 0 0 3 5 5 5 75 99 100 100 100 100 100 100 65 13 5 5 5 3 0 0 0 0
56 52 5 20 5 0 1 4 0 0 0 0 0 0 4 5 2 3 0 2 5 6 14 99 95 100 100 95 100 100 100 100 78 13 5 5 8 5 5 1 0 0 0 0
100 79 93 99 74 6 22 2 2 0 1 0 0 2 5 5 1 6 13 29 72 86 100 100 98 100 100 100 100 100 93 11 22 13 5 5 5 5 1 1 0 0 0 0
100 100 100 67 33 84 84 59 12 5 5 5 5 5 5 5 5 59 81 58 86 99 100 100 100 100 100 100 86 27 26 36 5 5 26 13 5 5 5 3 0 0 0 0
100 100 100 100 68 95 89 67 83 91 65 13 38 33 52 97 100 100 100 100 100 100 100 100 100 100 80 30 65 64 56 13 94 100 65 5 5 5 0 1 0 0 0 0
93 71 86 69 81 100 100 100 89 92 99 90 83 99 98 90 100 100 100 100 100 100 100 97 71 90 85 100 89 55 97 100 97 48 5 5 5 5 2 5 0 0 0 5
90 100 67 76 84 71 84 84 100 100 98 100 100 100 100 100 100 100 100 100 100 99 100 91 100 94 25 76 100 100 100 81 9 5 5 5 4 5 5 0 0 1 5 5
100 100 100 100 100 100 100 100 98 82 99 100 100 100 100 100 100 100 100 100 100 55 91 32 14 36 95 100 100 100 88 5 5 5 5 5 5 5 0 0 0 1 5 19
100 100 100 100 100 100 97 100 100 100 100 100 100 100 100 100 100 100 100 14 5 5 5 50 82 100 100 100 100 48 5 5 5 5 9 5 4 0 0 0 0 0 4 5
100 100 100 100 100 100 100 99 98 98 91 91 82 77 58 37 12 5 5 5 36 74 81 90 100 100 100 98 15 5 5 10 53 7 5 0 0 0 0 0 0 0 0 5
100 100 100 100 100 100 96 80 78 91 45 11 28 6 5 3 2 5 39 69 89 88 100 100 100 100 42 8 5 5 52 27 6 2 0 0 0 0 0 0 3 5 5 4
11 79 62 100 99 89 59 21 12 13 62 5 1 0 0 4 5 16 87 99 100 100 100 100 58 13 5 5 5 6 9 2 0 0 0 0 0 0 0 4 5 5 5 5
13 87 46 29 7 14 51 6 58 33 3 0 2 5 6 89 99 76 95 100 100 98 13 18 20 25 5 5 5 4 0 5 5 0 0 0 0 0 5 3 5 5 5 5
5 5 5 5 4 2 5 25 7 5 4 15 60 100 95 94 100 98 94 53 9 27 37 55 6 5 5 3 5 2 5 5 0 0 0 0 0 4 0 0 0 5 5 5
27 12 5 5 3 5 5 5 13 70 84 89 100 100 100 89 38 11 12 45 55 93 26 5 5 5 2 0 5 5 3 0 3 5 0 0 0 0 0 1 4 5 24 70
100 82 84 48 21 76 82 87 97 100 100 100 100 58 39 27 30 46 66 96 74 54 5 5 5 0 5 5 5 0 0 0 0 0 0 0 0 0 4 5 61 98 100 100
100 100 100 100 100 100 100 100 100 100 100 100 98 76 62 49 74 95 99 94 28 5 5 5 5 5 5 5 5 0 0 0 0 0 0 0 0 5 5 5 72 100 100 100
100 100 100 100 98 84 67 81 85 96 85 95 83 64 77 95 78 53 46 5 5 3 5 5 5 5 5 4 1 0 0 0 0 0 0 5 5 5 30 86 98 100 100 100
100 85 58 58 70 82 97 90 91 100 99 97 97 100 94 73 31 23 5 5 5 5 5 5 5 5 5 0 0 0 0 0 0 0 5 5 32 100 100 100 100 100 100 100
100 100 100 100 100 100 100 100 100 99 100 100 100 100 100 92 71 70 57 51 5 5 37 5 5 1 3 0 0 0 0 0 3 5 45 99 100 99 100 100 100 100 98 96
100 100 100 100 100 100 100 100 99 99 100 100 100 100 100 100 92 84 36 11 43 39 5 5 2 0 0 0 0 1 5 5 5 93 83 83 100 95 100 100 100 100 100 98
100 97 91 91 73 67 50 39 26 38 99 100 99 100 100 95 49 66 60 7 5 5 5 5 4 0 0 0 5 5 5 5 6 53 100 100 97 100 100 100 100 100 100 100
98 100 100 100 100 96 71 24 11 80 99 100 100 100 98 98 86 19 36 35 6 5 5 0 0 0 0 4 3 4 5 5 60 100 99 64 92 100 100 100 100 100 100 100

GFSNGP_prec_cloud_021.txt.gz
Cloud_Cover
100 100 100 100 100 100 100 100 100 100 100 100 96 4 0 0 0 0 0 0 0 0 0 5 5 5 5 5 5 5 0 5 3 4 35 50 82 85 93 99 100 100 60 68
100 100 100 100 100 100 100 92 100 100 100 84 5 5 2 0 0 0 0 0 0 0 0 5 5 3 0 5 5 5 4 5 4 50 83 97 60 100 100 100 86 81 81 6
100 100 100 100 100 100 95 100 100 80 64 8 5 5 2 2 2 0 0 0 0 0 5 5 5 3 4 5 5 5 5 7 37 80 97 93 100 100 100 97 100 25 5 4
100 100 100 100 98 99 98 68 100 90 18 5 4 5 5 5 0 1 0 0 4 5 4 1 0 5 5 5 5 10 71 95 90 100 100 100 100 92 98 74 5 5 5 3
100 100 100 100 69 81 100 41 30 7 1 5 0 3 5 5 2 3 5 1 0 0 0 2 5 5 5 62 85 99 73 98 100 100 100 100 100 92 6 5 5 5 5 5
95 70 97 7 32 30 5 5 5 5 5 5 5 5 0 0 0 4 5 5 4 5 5 5 6 51 72 93 100 100 100 100 100 100 100 100 89 48 5 5 5 5 5 0
78 86 5 5 5 5 5 1 5 4 3 0 0 0 1 3 5 5 2 4 5 5 5 5 8 15 76 89 100 100 93 98 100 100 100 90 15 8 10 5 5 5 0 4
80 84 69 8 95 5 16 5 16 5 5 5 4 4 3 5 5 5 5 5 5 5 5 28 52 96 88 74 61 97 100 100 100 96 33 8 35 77 41 5 4 5 5 2
99 91 90 100 98 95 45 5 5 5 5 5 5 5 5 5 5 5 74 65 59 57 48 58 15 10 57 99 100 92 100 100 79 13 82 92 73 5 5 5 5 5 0 0
100 99 98 50 97 100 88 14 5 5 5 5 5 5 5 5 5 11 48 66 71 53 78 100 100 100 100 100 100 95 83 17 82 99 99 66 5 5 5 5 5 0 0 0
98 86 100 80 99 100 95 36 42 74 39 8 63 76 94 90 98 100 100 100 100 100 100 100 100 80 38 85 68 12 32 95 96 95 20 5 6 16 5 4 0 0 0 5
99 100 100 100 100 100 100 100 97 94 100 100 100 100 100 100 100 100 100 100 100 100 100 86 55 22 20 5 17 84 93 98 50 5 6 37 9 5 1 0 0 0 4 5
100 100 100 100 100 100 100 100 100 100 100 100 100 100 100 100 100 100 100 100 100 24 5 11 5 5 6 68 79 93 46 5 5 36 11 5 3 0 0 0 0 0 0 5
100 100 100 100 100 100 100 100 100 100 100 100 100 100 97 85 24 4 4 3 2 4 5 47 23 55 84 65 16 5 5 5 44 5 5 0 0 0 0 0 0 0 0 4
100 100 100 98 100 100 100 100 100 100 100 100 86 34 7 5 5 4 0 5 12 12 22 25 28 26 5 5 5 5 5 5 5 4 0 0 0 0 0 0 0 0 0 0
100 100 100 100 100 100 88 62 67 89 74 73 73 20 5 0 0 2 48 96 72 13 5 7 5 5 5 5 18 11 5 5 4 2 0 0 0 0 0 0 0 0 0 2
55 31 5 13 39 7 5 5 6 57 94 77 45 0 0 4 45 99 100 47 5 5 5 5 5 5 7 71 22 44 5 5 3 0 0 0 0 0 0 0 0 0 1 10
9 67 20 14 16 19 5 5 33 100 97 8 5 6 40 89 96 97 73 9 6 9 15 5 13 81 89 74 76 5 5 5 1 4 0 0 0 0 0 0 0 4 5 10
67 95 100 99 54 6 5 56 100 83 6 48 64 79 97 94 100 95 68 25 44 8 19 62 93 100 89 79 10 5 5 5 5 5 2 0 0 0 0 1 5 29 80 96
30 81 96 76 33 40 83 100 92 63 86 96 100 100 100 100 66 28 61 58 58 76 91 100 100 100 98 7 5 5 5 5 5 3 0 0 0 0 1 5 89 89 100 100
100 100 100 100 99 100 100 100 100 100 100 100 100 91 20 44 99 92 74 82 97 100 100 100 100 89 5 5 5 6 5 5 4 0 0 0 0 5 5 5 31 100 100 100
100 100 100 100 100 100 100 100 100 100 88 66 67 55 79 92 88 100 100 100 100 100 100 93 25 64 12 27 49 58 28 5 0 0 0 1 5 35 74 95 100 100 100 100
100 100 100 100 100 100 100 95 61 63 61 42 67 83 98 100 100 100 100 100 100 100 93 98 79 38 83 94 99 17 1 0 0 3 5 5 74 97 93 100 100 100 100 100
100 100 100 100 100 100 100 99 80 84 67 89 100 100 100 100 100 100 100 100 100 100 100 100 99 100 100 70 6 5 0 0 5 5 5 72 8 24 88 100 100 100 99 96
100 100 100 100 100 100 100 100 100 100 99 80 81 90 100 100 100 100 100 100 100 100 100 100 100 99 60 6 2 0 5 5 5 69 6 59 99 100 100 100 100 100 100 87
100 100 100 100 100 100 100 99 76 47 79 94 100 100 100 100 100 100 100 100 100 90 71 68 15 5 4 0 2 0 1 5 5 6 99 98 87 90 100 100 100 100 100 100
100 100 100 100 100 96 71 92 81 78 97 100 100 100 100 99 65 44 15 5 5 5 5 5 1 0 0 0 0 4 5 5 47 94 74 46 97 100 100 100 100 100 100 100

GFSNGP_prec_cloud_024.txt.gz
Cloud_Cover
100 100 100 100 100 100 100 100 100 100 100 100 100 100 100 100 7 0 0 1 0 0 5 8 9 5 5 5 5 5 5 5 5 5 5 5 4 5 69 70 8 68 86 74
100 100 100 100 100 100 100 100 100 100 100 100 100 100 100 85 6 5 0 0 0 0 5 5 5 4 5 5 5 5 5 5 5 5 5 5 65 100 68 44 86 66 50 5
100 100 100 100 100 100 100 100 100 100 100 100 100 100 100 52 5 5 5 0 0 3 5 5 4 0 5 2 4 5 5 5 5 11 63 78 68 67 100 100 98 72 73 50
100 100 100 100 100 100 100 100 100 100 100 100 100 100 99 22 5 5 5 4 3 5 5 5 0 0 0 5 5 5 8 57 69 88 66 66 92 97 97 91 74 100 80 6
100 100 100 100 100 100 87 83 100 81 100 57 22 58 6 70 5 5 5 5 5 5 5 5 0 0 0 5 5 40 99 97 22 56 73 67 70 94 59 95 98 9 5 18
100 100 100 100 28 78 5 29 3 5 58 9 72 100 99 58 43 5 5 5 5 5 5 5 2 2 5 5 49 62 94 91 76 11 77 95 92 100 100 52 8 48 61 5
100 96 84 60 21 8 5 1 5 17 93 8 64 100 100 100 99 56 4 5 5 5 5 5 5 5 5 28 92 100 93 4 14 98 75 37 99 96 22 8 68 28 5 5
55 38 61 50 5 5 12 11 5 3 2 98 88 88 59 9 5 3 2 0 4 4 4 5 5 14 88 100 78 18 5 29 85 38 93 100 61 6 34 19 5 5 5 5
55 52 5 5 31 5 5 18 50 5 5 89 100 76 5 5 5 4 4 5 5 5 5 58 67 33 14 9 5 5 5 5 68 100 57 6 5 38 6 5 5 5 4 0
53 10 26 89 78 97 88 100 84 84 100 100 100 100 90 56 16 51 40 5 5 5 6 6 22 5 5 5 7 5 30 95 76 5 5 5 5 5 5 5 5 4 0 0
51 56 44 25 65 98 100 100 100 100 100 100 82 10 5 26 23 32 36 21 5 5 5 5 5 5 5 5 5 43 71 41 5 5 5 5 5 7 19 5 5 0 5 5
100 100 100 100 100 100 100 100 100 100 96 98 91 78 58 72 80 57 27 13 5 5 5 5 5 5 5 8 59 60 56 11 5 5 5 5 67 98 23 5 5 5 2 5
100 100 100 100 100 100 100 100 100 100 99 100 100 100 63 18 7 5 5 5 5 5 5 4 5 5 59 61 66 13 28 43 5 23 37 70 78 19 11 87 6 0 0 5
100 100 100 100 100 100 100 100 100 100 100 100 98 60 43 37 8 5 5 3 3 1 1 5 48 60 47 40 58 37 5 15 41 54 86 100 70 84 48 5 0 0 0 3
100 99 100 100 94 100 98 96 100 100 75 40 25 29 5 5 5 5 5 2 2 14 66 76 71 49 66 41 5 9 59 40 71 100 100 100 100 80 5 4 0 0 0 0
100 100 100 95 100 98 75 85 65 69 51 24 10 15 16 5 4 0 2 58 99 93 70 46 70 57 6 5 51 69 58 94 100 100 100 100 100 45 5 2 0 0 0 4
100 100 75 95 63 14 31 27 5 5 68 100 100 80 6 0 3 41 100 81 54 49 76 31 23 40 60 81 88 100 100 98 100 100 100 91 30 5 5 0 0 0 5 10
74 81 22 26 5 5 5 5 10 84 100 100 98 22 6 76 85 78 90 72 82 56 24 64 29 90 100 99 87 89 91 99 100 93 98 67 20 5 0 0 4 5 5 12
73 60 5 6 5 5 24 16 79 100 100 97 12 31 68 93 96 89 91 74 38 64 17 52 90 84 83 92 66 82 100 100 100 100 73 10 5 2 2 5 9 49 62 99
100 100 99 99 81 69 58 100 100 100 70 86 99 98 100 100 85 55 31 38 7 33 63 55 58 84 63 56 99 100 98 64 48 25 5 5 1 5 5 29 87 85 100 100
60 79 94 100 100 91 100 100 100 100 100 100 100 100 100 92 40 14 5 5 11 22 65 64 57 6 43 66 76 73 90 72 6 5 0 0 5 5 44 93 100 100 100 100
56 87 100 83 80 92 100 89 99 100 100 100 100 100 19 16 5 11 32 27 42 70 60 5 7 12 33 80 95 74 5 4 1 0 4 5 5 63 85 100 100 100 100 100
95 88 100 100 98 86 98 100 100 100 100 100 96 53 31 27 27 25 39 40 11 5 17 39 17 68 100 72 18 2 0 0 4 5 5 10 56 43 92 100 100 100 100 100
100 100 100 98 100 100 99 100 100 100 100 100 81 87 76 57 57 44 17 44 23 24 28 6 24 21 5 5 0 3 5 5 5 5 11 53 49 94 100 100 100 100 100 100
100 100 100 100 100 100 100 100 100 100 100 100 88 73 80 99 98 97 100 87 35 5 5 5 5 5 0 0 2 5 5 5 6 77 6 94 100 100 99 100 100 100 100 94
100 100 100 100 100 100 100 100 100 100 100 97 96 100 100 100 100 94 50 6 5 5 5 5 5 5 4 0 1 0 3 5 5 39 98 81 76 91 100 100 100 100 100 96
100 100 100 100 100 100 100 100 100 100 98 86 88 100 89 58 28 7 5 7 5 5 5 5 5 0 0 2 0 4 5 5 57 94 71 72 98 100 100 100 100 100 100 100

GFSNGP_prec_cloud_030.txt.gz
Cloud_Cover
100 100 100 100 100 100 100 100 100 100 55 49 100 100 86 15 21 51 11 87 92 24 0 0 2 4 5 5 5 4 4 5 5 5 11 48 12 14 19 5 65 90 60 37
100 100 100 100 100 100 100 100 100 100 90 98 100 87 100 86 7 86 100 100 94 48 94 74 79 5 5 5 5 5 9 5 5 5 6 20 20 39 32 65 87 52 55 3
100 100 100 100 100 100 100 100 100 100 97 100 100 100 100 100 100 100 100 100 99 100 100 100 90 5 5 5 14 52 28 52 23 5 60 62 47 62 88 98 67 8 0 5
100 100 100 100 100 100 100 100 100 100 100 100 100 100 97 100 100 100 100 99 93 100 100 99 8 4 5 39 47 15 41 20 62 78 39 6 82 87 99 64 7 3 5 5
100 100 100 100 100 100 100 96 100 99 99 100 100 100 100 100 92 93 100 100 100 100 100 99 11 5 5 35 64 34 5 5 5 5 34 85 99 100 95 7 5 5 5 47
100 100 100 100 100 100 100 92 100 100 100 100 100 92 100 100 98 100 100 100 100 100 99 41 5 6 5 5 10 5 5 6 28 75 92 100 100 68 5 5 5 41 49 5
100 100 100 100 100 100 100 75 94 100 100 100 100 100 100 100 100 100 100 100 100 100 96 100 95 8 29 63 52 6 31 83 95 86 94 39 5 5 5 14 43 5 5 5
100 100 100 100 100 97 96 100 100 100 100 100 100 100 100 100 100 100 100 100 100 100 100 100 99 83 78 58 17 69 90 95 79 40 5 5 3 5 42 9 5 5 5 29
84 96 98 100 100 100 100 100 100 85 100 100 100 100 100 100 100 100 100 100 100 100 98 62 33 35 88 93 82 93 35 34 6 5 1 5 44 14 5 5 5 5 5 56
100 99 100 100 100 100 90 100 99 99 98 89 98 99 100 100 100 100 100 100 100 45 34 75 91 95 94 98 100 92 37 5 5 5 21 42 5 5 5 5 5 5 5 5
100 90 100 100 100 82 100 98 100 100 86 87 100 100 99 99 100 100 100 97 88 96 100 100 100 100 100 100 92 13 5 5 5 12 5 5 5 5 5 5 5 5 5 5
100 100 100 100 100 96 100 100 100 100 100 100 100 100 100 100 100 99 99 100 100 100 100 100 100 100 96 22 5 5 5 5 5 5 5 5 5 5 5 4 4 1 0 5
100 100 100 100 100 96 91 100 100 100 100 100 100 100 100 100 100 100 100 100 100 100 100 100 100 97 7 5 5 5 5 5 5 5 5 5 5 5 5 5 0 0 0 0
100 100 100 100 100 100 100 100 100 100 100 100 100 100 100 100 100 100 100 100 100 94 67 28 5 5 5 5 5 5 5 5 5 5 5 5 5 4 0 0 0 0 0 0
96 84 94 98 100 100 100 100 100 100 100 100 100 100 100 100 100 100 97 91 85 37 6 5 5 5 5 5 5 5 5 5 5 5 5 5 3 0 0 0 0 0 0 0
100 100 100 100 100 100 100 100 100 100 100 100 100 98 100 100 94 17 7 5 4 0 5 5 5 8 32 55 53 12 5 5 5 5 3 0 0 0 0 0 0 0 2 5
100 100 100 100 100 100 100 100 100 100 100 100 100 100 98 8 5 5 0 4 17 62 67 88 97 97 76 11 5 5 5 5 5 5 0 2 0 0 0 0 5 5 5 14
100 100 100 100 100 100 100 100 100 100 100 98 96 6 10 5 5 5 8 16 57 100 90 76 90 20 5 5 5 5 5 5 3 4 0 0 2 0 0 5 5 20 29 22
100 100 100 100 100 100 100 100 100 100 99 90 38 5 5 5 5 60 80 99 72 81 85 48 27 6 5 5 5 5 5 5 1 1 0 3 0 4 5 5 60 76 73 100
100 100 100 100 100 100 100 100 100 100 100 99 52 14 5 5 40 68 74 72 90 77 22 7 5 5 5 5 5 5 5 5 1 0 3 5 5 5 5 48 86 75 85 87
100 100 100 99 90 94 98 100 100 100 100 99 92 60 55 40 40 75 100 95 92 32 20 5 5 5 5 5 5 5 5 5 5 5 5 5 5 14 74 65 90 91 97 100
82 98 100 100 100 100 100 100 100 100 100 100 99 100 86 68 74 100 91 85 57 47 27 8 5 5 6 12 5 7 5 5 5 5 5 7 65 98 98 97 100 100 100 94
100 100 100 100 100 100 100 100 100 100 100 100 100 79 65 98 100 100 100 100 98 82 38 12 7 12 23 5 16 31 5 5 5 5 31 70 75 82 97 100 99 94 99 100
100 100 100 100 100 100 100 100 100 100 100 100 93 91 100 100 100 100 100 100 64 97 98 56 14 14 21 17 6 5 5 5 5 55 64 47 74 86 98 97 100 99 100 98
76 100 100 99 98 96 98 100 100 100 100 100 100 100 100 100 100 99 85 100 100 100 43 5 8 44 12 8 5 5 5 6 47 83 57 76 95 94 83 90 100 100 100 90
96 100 100 100 100 100 100 100 100 100 100 100 100 100 100 99 100 100 100 100 68 7 32 5 17 22 13 5 5 5 5 5 23 67 63 82 81 64 84 97 100 100 100 100
100 100 100 100 100 100 100 100 100 100 100 100 100 100 100 100 100 100 61 30 33 24 11 44 17 11 5 4 5 5 5 24 23 49 62 51 56 68 89 99 100 100 100 100

GFSNGP_prec_cloud_033.txt.gz
Cloud_Cover
96 98 100 100 100 100 100 100 100 89 98 100 66 86 100 100 100 63 35 1 0 3 12 71 91 100 100 100 100 100 100 100 84 10 5 5 5 5 10 98 100 59 11 41
100 100 100 100 100 100 100 100 100 94 62 100 100 100 100 100 100 94 86 43 20 5 80 100 78 100 100 100 100 100 90 100 56 18 22 5 5 29 100 100 85 71 52 84
100 100 100 100 100 100 100 100 34 100 98 100 98 100 100 100 100 78 97 41 11 7 100 100 73 86 81 57 34 26 100 100 98 22 5 15 95 100 100 91 82 58 95 56
100 100 100 100 100 100 100 100 100 100 78 100 100 100 100 100 100 100 100 100 97 82 82 89 90 52 83 99 77 100 100 76 6 19 96 100 100 93 81 67 88 81 5 5
100 100 100 100 100 100 100 100 100 100 100 100 100 97 100 100 100 100 100 100 100 100 100 100 100 98 100 100 100 100 88 37 96 99 73 58 63 72 82 92 18 5 3 4
100 100 100 100 100 100 100 100 100 100 100 100 100 100 99 100 94 100 100 100 100 100 100 100 100 100 100 100 100 100 48 12 84 75 50 56 92 94 60 5 5 5 5 5
100 100 100 100 100 100 100 100 100 100 100 100 92 100 100 100 100 100 100 100 100 100 100 100 100 100 100 100 67 8 23 61 49 42 94 88 91 12 5 5 5 5 5 5
100 100 97 100 100 100 93 100 100 100 100 100 100 100 100 100 100 100 100 100 100 100 100 100 100 100 100 100 80 89 94 78 69 72 77 18 5 5 5 5 5 5 5 5
94 78 100 100 98 83 100 100 100 100 100 100 100 100 100 100 100 100 100 100 100 100 100 100 100 100 100 100 100 91 87 91 77 61 70 6 5 5 5 5 5 5 5 4
62 90 100 100 84 46 10 34 97 100 100 100 100 100 100 100 100 100 100 100 100 100 100 100 100 100 100 100 100 100 89 96 98 62 5 5 5 5 5 5 3 5 0 0
100 98 100 100 99 96 100 100 97 98 100 100 100 100 100 100 100 100 100 100 100 100 100 100 100 100 100 100 100 100 100 99 33 5 5 5 5 5 3 3 0 0 5 4
84 55 93 69 98 100 96 100 93 100 100 91 100 100 100 100 100 100 100 100 100 100 100 100 100 100 100 100 100 100 33 5 5 5 5 4 4 5 4 3 4 4 0 4
100 100 100 100 100 100 100 100 100 100 97 100 100 84 100 100 100 100 100 100 99 100 100 100 100 100 100 94 40 5 5 5 5 5 5 5 5 4 5 5 0 0 0 0
94 100 100 100 100 100 100 100 100 100 100 100 100 100 100 100 100 100 100 100 100 98 74 38 8 5 5 3 5 5 10 27 5 5 5 7 22 9 5 2 0 5 0 0
100 100 100 100 100 100 100 100 100 100 100 100 100 100 100 100 100 100 100 40 8 5 3 5 5 5 10 35 76 76 49 30 28 63 63 6 5 4 0 0 0 0 0 1
100 100 100 100 100 100 100 100 100 100 100 100 100 100 100 100 100 100 20 5 5 5 5 5 15 24 98 84 79 79 54 58 51 8 5 5 0 0 0 0 0 3 5 5
100 100 100 100 100 100 100 100 100 100 100 99 99 100 100 55 46 22 5 6 21 96 70 51 100 100 75 76 84 82 43 5 5 5 5 0 0 0 0 2 5 5 5 11
100 100 100 99 100 100 100 100 100 100 99 81 96 68 44 62 28 48 8 5 38 11 54 94 81 76 96 88 62 6 5 5 5 1 0 0 4 1 5 5 9 67 5 5
99 98 100 100 100 100 100 100 100 96 99 97 100 87 76 70 69 80 77 40 43 52 85 98 91 99 97 42 5 7 5 5 2 4 0 4 5 5 5 14 74 20 20 35
100 100 100 100 100 100 100 100 100 100 100 100 100 100 100 100 100 100 99 87 100 70 97 98 82 87 38 5 17 5 5 4 5 3 5 5 5 5 5 46 57 30 72 77
100 100 100 100 100 100 100 100 100 100 100 100 100 100 100 100 100 100 89 96 83 82 99 94 78 52 13 5 5 5 5 4 4 4 5 5 5 33 71 58 73 98 100 100
100 100 100 100 100 100 100 100 100 100 100 100 100 100 100 100 100 99 74 80 100 73 66 82 38 5 5 5 5 5 5 2 5 5 5 7 65 89 98 97 100 100 100 98
100 100 100 100 100 100 100 100 100 100 100 100 96 97 100 100 100 100 100 94 72 59 56 20 20 5 5 5 5 4 4 5 5 5 6 61 87 95 100 100 100 100 97 100
100 100 100 100 100 100 100 100 100 100 100 100 100 100 99 100 94 100 88 84 73 64 27 6 20 7 5 5 5 5 3 5 5 5 12 62 51 75 99 99 99 100 100 88
100 100 100 100 100 100 100 100 100 100 89 92 96 100 100 85 94 100 100 85 75 58 52 16 5 5 5 5 5 5 5 5 7 35 5 54 85 93 81 82 90 100 99 93
100 100 100 98 100 100 100 100 100 96 84 87 100 99 92 78 78 96 100 100 97 54 17 5 5 5 4 3 5 5 5 5 6 33 50 74 78 62 64 63 68 81 94 100
100 100 100 99 97 95 100 100 100 100 100 96 99 79 96 84 100 100 89 49 59 23 14 5 5 5 5 5 5 5 5 8 28 61 56 24 36 54 57 57 63 90 100 100

GFSNGP_prec_cloud_036.txt.gz
Cloud_Cover
96 79 98 99 100 99 100 98 100 40 100 92 100 100 96 26 3 2 2 50 42 51 48 67 100 100 72 91 100 100 100 100 100 99 100 100 100 100 100 75 98 100 100 100
100 92 100 100 100 100 100 100 100 100 84 100 98 94 75 6 15 89 70 76 43 82 71 100 100 100 100 100 100 100 100 100 100 100 100 100 100 100 95 82 94 100 100 96
100 99 94 100 100 100 100 100 100 100 32 18 100 100 100 100 100 100 100 100 72 77 100 100 100 100 100 100 100 100 100 100 100 100 100 100 99 90 90 99 100 100 82 93
100 100 100 100 100 100 100 100 100 100 100 100 100 100 100 100 100 100 100 100 62 100 100 100 100 100 100 100 100 100 100 100 100 100 100 96 100 100 100 100 91 98 99 99
100 100 100 100 100 100 100 100 100 100 100 100 100 100 100 100 100 100 100 93 100 100 100 100 100 100 100 100 100 95 91 100 100 100 100 100 100 100 100 81 99 99 57 27
100 100 100 95 100 100 100 100 100 100 100 100 100 100 100 100 100 100 100 100 100 100 100 100 85 57 21 8 44 90 100 100 100 100 100 100 100 95 94 100 79 75 100 97
100 100 100 100 100 100 100 100 100 100 100 100 100 100 98 100 100 100 100 100 100 100 100 100 98 100 100 100 100 100 100 100 100 100 100 100 100 100 100 96 100 97 36 5
100 100 92 96 90 92 88 100 100 100 100 100 100 100 100 100 99 100 99 92 100 100 100 100 100 100 100 100 100 100 100 100 100 100 100 100 100 100 100 100 86 21 5 5
100 81 83 64 88 100 100 100 100 100 100 100 100 100 100 100 100 100 100 100 100 100 100 100 100 100 100 100 100 100 100 100 100 100 100 100 100 100 98 12 5 5 5 4
26 56 53 50 95 76 86 94 100 100 100 100 100 100 100 100 100 100 100 100 100 100 100 100 100 100 100 100 100 100 100 100 100 100 87 72 66 14 5 5 4 1 4 5
51 71 64 46 98 100 86 96 82 88 100 100 100 100 100 100 100 100 100 100 100 100 100 100 100 100 100 100 100 100 100 97 70 54 10 5 5 5 5 4 3 2 5 5
100 100 100 70 100 98 100 100 98 89 93 95 100 100 100 100 100 100 100 100 100 100 100 100 100 100 100 100 100 100 54 11 5 5 5 5 5 5 5 5 5 5 5 5
100 100 99 92 97 100 100 100 100 100 100 100 100 100 100 100 100 100 100 100 100 100 100 100 100 100 100 62 8 5 5 5 7 11 5 14 22 5 6 26 15 5 3 0
88 89 99 100 99 100 100 100 100 100 100 100 100 100 100 100 100 100 100 100 100 100 100 99 100 96 49 5 5 5 6 19 65 29 23 42 58 47 33 9 5 0 0 3
33 31 85 97 100 100 100 100 100 99 92 100 100 100 100 100 100 100 100 100 100 91 83 79 44 6 5 5 5 5 62 78 28 17 45 58 15 5 5 1 0 0 1 2
96 99 91 100 100 100 100 100 100 97 100 100 100 100 100 100 100 83 64 64 61 67 38 5 5 8 70 67 51 83 20 53 73 59 18 5 5 3 4 4 0 0 0 5
100 100 100 100 100 100 100 100 98 100 100 100 99 85 100 100 94 76 34 39 9 5 5 5 5 5 5 69 99 65 67 29 5 16 30 5 5 5 4 0 2 5 5 5
100 100 100 100 100 100 100 100 100 100 89 100 100 96 99 94 79 96 100 60 48 32 5 6 5 5 5 9 70 72 54 26 28 32 5 5 5 1 2 5 5 5 5 5
100 100 100 100 100 100 100 100 100 100 100 100 100 100 100 99 100 100 100 96 65 26 24 5 5 5 5 6 59 38 16 43 40 5 5 5 0 4 5 5 5 5 5 13
100 100 100 100 100 100 100 100 100 98 90 85 94 93 86 85 92 99 100 100 100 100 27 5 5 5 19 72 51 51 61 13 5 5 5 0 1 5 5 5 5 5 50 64
100 100 100 100 100 100 100 100 99 89 90 100 100 100 100 100 100 100 100 100 100 100 57 19 5 56 100 62 46 16 5 5 5 3 0 4 5 5 5 6 41 92 100 100
90 97 100 100 100 100 100 92 89 90 100 100 100 100 100 100 100 100 97 54 27 93 96 57 100 70 54 62 21 5 5 4 0 0 4 5 9 40 86 90 100 100 100 100
99 96 97 100 92 88 81 71 91 100 100 100 98 100 100 100 100 100 100 97 92 93 100 97 78 99 70 5 5 5 5 0 0 3 5 21 89 100 100 100 100 100 100 100
100 100 100 80 77 90 77 82 93 100 97 100 100 100 100 100 100 100 99 98 92 100 98 99 99 30 5 5 5 5 0 0 5 5 5 82 79 99 100 100 100 100 100 100
100 100 100 100 100 100 100 100 100 100 100 100 100 100 100 100 100 100 100 100 100 100 100 94 15 5 5 5 5 5 0 5 5 6 5 60 98 100 100 100 100 100 100 100
100 100 100 100 100 100 100 100 100 100 100 100 100 100 100 100 100 100 100 100 100 100 94 47 18 5 5 5 5 5 1 5 5 5 71 90 96 91 80 73 82 95 99 100
98 100 100 100 100 100 100 100 100 100 100 100 100 100 93 91 100 100 100 100 89 62 37 7 5 5 5 5 5 0 5 5 5 33 76 64 78 89 78 74 98 100 100 99

GFSNGP_prec_cloud_039.txt.gz
Cloud_Cover
71 24 40 97 99 100 100 100 100 100 100 100 100 100 100 69 100 92 37 5 12 100 100 92 100 100 100 100 84 29 54 86 100 100 100 100 100 69 70 66 96 100 100 99
98 40 94 99 100 100 100 100 100 100 100 100 100 100 100 100 100 100 65 16 72 100 100 100 100 100 100 96 38 78 100 96 90 100 100 100 84 99 100 89 100 100 100 100
96 99 80 89 100 100 100 100 100 100 91 100 100 100 100 100 100 100 55 45 100 100 100 100 100 100 100 98 91 100 100 100 100 100 100 88 81 100 100 100 100 100 100 100
100 94 95 100 100 100 100 100 100 100 100 100 100 100 100 100 100 95 99 100 100 100 100 100 100 100 100 100 100 100 100 100 100 100 100 100 100 100 100 100 100 100 100 100
100 100 44 93 99 55 66 100 100 100 100 100 100 100 100 100 100 100 100 100 100 100 100 100 100 100 100 100 100 100 100 100 100 100 100 100 100 100 100 100 100 100 100 100
99 100 78 67 48 36 46 100 100 100 100 100 100 100 100 100 100 100 100 100 100 100 100 100 100 100 100 100 100 100 100 100 95 88 100 94 88 100 100 100 100 100 100 100
100 98 100 100 100 98 100 100 100 100 100 100 98 100 100 100 100 100 100 100 100 100 100 100 100 100 100 100 100 98 93 76 66 83 98 100 100 100 100 100 100 100 100 100
100 100 87 90 99 49 77 99 100 100 100 100 100 100 100 98 100 100 100 100 100 100 100 100 97 99 88 75 64 70 88 100 100 100 100 100 100 100 100 100 100 100 100 83
100 100 93 98 97 97 59 41 100 100 100 100 100 100 100 100 100 100 100 100 100 100 100 100 100 100 100 100 100 100 100 100 100 100 100 100 100 100 100 100 100 100 52 6
64 98 81 52 91 93 95 66 69 26 100 100 100 100 100 100 100 100 100 100 100 100 100 100 100 100 100 100 100 100 100 100 100 100 100 100 100 100 100 95 51 45 7 5
26 100 62 26 63 73 72 100 82 88 74 100 100 100 100 100 100 100 100 100 100 100 100 100 100 100 100 100 100 100 100 100 100 100 100 100 100 91 67 52 34 5 7 5
33 96 89 100 96 91 88 100 100 89 98 100 100 100 100 100 100 100 100 100 100 100 100 100 100 100 100 100 100 100 100 100 100 100 92 87 80 49 45 42 95 50 51 34
50 41 100 100 76 100 100 100 100 100 85 100 99 100 100 100 100 100 100 100 100 100 100 100 100 100 100 100 100 100 100 88 86 68 61 57 64 64 44 82 23 50 6 5
79 60 100 100 52 97 100 100 100 100 100 100 100 100 100 100 100 100 100 100 100 100 100 100 100 100 100 97 89 60 43 40 17 59 64 82 64 68 66 56 8 5 5 7
88 100 68 36 81 100 100 100 100 99 100 100 100 100 100 100 100 100 100 100 100 100 100 99 89 76 31 31 23 5 46 57 63 44 94 100 99 65 14 5 5 5 5 4
69 23 71 100 100 100 100 100 100 100 100 100 100 100 100 100 100 100 100 100 100 100 64 54 57 25 29 9 5 5 5 5 20 99 100 100 40 5 6 14 6 5 1 0
5 32 100 100 100 100 100 100 100 100 100 100 100 100 100 100 100 100 100 81 68 71 48 13 5 5 5 5 5 5 5 5 19 100 75 25 54 38 7 5 3 0 1 1
56 92 100 100 100 100 100 100 100 100 100 96 77 91 100 100 100 100 100 87 56 54 49 30 17 15 9 16 9 5 5 18 84 55 37 19 11 5 3 0 5 5 4 5
100 100 100 100 100 100 100 100 100 98 100 100 100 100 99 87 81 100 92 90 98 72 66 92 100 100 44 6 5 5 57 54 29 13 5 5 5 0 1 5 5 5 5 5
100 100 100 100 100 100 100 100 100 100 100 100 100 98 99 100 100 100 100 100 80 100 65 7 5 7 5 12 51 46 22 6 5 5 5 4 0 4 5 5 5 5 5 51
100 100 100 100 100 100 100 100 100 100 100 100 100 100 100 100 100 100 99 100 97 100 99 61 57 37 33 25 7 5 5 5 5 4 0 0 0 5 5 5 32 79 100 100
100 100 100 100 100 100 100 94 96 78 79 75 76 99 99 95 98 100 100 98 96 100 45 41 56 57 28 5 13 34 5 5 4 2 0 1 5 5 59 72 85 95 100 100
100 98 90 78 74 84 85 92 88 82 97 100 99 92 98 100 94 89 95 99 100 61 29 26 13 5 10 45 27 5 5 4 0 1 5 5 22 64 73 72 85 98 100 100
100 97 97 99 100 77 85 86 84 88 87 95 100 98 90 86 90 66 72 94 81 68 52 60 36 15 34 17 6 5 5 0 5 5 5 5 6 67 60 55 73 80 75 74
100 93 32 9 9 26 70 93 97 92 100 100 100 100 100 98 93 68 89 98 73 47 53 33 5 6 10 5 5 4 0 2 5 5 5 5 13 46 47 65 62 66 93 89
64 55 46 40 44 91 100 99 100 100 100 100 100 100 100 100 100 95 76 68 70 88 81 48 10 52 11 5 5 5 0 5 3 5 5 5 5 9 66 65 7 21 59 75
24 46 70 64 100 84 100 100 100 100 100 100 100 100 100 100 100 100 94 87 86 72 53 64 64 54 5 5 5 5 1 5 5 5 5 5 5 44 74 57 61 76 83 78

GFSNGP_prec_cloud_045.txt.gz
Cloud_Cover
13 70 81 5 5 52 69 73 100 91 94 100 86 100 100 81 100 100 95 38 6 12 65 6 98 100 100 94 100 100 100 100 100 100 100 100 100 100 100 100 100 100 100 100
99 25 5 5 18 100 100 65 84 100 100 100 100 100 100 100 100 100 58 60 32 35 56 99 100 100 100 100 100 100 100 100 100 100 100 100 100 100 100 100 100 100 100 100
5 5 8 57 100 97 100 53 71 70 89 96 100 100 100 100 100 100 100 100 100 69 67 87 98 100 100 100 100 100 100 100 100 100 100 100 100 100 100 100 100 100 100 100
53 14 100 100 89 16 84 100 67 100 100 100 100 100 100 100 100 100 100 100 100 100 100 98 100 100 100 100 100 100 100 100 100 100 100 100 100 100 100 100 100 100 100 100
78 93 100 91 95 97 69 100 63 47 64 100 100 100 100 100 100 100 100 100 100 100 100 100 100 100 100 100 100 100 100 100 100 100 100 100 100 100 100 100 100 100 100 100
99 93 100 65 100 57 100 100 7 11 100 100 100 100 100 100 100 100 100 100 100 100 100 100 100 100 100 100 100 100 100 100 100 100 100 100 100 100 100 100 100 100 100 100
100 100 86 5 74 100 95 76 54 34 100 100 100 100 100 100 100 100 100 100 100 100 100 100 100 100 100 100 100 100 100 100 100 100 100 100 100 100 100 100 100 100 100 100
100 100 100 29 71 75 10 15 43 35 88 100 79 100 100 100 100 100 100 100 100 100 100 100 100 100 100 100 100 100 100 100 100 100 100 100 100 100 100 100 100 100 100 100
100 91 100 5 5 5 7 7 31 5 86 100 100 73 100 100 100 100 100 100 100 100 100 100 100 100 100 100 100 100 100 100 100 100 100 100 100 100 100 100 100 100 100 100
100 100 100 98 33 31 44 27 5 14 65 85 96 99 98 100 100 100 100 100 100 100 100 100 100 100 100 100 100 100 100 100 100 100 100 100 100 100 88 76 43 8 5 62
100 100 100 100 84 63 84 64 49 51 72 84 99 100 86 90 100 100 100 100 100 100 100 100 100 100 100 100 100 100 100 100 100 100 97 90 91 66 16 7 12 8 5 5
100 100 100 87 11 32 84 100 60 90 96 88 77 87 100 97 98 100 100 100 100 100 100 100 100 100 100 100 100 100 100 100 100 100 100 72 25 6 6 5 5 5 5 19
100 100 100 6 80 87 90 100 97 33 66 100 73 96 94 100 98 100 100 100 100 100 100 100 100 100 100 100 100 100 100 100 99 90 100 15 5 5 5 5 5 9 34 58
100 100 100 31 98 91 99 92 76 95 66 100 95 100 100 100 100 100 100 100 100 100 100 100 100 100 100 100 100 95 55 11 5 5 5 5 5 5 5 5 11 37 22 5
100 100 76 63 98 51 14 50 96 98 100 100 79 100 100 100 100 100 100 100 100 100 100 97 100 100 96 69 49 10 14 17 16 5 6 7 14 20 54 83 50 5 2 0
100 92 88 29 46 19 5 76 97 92 100 98 91 88 100 100 100 100 100 100 100 100 100 100 100 79 56 46 36 44 69 78 98 99 92 73 57 30 31 10 5 0 0 0
100 100 100 99 62 6 7 100 100 100 100 100 100 100 99 100 100 100 100 100 100 100 100 100 70 54 60 55 64 87 100 100 88 72 13 5 5 5 5 1 0 0 0 1
27 91 100 82 94 91 34 98 100 100 98 100 100 100 100 100 100 100 100 100 100 100 99 98 90 77 87 76 84 78 69 56 33 5 5 5 4 1 0 0 0 0 0 0
47 97 99 88 79 85 99 100 100 100 100 100 100 100 100 100 100 100 100 100 100 96 99 95 84 90 80 54 37 26 32 15 12 5 5 5 0 0 0 0 1 4 5 5
100 100 100 100 100 100 100 100 100 100 100 100 100 100 100 100 100 100 100 94 75 85 86 84 93 74 56 48 30 52 28 5 5 5 5 4 3 4 0 5 5 5 5 5
100 100 100 100 100 100 100 100 100 99 93 100 100 100 92 93 92 84 66 51 60 71 94 68 41 22 35 29 28 8 5 5 5 5 5 5 5 5 5 6 5 5 5 34
100 100 100 100 100 100 100 100 99 95 100 100 100 99 100 88 73 62 84 96 78 73 39 20 10 10 10 12 12 5 5 5 5 5 5 5 6 24 55 63 53 5 22 32
100 100 100 100 100 100 100 100 100 100 100 100 100 91 94 85 69 81 70 78 86 68 51 50 36 7 23 37 20 5 5 5 5 5 5 53 52 65 67 64 60 61 41 48
100 100 100 100 100 100 100 100 100 100 100 93 88 86 80 97 85 82 85 81 95 60 90 100 74 67 83 85 57 40 5 8 5 5 12 7 15 62 64 64 65 51 51 64
100 100 100 100 100 100 100 100 100 100 100 100 100 100 100 100 100 96 93 88 100 100 100 100 100 95 74 67 65 85 86 51 6 27 5 14 56 65 64 64 61 56 76 49
100 100 100 100 100 100 100 100 100 100 100 100 100 100 100 100 100 100 100 100 100 100 100 100 100 100 90 95 96 99 45 5 5 13 21 42 56 59 56 54 58 56 33 45
99 100 100 100 100 100 100 100 100 100 100 100 100 100 100 100 100 100 100 100 100 100 100 100 98 94 98 93 90 59 9 5 12 5 61 58 42 57 55 53 48 48 39 64

GFSNGP_prec_cloud_048.txt.gz
Cloud_Cover
100 53 6 14 17 6 17 30 74 5 96 88 89 100 100 100 100 100 100 100 11 5 5 55 84 75 31 17 5 73 75 90 34 84 64 94 100 100 100 100 100 100 100 100
46 42 7 5 34 14 5 63 79 92 37 100 100 100 100 100 100 100 100 100 30 6 5 19 77 86 100 58 73 95 100 100 100 100 100 100 100 100 100 100 100 100 100 100
18 46 75 65 24 29 73 83 100 81 92 90 89 100 100 100 100 100 100 100 99 100 60 43 65 19 40 100 100 100 100 100 100 100 100 100 100 100 100 100 100 100 100 100
99 84 59 23 66 31 65 98 20 83 99 100 100 100 100 100 100 100 100 100 67 49 32 29 81 98 100 100 100 100 100 100 100 100 100 100 100 100 100 100 100 100 100 100
66 89 11 87 94 78 8 45 34 24 86 100 100 100 100 100 100 100 100 100 100 100 100 100 100 100 100 100 100 100 100 100 100 100 100 100 100 100 100 100 100 100 100 100
100 93 99 100 91 5 5 56 23 8 73 100 100 100 100 100 100 100 100 100 100 100 100 100 100 100 100 100 100 100 100 100 100 100 100 100 100 100 100 100 100 100 100 99
99 78 85 78 58 7 90 94 9 5 28 100 100 100 100 100 100 100 98 100 100 100 100 100 100 100 100 100 100 100 100 100 100 100 100 100 100 100 100 100 100 100 100 100
100 100 100 72 40 65 100 48 38 25 7 100 71 97 100 100 100 99 98 100 100 100 100 100 100 100 100 100 100 100 100 100 100 100 100 100 100 100 100 100 100 100 100 100
98 100 56 62 90 33 13 5 54 82 19 83 94 100 100 100 100 100 100 100 100 100 100 100 100 100 100 100 100 100 100 100 100 97 95 66 90 99 99 71 100 97 100 95
100 94 97 99 100 77 81 61 44 99 70 36 43 100 100 100 100 100 100 100 100 95 97 100 100 100 100 100 100 100 100 100 100 100 100 100 100 100 100 100 98 59 86 67
100 98 100 70 49 62 36 74 74 100 97 80 99 93 100 100 100 100 91 100 100 89 100 100 100 96 81 100 100 98 100 100 100 100 100 100 100 100 88 99 50 10 5 5
65 100 97 46 63 36 73 9 6 68 64 95 92 94 99 100 100 100 100 100 100 100 100 100 100 98 88 97 100 100 100 100 100 100 100 97 58 34 52 62 66 69 76 49
99 100 100 100 77 14 34 6 46 41 100 50 100 72 85 100 100 100 100 100 100 100 100 100 100 100 100 100 100 100 100 100 82 61 86 90 99 100 99 78 90 98 55 5
84 100 100 100 100 6 5 5 16 55 100 83 77 92 87 100 100 100 100 100 100 100 100 100 100 100 75 96 92 54 20 42 79 94 98 100 100 100 100 100 93 36 5 5
56 91 100 100 96 16 10 19 10 5 18 62 58 69 98 100 100 100 100 100 100 100 100 100 99 32 92 21 46 10 32 71 73 56 37 82 97 78 60 18 5 5 0 0
98 100 100 100 100 76 5 73 44 15 18 64 78 42 80 78 99 100 100 100 100 100 100 100 93 89 40 20 5 23 51 26 6 22 36 15 6 5 5 5 5 5 2 0
100 97 100 100 100 79 100 96 32 61 100 83 94 78 80 61 63 100 100 100 100 100 100 98 70 64 55 26 7 5 5 5 6 18 5 5 5 5 5 5 5 5 4 1
100 98 100 100 100 100 100 100 100 100 100 100 100 100 100 90 97 100 100 100 98 72 79 80 71 68 11 5 12 15 25 42 26 24 5 5 5 5 5 5 5 2 1 1
100 100 100 100 100 96 100 100 100 100 100 100 100 96 99 100 94 98 100 79 71 53 40 35 30 38 49 58 66 11 27 61 49 11 5 5 5 5 5 5 5 5 5 5
100 100 100 100 97 100 100 100 100 100 99 100 100 99 96 97 95 100 95 75 92 52 52 47 74 71 70 28 5 5 40 7 5 5 5 5 5 5 5 5 5 5 5 5
100 100 100 100 100 100 100 100 100 100 100 100 79 96 100 100 100 86 98 100 89 55 80 87 81 70 5 5 9 55 5 5 5 5 5 5 5 5 5 6 5 5 5 5
100 100 100 100 100 100 100 100 100 100 100 100 100 100 100 100 100 100 100 71 82 80 75 81 79 30 25 56 53 63 47 8 5 5 5 7 9 27 42 65 59 11 26 42
100 100 100 100 100 100 100 100 100 100 100 100 100 100 100 100 100 97 99 100 90 86 76 65 60 49 59 85 68 23 55 16 5 5 15 59 61 66 70 68 69 66 63 47
100 100 100 100 100 100 100 100 100 100 100 100 100 100 100 100 89 90 98 99 86 72 37 52 71 60 68 82 97 76 24 5 23 67 86 91 48 60 68 68 68 54 37 71
100 100 100 100 100 100 100 100 100 100 100 100 100 100 100 100 100 100 100 100 100 79 81 77 51 56 79 100 100 63 47 22 53 73 93 45 48 71 65 63 60 55 74 61
100 100 100 100 100 100 100 100 100 100 100 100 100 100 100 100 100 100 100 100 100 100 100 100 53 100 78 88 94 82 34 70 82 86 89 60 66 65 59 52 56 34 19 35
96 70 75 78 94 100 100 100 100 100 100 100 100 100 100 100 100 100 100 100 100 100 100 100 99 100 98 100 100 100 81 49 68 65 63 67 61 60 54 44 38 42 32 53

GFSNGP_prec_cloud_051.txt.gz
Cloud_Cover
100 100 100 100 88 100 100 100 22 94 83 60 82 63 75 100 100 100 77 89 47 97 5 5 5 5 5 6 5 100 100 100 100 100 100 100 100 93 100 100 100 98 100 100
100 100 100 100 100 87 24 99 32 91 67 92 95 99 100 100 100 73 100 100 55 74 24 7 6 48 54 99 13 68 100 100 100 100 100 100 100 100 100 100 100 100 100 100
100 80 90 100 97 75 21 14 92 75 60 99 88 100 94 100 100 100 100 99 100 100 82 97 95 100 100 98 98 90 100 100 100 100 100 100 100 100 100 100 100 100 100 100
99 86 71 14 5 15 53 19 37 57 89 100 100 100 96 100 100 100 100 100 100 89 100 100 100 100 100 100 100 100 100 100 100 100 100 100 100 100 100 100 100 100 100 100
91 100 54 53 78 80 83 72 89 68 48 99 100 100 100 100 100 100 100 100 100 100 100 100 100 100 100 100 100 100 100 100 100 100 100 100 100 100 100 100 100 100 100 100
100 98 59 71 78 84 59 80 97 34 30 100 100 79 100 100 99 98 100 100 100 100 100 100 100 100 100 100 100 100 100 100 100 100 100 100 100 100 100 100 100 100 100 100
100 89 33 89 95 36 93 53 59 11 68 100 91 79 100 97 100 97 100 100 100 100 100 100 100 100 100 100 100 100 100 100 100 100 100 100 100 100 100 100 100 100 100 100
87 100 95 95 91 92 90 96 90 64 50 83 98 100 100 91 100 90 94 64 92 100 100 100 100 100 100 100 100 100 100 100 100 100 100 100 100 100 100 100 100 100 100 100
67 65 91 97 83 100 84 90 99 78 74 79 99 82 97 86 90 100 100 100 100 100 100 100 94 100 100 100 100 100 100 100 100 99 100 100 100 98 53 54 9 30 82 100
55 99 100 100 91 99 99 96 79 87 58 60 100 100 99 99 100 84 100 99 99 100 100 100 100 100 100 100 100 100 100 100 100 100 100 100 100 100 100 98 96 84 30 46
87 94 79 89 66 89 100 65 79 96 92 98 76 98 100 100 91 90 83 77 74 100 100 100 100 100 100 70 100 99 90 94 100 100 100 98 73 31 11 6 30 59 100 86
100 82 98 52 43 86 56 53 78 70 43 48 100 100 90 100 92 100 93 83 79 100 100 100 80 34 48 96 67 100 100 100 87 35 9 9 5 32 91 97 71 60 83 70
30 100 28 79 95 59 53 100 35 56 7 45 67 64 83 100 100 100 100 100 74 81 32 61 64 59 22 31 100 100 100 75 8 5 5 16 68 71 70 79 83 87 35 5
68 84 15 61 98 100 100 100 48 5 8 5 22 8 59 87 100 100 100 100 100 100 91 98 75 38 67 100 85 20 12 62 5 5 5 6 31 33 34 33 40 15 22 26
84 31 100 75 100 100 100 100 52 5 5 15 13 62 95 100 100 100 100 100 100 100 100 60 34 56 70 28 32 9 40 42 28 5 5 21 27 23 44 47 46 12 5 5
100 100 100 96 100 100 100 100 74 94 6 91 70 82 100 100 100 100 100 100 100 100 100 100 100 44 9 43 61 52 66 68 56 18 21 57 61 45 30 5 5 5 5 5
99 100 100 100 100 100 100 100 100 61 50 100 78 87 57 100 100 100 100 100 100 100 100 83 49 65 96 99 70 52 64 66 22 5 5 5 5 5 5 5 5 5 5 5
56 100 100 100 100 98 100 100 100 97 93 100 100 100 96 99 100 100 100 100 99 91 95 57 66 59 44 37 34 32 42 20 26 5 5 5 5 5 5 5 5 5 5 5
100 99 100 100 100 99 100 100 100 100 100 100 100 100 100 100 100 100 100 100 100 100 71 47 27 54 52 21 46 6 5 5 5 5 5 5 5 5 5 5 5 5 5 5
100 97 100 100 100 100 100 100 98 100 100 100 99 95 100 100 100 99 100 100 100 100 100 99 66 57 68 58 26 21 5 5 5 5 5 5 5 5 5 5 5 5 5 5
100 100 100 100 100 100 100 100 100 100 100 97 100 100 100 100 100 100 100 100 100 100 100 54 61 95 84 66 25 26 17 5 5 5 5 10 42 5 5 6 6 5 5 5
100 100 100 100 100 100 100 100 100 100 100 100 100 100 100 100 100 100 100 100 100 100 84 64 79 99 83 80 65 75 81 25 5 11 53 41 6 23 54 66 57 5 25 59
100 100 100 100 100 100 100 100 100 100 100 100 100 100 100 100 100 100 100 100 100 96 88 96 98 86 61 56 68 99 100 28 59 47 46 54 58 68 64 62 59 62 65 54
100 100 100 100 100 100 100 100 100 100 100 100 100 100 100 100 92 94 100 96 100 84 95 100 100 100 100 54 83 78 82 60 49 61 76 83 64 55 64 62 61 52 57 46
100 100 100 100 99 100 100 100 100 100 100 100 100 100 100 100 100 88 72 98 100 100 100 100 100 100 100 92 100 100 76 94 73 73 82 78 75 84 59 60 54 31 54 62
100 100 100 100 100 100 100 100 100 100 100 100 100 100 100 100 100 100 100 100 100 100 100 100 100 100 100 100 100 100 100 100 100 100 98 100 93 77 77 98 55 44 6 26
100 100 100 100 100 100 100 100 100 100 100 100 100 100 100 100 100 100 100 100 100 100 100 100 100 100 100 100 100 100 100 100 100 100 100 100 100 98 92 100 98 12 13 28

GFSNGP_prec_cloud_054.txt.gz
Cloud_Cover
100 100 100 100 100 100 100 100 100 100 100 100 91 53 9 68 78 58 5 6 43 58 19 5 5 5 5 5 5 5 16 84 100 100 100 100 100 100 100 100 100 100 100 100
100 100 100 100 100 64 39 59 5 20 14 98 84 98 100 75 24 31 19 100 50 97 39 78 5 29 92 100 91 85 100 100 100 100 100 100 100 100 100 100 100 100 100 100
100 100 100 99 100 76 7 21 60 99 100 100 100 100 100 100 100 73 99 100 50 5 7 43 100 100 100 100 100 100 100 100 100 100 100 100 100 100 100 100 100 100 100 100
100 100 100 100 100 88 82 92 100 100 100 100 48 100 94 100 100 100 100 98 64 52 74 100 100 100 100 100 100 100 100 100 100 100 100 100 100 100 100 100 100 100 100 100
100 88 90 100 75 69 92 94 84 98 76 89 100 82 98 100 100 100 98 33 100 100 100 100 100 100 100 100 100 100 100 100 100 100 100 100 100 100 100 100 100 100 100 100
99 90 80 24 26 92 82 84 71 50 84 100 93 8 50 99 94 79 99 100 100 100 100 100 100 100 100 100 100 100 100 100 100 100 100 100 100 100 100 100 100 100 100 100
91 98 7 26 90 78 77 28 67 100 73 100 100 88 93 18 73 48 70 32 98 100 100 94 100 100 100 100 100 100 100 100 100 100 100 100 100 100 100 100 100 100 100 100
94 94 54 44 79 97 76 78 95 77 54 100 89 95 100 30 5 17 70 56 96 99 100 100 100 100 100 100 100 100 100 100 100 100 100 100 100 100 100 100 100 100 100 100
25 37 83 94 98 99 88 100 42 51 63 90 100 100 100 95 9 98 100 100 100 100 100 100 100 100 100 100 100 100 100 100 97 72 61 97 98 100 99 100 100 100 100 100
75 98 83 100 96 94 97 88 85 70 36 72 91 100 100 100 85 92 100 100 97 100 100 100 100 100 100 100 100 97 84 36 26 81 100 77 39 67 76 98 98 100 100 100
100 100 92 100 98 98 100 100 76 77 47 69 80 98 100 100 61 48 39 55 100 100 100 100 100 100 100 100 27 63 71 12 8 5 5 30 93 93 98 100 100 100 92 63
100 60 96 98 81 88 60 82 88 68 22 65 69 80 93 100 100 32 25 52 99 100 100 100 100 59 24 40 58 44 59 79 17 5 22 7 13 21 23 60 50 30 36 8
14 64 84 93 65 51 87 100 95 93 43 83 20 92 100 100 100 100 91 80 80 100 100 100 100 100 44 38 63 54 5 5 5 5 5 5 5 5 5 5 5 6 14 43
98 74 99 89 38 84 33 16 39 94 100 84 27 14 90 80 100 100 98 100 89 100 100 100 100 100 100 88 59 8 18 5 5 5 5 5 5 5 12 29 10 5 5 5
89 100 100 84 99 63 64 65 78 70 100 100 13 47 72 100 100 100 100 100 100 100 100 100 100 100 100 65 59 58 5 5 5 5 5 5 6 5 6 5 5 5 5 16
90 86 84 100 96 49 26 83 94 89 100 100 10 21 78 100 100 100 100 100 100 100 100 100 100 100 100 100 67 10 5 5 5 5 5 5 5 5 5 5 5 8 21 41
100 90 96 100 80 100 78 34 36 100 100 100 97 54 65 100 100 100 100 100 100 100 100 100 100 100 100 100 63 5 22 5 5 5 6 30 47 53 40 5 7 31 5 12
77 91 89 76 99 94 100 100 95 95 100 100 100 68 84 100 100 100 100 100 100 100 100 100 100 100 100 94 59 41 7 12 34 9 6 22 30 31 36 52 55 19 5 5
100 100 100 99 100 100 100 100 100 100 100 100 100 100 100 100 100 100 100 100 100 100 100 100 100 100 99 81 62 54 45 45 15 14 22 43 61 63 73 51 21 5 5 5
100 100 100 100 100 100 100 100 100 100 100 100 100 100 100 100 100 100 100 100 100 100 100 100 100 100 92 97 90 68 63 56 57 6 8 52 69 71 33 5 5 5 5 5
100 100 100 100 100 100 100 100 100 100 100 100 100 100 100 100 100 100 100 100 100 100 100 100 100 100 100 90 64 58 97 99 46 5 5 8 38 12 5 6 5 5 5 5
100 100 100 100 100 100 100 100 100 100 100 100 100 100 100 89 100 100 100 100 100 100 100 100 100 100 99 74 67 89 100 99 28 13 5 6 5 20 35 55 48 5 26 57
100 100 100 100 100 100 100 100 100 100 100 100 100 99 99 100 100 100 100 100 100 100 100 100 100 100 100 100 89 100 100 61 53 46 27 5 5 62 60 6 33 55 63 29
100 100 100 100 100 100 100 100 100 100 100 100 100 100 100 100 100 100 95 100 100 100 100 100 100 100 100 100 100 100 92 82 66 32 15 54 48 65 56 21 57 36 41 52
100 100 100 100 100 100 100 100 100 100 100 100 100 100 100 100 100 100 100 100 100 100 100 100 100 100 100 100 100 94 97 64 77 100 100 61 52 18 23 58 73 44 25 54
66 71 81 98 100 100 100 100 100 100 100 100 100 100 100 100 100 100 100 100 100 100 100 100 100 100 100 100 100 100 100 100 100 100 94 64 78 40 72 95 100 35 65 91
88 95 100 100 100 100 100 100 100 100 100 100 100 100 100 100 100 100 100 100 100 100 100 99 100 100 100 100 100 100 100 100 100 100 99 100 92 99 80 91 76 73 99 19

GFSNGP_prec_cloud_060.txt.gz
Cloud_Cover
100 100 78 100 100 100 100 100 100 100 68 92 96 96 100 98 90 100 99 49 49 38 29 5 5 4 1 2 2 5 4 0 2 29 85 100 100 100 100 100 100 100 100 100
100 100 100 100 100 100 100 100 100 97 79 100 100 100 100 99 100 100 100 100 100 92 5 5 8 12 5 27 8 5 5 65 74 58 98 94 100 100 97 89 100 100 100 100
100 100 100 100 100 100 100 100 100 71 88 93 69 8 79 97 79 100 100 100 10 5 5 5 8 31 57 60 58 57 97 74 19 82 100 100 100 100 100 100 100 100 100 100
100 100 100 100 100 100 100 100 80 37 77 53 74 100 100 100 94 46 5 33 100 25 7 5 5 5 28 61 76 100 100 100 100 100 100 100 98 100 100 100 100 100 100 100
100 65 100 100 100 100 100 100 88 94 100 100 100 92 71 18 64 41 5 5 7 73 88 78 5 14 20 72 77 100 100 100 100 100 100 100 100 100 100 100 100 100 100 100
99 100 100 97 100 100 99 99 100 100 91 5 77 96 100 100 69 5 5 5 5 26 99 69 100 67 22 81 100 100 100 100 100 100 100 100 100 100 100 100 100 100 100 100
100 80 59 46 69 88 99 79 59 62 71 100 100 100 94 44 7 5 5 5 69 30 98 76 96 91 100 100 100 100 100 100 100 100 100 100 99 91 67 100 100 100 100 100
100 98 79 85 85 76 86 73 100 100 100 100 100 100 100 100 46 5 5 6 6 19 100 100 99 100 100 100 100 100 100 100 100 88 51 32 5 5 5 5 8 24 66 91
94 99 100 100 100 100 100 100 100 100 100 100 100 100 93 97 100 88 54 90 96 87 100 100 100 100 100 100 100 100 56 26 8 5 6 5 5 5 5 5 5 5 5 5
91 96 57 88 100 86 99 100 100 99 100 100 100 100 100 100 100 100 68 71 22 85 100 100 100 100 100 97 100 94 6 5 5 5 5 5 5 5 5 5 5 5 5 5
52 28 57 71 56 97 100 97 100 100 100 100 99 76 87 99 99 96 100 66 62 100 100 100 100 100 88 85 20 5 7 55 29 5 5 5 5 5 5 5 5 5 5 5
5 5 5 22 73 100 100 98 99 100 100 94 64 84 62 28 85 94 100 100 99 100 100 100 100 100 100 96 43 68 95 44 75 92 20 5 5 5 5 5 5 5 8 5
47 16 13 67 100 76 61 100 100 78 59 70 67 75 54 74 68 100 100 100 100 64 77 92 100 99 100 100 100 100 90 99 100 94 12 11 5 6 5 8 17 9 5 5
63 57 52 39 61 5 46 73 98 84 25 39 77 65 98 100 88 91 85 100 100 89 100 63 91 84 100 100 100 100 97 100 100 62 7 19 56 35 43 24 30 6 5 5
93 82 82 71 97 92 32 52 89 97 79 99 69 96 100 95 99 100 100 100 100 100 65 97 100 100 100 100 97 100 100 100 64 55 49 31 7 44 51 6 5 5 5 5
100 100 99 100 97 57 39 100 91 68 74 65 93 99 89 100 99 96 100 100 100 100 96 100 98 98 100 96 91 76 67 60 54 89 78 49 5 8 5 5 5 10 27 36
100 100 100 100 100 100 68 67 99 100 100 100 99 97 100 99 95 100 100 99 100 100 84 71 100 100 98 100 100 100 83 73 19 38 33 48 47 12 5 5 5 6 28 13
92 100 100 100 100 100 100 97 80 84 100 100 100 100 100 100 100 100 100 100 100 100 100 75 99 100 100 97 95 100 91 84 85 68 50 56 45 7 25 27 20 22 5 8
100 100 100 100 100 100 100 100 100 100 100 100 100 100 100 100 95 99 100 100 100 100 100 100 96 100 100 99 100 100 100 100 97 100 98 62 61 59 60 73 43 7 6 5
100 100 100 100 100 100 100 100 100 100 100 100 100 100 100 100 100 100 100 100 100 100 100 100 100 95 92 100 100 100 100 100 95 89 62 62 65 65 65 57 55 66 57 70
100 100 100 100 100 100 100 100 100 100 100 100 100 100 100 100 100 100 100 100 100 100 100 100 100 100 100 100 100 100 100 99 98 89 87 95 74 100 51 70 62 72 56 14
100 100 100 100 100 100 100 100 100 100 100 100 100 100 100 100 100 100 100 100 100 100 100 100 100 100 100 100 100 100 100 94 100 100 100 100 100 100 98 62 69 44 75 63
95 100 100 100 100 100 100 100 100 100 100 100 100 100 100 100 100 100 100 100 100 100 100 100 100 100 100 100 100 100 100 100 100 100 100 100 75 58 74 78 52 68 100 100
64 79 82 86 100 100 100 100 100 100 100 100 100 100 100 100 100 100 100 100 100 100 100 100 100 100 100 100 100 100 100 100 100 100 100 100 99 93 83 81 47 100 100 100
95 69 42 27 60 91 98 100 99 100 100 100 100 100 100 100 100 100 100 100 100 100 100 100 100 100 100 100 100 100 100 100 100 100 100 100 100 100 88 97 100 100 100 100
68 65 66 66 65 75 78 74 62 99 99 99 100 100 100 100 100 100 100 100 100 100 100 100 100 100 100 100 100 100 100 100 100 100 100 100 100 94 98 100 100 100 100 100
22 21 26 36 41 53 48 46 80 92 100 100 100 100 100 100 100 100 100 100 100 100 100 100 100 100 100 100 100 100 100 100 100 100 100 100 100 100 100 100 100 100 100 100

GFSNGP_prec_cloud_066.txt.gz
Cloud_Cover
77 100 100 90 100 100 100 100 99 96 100 100 100 100 100 100 86 100 100 100 100 88 100 100 56 11 7 9 12 24 5 4 4 2 100 100 100 92 100 100 94 40 41 50
5 17 100 100 100 100 100 100 100 99 42 100 100 100 100 100 100 100 100 100 100 100 98 89 78 99 100 15 6 7 17 3 2 71 100 100 100 100 100 100 100 100 100 100
18 5 5 76 99 100 100 97 82 16 35 100 98 98 100 97 73 96 100 100 100 98 77 95 100 99 30 5 6 44 52 28 59 100 100 100 100 100 100 100 100 100 100 100
7 11 82 92 46 62 12 5 49 21 100 100 95 100 100 100 100 100 100 100 100 100 100 100 63 17 8 7 100 100 100 100 100 100 100 100 100 100 100 100 100 100 100 98
30 44 92 46 97 89 75 42 65 73 100 100 100 100 100 100 100 100 100 87 99 100 80 5 62 73 5 86 100 100 100 100 100 100 100 100 100 100 100 100 100 100 97 12
100 95 46 100 100 100 99 99 100 100 100 100 100 100 100 100 100 100 100 100 100 93 69 20 95 5 26 100 100 100 100 100 100 96 100 100 100 100 100 91 55 36 90 5
99 100 100 99 100 90 99 100 100 100 100 100 100 100 100 100 70 88 100 69 6 9 5 12 15 54 97 100 100 100 100 100 100 98 100 94 75 26 4 0 0 0 2 2
68 100 99 100 100 100 100 100 100 100 100 100 100 100 100 100 100 100 34 65 29 5 46 95 100 100 100 100 100 100 100 93 59 20 6 4 5 3 0 0 0 0 0 0
8 34 97 99 100 100 100 100 100 100 100 100 100 99 100 100 100 100 97 52 54 78 84 100 100 100 100 100 100 100 100 100 10 5 5 5 5 5 5 14 5 5 3 2
55 68 20 65 78 90 95 100 99 89 80 100 100 100 99 100 98 100 98 100 96 75 100 100 100 100 100 100 56 52 100 100 98 37 20 5 26 9 14 60 10 5 5 5
19 100 54 11 10 13 10 17 15 79 92 95 94 90 100 100 100 100 100 100 82 59 99 100 100 100 100 74 5 55 100 100 100 98 67 20 26 43 76 100 62 13 5 5
5 97 93 100 87 27 23 34 58 34 62 92 100 87 100 100 100 100 98 95 65 13 96 100 100 100 81 9 5 5 91 100 100 94 85 87 75 97 100 100 98 40 47 5
5 99 41 100 78 93 59 23 99 82 83 82 80 70 98 100 100 98 63 94 100 96 67 100 100 100 29 5 5 5 13 93 98 100 100 100 96 69 100 100 98 52 9 27
5 30 39 99 100 66 79 58 48 58 36 93 82 93 100 100 100 100 96 94 98 100 36 100 100 100 11 5 5 5 43 6 37 56 69 74 91 82 61 82 68 61 50 11
3 8 73 96 100 100 52 77 99 62 56 49 98 93 100 100 100 100 100 75 98 100 100 100 100 98 35 5 6 5 5 5 5 5 5 5 5 5 23 71 98 95 83 56
5 5 19 100 100 100 100 48 37 35 39 98 45 63 77 100 100 100 100 100 92 100 100 100 100 99 94 93 49 17 5 5 5 5 23 52 51 70 74 62 54 65 100 100
5 5 5 80 100 100 100 83 36 5 53 61 12 22 96 100 100 100 98 44 84 100 100 100 100 100 83 91 64 77 36 62 71 67 52 61 71 79 86 63 23 81 99 100
81 95 100 95 100 100 100 100 100 100 58 34 13 11 5 64 100 100 99 94 100 100 100 100 100 100 100 95 92 100 100 100 100 93 76 94 100 98 100 75 63 50 86 86
100 100 100 98 100 100 100 100 100 100 100 94 30 16 5 15 100 100 80 99 99 100 100 100 100 100 100 100 100 100 100 100 100 97 96 100 100 82 79 67 88 91 95 35
100 100 100 100 100 100 100 100 100 100 100 67 50 44 21 59 72 86 99 100 98 100 100 100 100 100 100 100 100 100 100 100 100 89 96 97 96 74 70 71 84 89 53 86
100 100 100 100 100 100 100 100 100 100 100 94 76 89 100 100 100 100 100 100 100 100 100 100 100 100 100 100 100 100 100 100 100 100 94 99 97 100 100 100 100 67 74 90
100 100 100 100 100 100 100 100 100 100 100 100 100 100 100 100 100 100 100 100 100 100 100 100 100 100 100 100 100 100 100 100 100 97 87 78 94 100 100 100 100 100 100 96
100 100 100 100 93 95 100 100 100 100 100 100 100 95 100 100 100 100 100 100 100 100 100 100 100 100 100 100 100 100 100 100 100 100 100 100 100 100 100 100 100 100 100 100
100 100 100 100 98 78 67 72 85 100 100 100 100 99 100 100 100 100 100 100 100 100 100 100 100 100 100 100 100 100 100 100 100 100 100 100 100 100 100 100 100 82 81 95
59 49 9 5 5 5 24 42 55 61 62 72 79 83 95 100 100 100 100 100 100 100 100 100 100 100 100 100 100 100 100 100 100 100 100 100 100 100 100 100 74 81 88 90
29 36 39 72 54 43 32 24 9 6 5 5 5 5 42 54 74 41 54 52 82 82 86 98 100 100 100 100 100 100 100 100 100 100 100 100 100 100 99 97 94 96 77 45
5 5 5 5 5 5 5 5 13 10 5 6 25 27 38 54 56 63 78 94 98 95 91 98 100 100 100 100 100 100 100 100 100 100 100 100 100 100 100 100 100 100 86 58

GFSNGP_prec_cloud_069.txt.gz
Cloud_Cover
99 48 98 50 76 82 100 100 100 100 100 100 99 99 100 100 100 100 100 100 100 100 100 100 100 100 100 100 100 78 100 97 72 76 100 100 100 100 100 90 100 96 100 98
71 100 100 100 43 100 100 88 100 100 100 100 100 100 100 100 28 66 100 100 100 100 100 100 100 100 100 100 100 99 76 5 4 100 100 100 100 100 100 100 100 100 100 100
32 28 34 46 73 97 10 29 87 71 100 100 100 100 100 100 100 100 100 99 100 100 100 100 100 100 100 100 100 79 38 17 100 100 100 100 100 100 100 100 100 100 100 100
38 46 44 16 5 70 100 52 5 86 100 100 100 100 100 100 89 94 100 100 100 100 98 100 100 58 63 72 100 100 100 100 100 100 100 100 100 100 100 100 100 97 87 68
5 9 13 44 47 64 55 79 93 6 87 100 90 97 85 18 52 100 100 100 100 100 100 97 100 100 100 95 100 100 100 100 100 100 100 100 100 100 100 100 100 8 20 2
79 5 7 100 36 97 70 85 86 100 100 100 66 100 100 100 100 100 100 100 100 100 100 100 100 100 100 87 100 100 100 100 100 100 100 100 100 100 84 58 98 100 30 6
82 88 72 70 15 33 100 100 100 100 100 100 100 100 100 100 100 100 100 100 100 100 92 98 68 51 23 51 100 100 100 100 95 100 100 100 98 25 44 4 5 4 2 3
99 100 96 66 41 100 98 77 59 100 100 100 100 100 100 100 100 100 99 75 31 84 26 78 57 20 78 100 100 100 100 100 99 83 54 64 87 66 11 8 42 5 4 5
87 77 89 100 81 99 100 94 100 100 100 100 100 100 100 100 100 100 100 95 70 14 10 34 28 92 100 100 100 100 100 57 95 100 100 100 100 55 35 5 16 5 29 63
51 100 10 55 100 90 100 100 100 100 100 100 100 100 100 100 100 100 100 100 100 100 100 78 100 100 100 100 100 94 75 10 91 100 100 100 100 100 10 5 5 5 11 87
94 100 100 100 100 52 35 91 98 100 100 100 100 98 100 100 100 100 100 100 81 44 61 99 100 100 100 99 92 14 5 4 5 84 100 100 100 54 11 65 62 10 15 90
100 79 98 100 95 37 11 6 70 62 75 94 76 80 78 99 99 86 88 60 70 94 100 100 100 100 100 97 13 5 0 5 15 83 98 54 62 37 61 65 85 34 59 100
88 52 67 82 100 100 98 16 13 18 5 7 19 29 82 78 48 57 97 100 100 100 100 71 100 100 100 49 5 5 5 5 13 81 95 73 81 78 37 23 37 26 18 63
29 5 5 42 46 100 100 100 99 51 48 41 36 78 83 94 90 84 98 100 100 99 98 69 100 100 74 6 7 5 5 5 5 7 5 7 8 5 5 5 5 13 60 37
9 4 5 2 9 70 100 100 78 50 45 23 15 70 70 88 99 95 100 100 100 100 96 93 95 83 95 88 97 57 8 34 5 5 41 6 5 30 24 58 73 66 68 52
98 100 77 5 5 5 76 100 94 51 5 5 32 24 22 21 98 100 99 100 100 100 100 100 100 97 100 98 100 100 99 93 49 57 78 43 72 90 73 81 80 80 77 90
100 100 44 5 5 5 6 93 91 14 12 5 5 6 10 6 54 100 88 100 100 100 63 81 100 100 100 100 100 100 86 89 70 65 96 100 95 70 92 85 88 80 100 100
100 100 100 92 100 86 40 52 82 68 50 26 6 27 14 5 5 61 70 100 100 98 97 96 86 100 100 100 100 100 100 100 100 100 100 100 100 89 79 87 95 81 96 99
90 100 99 100 100 100 88 90 100 100 100 100 98 30 35 44 41 57 37 98 100 90 72 96 100 100 100 100 100 100 100 100 100 100 100 100 100 99 92 100 94 100 100 100
100 100 100 100 100 100 100 100 100 100 100 100 100 99 94 66 96 38 77 83 83 97 99 80 100 100 100 100 100 100 100 100 100 100 100 100 100 100 100 100 100 100 100 100
100 100 100 100 100 100 100 100 100 100 100 100 100 100 100 100 100 100 100 87 78 100 100 100 100 100 100 100 100 100 100 100 100 100 100 100 100 100 100 100 100 100 100 97
100 100 100 100 100 100 100 100 100 100 100 100 100 100 100 100 100 100 98 96 100 100 100 100 100 100 100 100 100 100 100 100 100 100 100 100 100 100 100 100 100 100 98 94
100 100 100 100 100 100 100 100 100 100 100 100 100 100 100 100 100 100 100 100 100 100 100 100 100 100 100 100 100 100 100 100 100 100 100 100 100 100 100 100 100 100 100 100
100 100 100 100 100 100 100 100 100 100 100 100 100 100 100 100 100 100 100 100 100 100 100 100 100 100 100 100 100 100 100 100 100 100 100 100 100 100 100 100 100 100 100 100
100 100 100 100 100 100 95 85 88 80 89 100 100 100 99 99 99 99 100 100 100 100 100 100 100 100 100 100 100 100 100 100 100 100 100 100 100 100 100 100 100 100 98 96
77 78 64 78 92 98 84 23 24 32 28 53 38 37 41 53 74 83 80 45 63 86 94 98 100 100 100 100 100 100 100 100 100 100 100 100 100 100 100 100 100 94 100 100
5 5 5 5 6 17 8 5 5 8 5 5 5 5 5 7 10 9 14 20 25 29 38 45 59 100 100 100 100 100 100 100 100 100 100 100 97 99 100 99 100 100 98 100

GFSNGP_prec_cloud_072.txt.gz
Cloud_Cover
71 53 100 60 75 100 100 100 94 100 100 100 100 100 100 100 100 100 100 100 100 100 100 100 100 100 98 99 98 85 70 74 92 100 100 100 100 100 100 100 100 100 100 71
100 54 49 94 70 100 64 99 100 100 100 100 100 100 100 100 100 100 100 100 100 100 100 100 100 100 100 100 100 100 100 100 100 100 100 100 100 100 100 100 100 100 100 100
73 14 12 25 8 51 71 27 100 75 100 100 100 95 100 100 100 100 100 100 100 100 100 100 100 100 100 100 100 100 100 100 100 100 100 100 100 100 100 100 100 100 100 100
62 8 56 87 100 100 100 100 69 100 100 100 100 100 100 100 97 98 100 100 100 100 100 100 100 100 100 100 100 100 100 100 100 100 100 100 100 100 100 100 100 97 72 16
5 23 31 6 5 6 61 16 11 92 100 100 100 100 100 100 100 100 100 100 100 100 100 95 100 100 100 100 100 100 100 100 100 100 100 100 100 100 100 62 5 32 9 2
92 27 14 6 34 6 5 7 5 5 5 80 86 100 100 100 100 100 86 83 90 87 92 74 49 78 100 97 100 100 100 100 100 100 100 100 100 100 100 100 14 13 5 5
96 98 11 6 10 6 38 86 5 5 33 47 32 85 100 100 87 100 97 95 100 77 75 100 100 100 100 100 100 100 100 100 100 100 100 100 100 60 39 24 43 5 20 59
100 100 89 95 100 99 44 23 31 46 6 5 5 74 100 100 100 99 98 100 100 100 100 100 100 100 100 100 100 100 100 100 92 96 100 100 27 5 5 5 46 94 59 19
100 100 100 100 100 100 100 100 100 100 100 100 100 100 100 100 100 100 100 100 100 100 100 100 100 100 87 96 95 100 100 100 100 100 27 16 56 81 100 100 100 100 93 60
59 100 100 84 100 100 100 100 100 100 100 100 100 100 100 100 100 100 100 100 100 100 100 100 84 54 47 100 100 100 100 94 38 16 5 11 82 100 100 100 100 100 53 23
14 99 100 100 33 44 100 100 100 100 100 100 100 100 100 100 100 100 100 100 98 99 98 86 84 72 100 100 100 100 100 44 7 4 5 62 100 97 100 100 94 31 39 5
34 91 99 100 87 66 70 100 96 100 100 100 100 100 100 100 100 100 95 99 82 85 86 95 99 92 100 100 100 94 49 50 5 0 4 5 8 47 65 61 54 41 32 57
100 100 100 100 99 100 83 92 73 100 100 90 94 100 100 100 100 79 82 81 90 84 100 68 58 77 100 100 99 84 33 5 5 5 5 5 5 5 9 66 73 59 33 10
100 100 100 94 47 94 99 100 100 100 95 55 63 56 81 95 76 83 95 75 82 100 100 97 82 94 100 100 88 38 34 7 5 7 7 9 5 5 8 17 25 35 13 5
100 100 100 100 93 16 5 42 91 82 100 95 17 14 31 78 100 96 78 98 98 100 100 92 99 100 100 99 93 89 85 88 55 87 99 80 52 6 11 27 53 46 48 45
97 90 100 91 59 77 62 26 6 68 11 40 75 54 36 10 78 79 96 100 100 100 100 100 100 100 94 73 89 100 100 100 99 90 99 99 86 68 64 66 41 40 50 18
76 86 100 100 70 98 96 5 5 5 26 5 17 27 70 61 46 72 98 95 84 99 100 100 100 100 100 100 91 100 100 100 100 100 100 100 100 100 100 100 100 100 83 54
100 100 100 100 100 100 90 59 26 8 21 13 5 5 5 20 7 8 32 69 100 100 100 100 100 100 100 100 100 100 100 100 100 100 100 100 100 100 100 100 100 98 74 74
100 100 100 100 100 100 100 100 100 72 99 100 100 100 87 60 80 55 40 77 89 100 100 100 100 100 100 100 100 100 100 100 100 100 100 100 100 100 100 100 82 91 97 80
100 100 100 100 100 97 100 100 100 100 100 100 100 100 96 51 93 56 63 75 66 93 100 100 100 100 100 100 100 100 100 100 100 100 100 100 100 100 100 100 100 99 100 100
100 100 100 100 100 100 100 100 100 100 100 100 99 100 100 100 100 94 85 92 95 100 100 100 100 100 100 100 100 100 100 100 100 100 100 100 100 100 100 100 100 100 100 100
100 100 100 100 100 100 100 100 100 100 100 100 100 100 100 100 100 100 100 100 100 100 100 98 100 100 100 100 100 100 100 100 100 100 100 100 100 100 100 100 100 100 100 100
100 100 100 100 100 100 100 100 100 100 100 100 100 100 100 100 100 100 100 100 100 100 100 100 100 100 100 100 100 100 100 100 100 100 100 100 100 100 100 100 100 100 100 100
100 100 100 100 100 100 100 100 100 100 100 100 100 100 100 100 100 100 100 100 100 100 100 100 100 100 100 100 100 100 100 100 100 100 100 100 100 100 100 100 100 100 100 100
100 100 100 100 100 100 100 100 100 100 100 100 100 100 100 100 100 100 100 100 100 96 94 98 99 100 100 100 100 100 100 100 100 100 100 100 100 100 100 100 100 100 100 100
97 100 100 100 100 100 100 100 100 100 100 100 93 70 61 83 87 85 87 83 99 98 92 90 87 93 84 75 100 100 100 100 100 100 100 100 100 100 100 100 100 100 100 100
45 37 21 28 30 34 41 56 72 54 33 18 35 9 28 43 37 41 56 55 26 18 21 5 5 5 5 10 15 16 60 77 82 74 100 75 81 100 98 99 100 97 98 100

GFSNGP_prec_cloud_075.txt.gz
Cloud_Cover
81 89 60 100 100 82 100 100 90 100 85 100 100 100 100 100 100 94 100 100 100 100 100 100 100 100 100 100 100 100 100 100 100 100 100 100 100 100 100 100 100 100 100 100
100 57 5 13 72 68 100 100 100 100 100 100 100 100 100 100 100 100 100 100 100 100 100 100 100 100 100 100 100 100 100 100 100 100 100 100 100 100 100 100 100 100 100 100
24 68 100 62 58 69 100 86 100 100 100 100 100 100 100 99 100 100 100 100 100 100 100 100 100 100 100 100 100 100 100 100 100 100 100 100 100 100 100 100 100 100 100 100
81 6 76 100 99 28 87 46 71 100 100 100 100 100 100 98 100 100 100 100 100 100 100 100 100 100 100 100 100 100 100 100 100 100 100 100 100 100 100 100 100 100 100 100
79 74 3 10 46 5 27 99 18 52 100 76 100 100 74 100 98 77 98 100 100 100 100 100 100 100 100 100 100 100 100 100 100 100 100 100 100 100 100 100 100 100 100 48
60 74 14 5 5 1 5 6 69 50 17 79 98 100 100 49 100 100 100 90 82 99 100 100 100 100 100 100 100 100 100 100 100 100 100 100 100 100 100 100 79 41 81 5
99 100 25 5 4 5 5 5 5 5 5 21 24 100 100 100 77 100 100 100 100 100 100 100 100 99 100 100 100 100 100 100 100 100 100 100 100 100 100 72 78 5 5 5
97 100 54 3 5 5 5 5 5 5 5 87 35 77 92 94 100 100 100 100 100 96 78 81 96 91 81 79 60 85 100 100 100 100 100 100 98 24 8 23 12 5 5 5
11 41 39 5 5 5 10 8 72 98 99 100 95 83 87 100 98 100 92 100 100 100 98 93 80 100 100 100 96 98 100 100 100 100 100 100 13 42 39 5 5 22 30 26
7 79 7 6 5 5 5 8 47 100 100 100 100 100 85 100 100 100 100 100 100 100 100 100 100 100 100 100 100 100 100 100 100 100 81 83 82 35 5 65 62 90 100 100
18 29 23 54 7 9 5 23 96 100 100 100 99 99 100 100 100 100 100 100 100 100 100 100 100 100 100 100 100 100 100 100 100 72 99 84 45 5 5 5 5 5 5 34
5 5 66 74 98 100 72 35 100 100 99 100 100 100 97 100 100 100 100 100 100 100 100 100 100 100 75 100 100 100 100 100 92 83 100 80 53 5 1 5 5 5 31 51
87 91 76 20 84 100 100 100 99 100 100 100 100 100 100 100 100 100 100 100 95 100 69 94 93 91 67 100 100 100 100 100 90 96 95 83 21 5 5 5 5 5 5 5
100 100 100 100 100 100 74 100 74 79 66 49 45 86 100 100 100 100 100 100 100 92 84 93 100 100 100 100 100 100 100 100 100 100 89 36 31 8 14 76 56 21 54 49
100 100 100 100 100 100 100 100 86 63 95 93 79 76 69 100 100 96 100 100 100 94 95 85 100 99 100 100 100 100 100 100 100 100 77 57 42 84 96 49 83 80 76 85
100 100 100 100 100 100 100 100 100 100 75 62 79 100 88 70 66 77 89 96 98 98 100 99 100 98 100 100 99 100 100 100 100 100 99 91 96 100 96 94 99 100 100 100
98 100 100 100 100 100 78 100 100 53 59 100 47 5 31 92 68 74 88 100 60 72 75 100 100 100 100 100 100 100 100 100 99 99 96 90 100 100 100 100 100 100 100 100
100 100 100 100 100 100 91 87 78 69 50 24 44 5 5 5 16 77 100 100 84 62 60 70 67 100 100 100 100 100 100 100 100 100 100 100 100 100 100 100 100 99 99 71
100 100 100 100 100 100 100 100 100 100 100 100 67 100 100 100 86 31 98 100 100 96 72 100 100 99 100 100 100 100 100 100 100 100 100 100 100 100 100 100 100 100 100 100
100 100 100 100 100 100 100 100 100 100 100 100 100 100 100 100 98 86 94 74 84 100 100 100 100 100 98 100 100 100 100 100 100 100 100 100 100 100 100 100 100 100 100 100
100 100 100 100 100 100 100 100 99 98 99 95 98 91 92 99 100 100 100 100 100 86 99 100 100 100 100 100 100 100 100 100 100 100 100 100 100 100 100 100 100 100 100 100
100 100 100 100 100 94 98 100 100 100 100 100 100 100 100 100 100 99 97 100 100 100 100 100 100 100 100 100 100 100 100 100 100 100 100 100 100 100 100 100 100 100 100 100
100 100 100 100 100 100 100 100 100 100 100 100 100 100 100 100 100 100 100 100 100 100 100 100 100 100 100 100 100 100 100 100 100 100 100 100 100 100 100 100 100 100 100 100
100 100 100 100 100 100 100 100 100 100 100 100 100 100 100 100 100 100 100 100 100 100 100 100 100 100 100 100 100 100 100 100 100 100 100 100 100 100 100 100 100 100 100 100
100 100 100 100 100 100 100 100 100 100 100 100 100 100 100 100 100 100 100 100 100 100 100 100 100 100 100 100 100 100 100 100 100 100 100 100 100 100 100 100 100 100 100 100
100 100 100 100 100 100 100 100 100 100 100 100 100 100 100 100 100 100 100 100 100 100 98 88 89 81 75 74 56 100 100 100 100 100 100 100 94 85 100 100 100 92 95 100
100 98 51 79 80 65 91 97 99 100 100 100 100 100 100 82 78 82 65 35 11 13 10 8 9 15 18 16 17 7 48 76 100 99 90 76 72 78 70 78 83 76 79 94

GFSNGP_prec_cloud_078.txt.gz
Cloud_Cover
100 100 96 62 96 99 98 86 99 82 54 100 100 100 18 67 98 87 5 5 5 5 92 100 100 100 100 100 100 100 99 95 94 92 100 100 100 100 100 100 100 100 99 86
100 100 100 100 100 54 100 100 83 100 100 100 100 80 6 68 98 95 97 19 5 5 98 100 100 100 100 100 100 100 100 100 100 100 100 100 100 100 100 100 100 100 100 100
100 100 100 90 100 100 100 100 82 100 100 100 100 81 38 77 74 100 90 72 100 93 100 100 100 100 57 88 100 100 100 100 100 100 100 100 100 100 100 100 100 100 100 100
95 86 60 100 100 48 80 90 100 100 100 100 35 38 67 100 100 100 100 100 100 100 100 100 100 100 100 99 96 88 99 100 100 100 100 100 100 100 100 100 100 100 100 100
97 82 4 72 100 95 59 98 9 82 100 100 100 100 100 100 95 48 73 93 100 100 100 100 99 100 100 100 100 100 100 100 100 100 100 100 100 100 100 100 100 100 100 100
96 100 50 5 3 0 5 4 5 37 33 48 100 100 100 94 100 100 100 100 100 100 100 100 100 100 98 100 100 100 100 100 100 100 100 100 100 100 100 100 100 100 100 100
100 100 34 14 4 5 5 5 5 5 5 13 28 8 5 80 100 100 100 100 100 100 100 100 100 100 100 100 100 100 100 100 100 100 100 100 100 100 100 100 96 100 84 99
100 100 89 21 5 4 2 5 5 5 5 5 5 5 5 12 7 14 100 100 100 100 100 100 100 100 100 100 100 100 100 100 100 100 100 100 100 100 100 100 99 100 92 25
31 18 75 48 80 28 5 5 5 5 51 45 5 5 24 86 6 5 5 81 100 100 100 100 78 19 100 100 100 100 100 100 100 100 100 100 100 100 100 100 97 9 5 5
68 66 12 88 73 17 5 5 20 97 88 96 68 61 71 99 56 18 65 86 100 100 76 100 90 100 100 100 100 88 74 100 100 100 100 100 100 100 100 78 20 5 21 86
29 98 25 7 7 62 71 15 29 35 99 100 100 100 100 100 100 99 96 93 95 88 90 100 94 100 100 100 100 100 100 100 100 100 100 100 100 100 81 91 55 10 5 5
6 18 5 5 62 100 99 65 53 42 78 99 100 100 100 100 100 100 100 100 100 100 100 100 100 99 100 100 100 100 100 100 100 100 100 100 100 100 100 69 40 5 5 5
21 71 17 5 5 49 66 100 100 85 40 5 72 100 100 100 100 100 100 100 100 100 100 100 100 100 100 100 100 100 100 100 100 100 100 100 100 100 100 64 20 5 5 36
100 59 22 20 5 5 54 87 93 82 75 99 58 39 78 86 77 71 59 100 100 100 100 100 100 100 100 100 100 100 100 100 100 100 100 100 100 100 98 32 62 74 82 31
100 100 100 100 64 52 17 5 6 5 8 30 67 79 77 91 100 100 94 74 65 79 89 89 98 100 100 100 85 100 100 100 100 100 100 100 81 100 100 92 91 84 88 55
100 100 100 100 100 100 100 100 100 100 100 100 65 22 42 79 100 94 100 100 100 78 99 100 100 100 100 99 86 97 72 100 100 94 97 100 100 100 100 93 98 100 100 96
100 100 100 100 100 100 100 100 100 100 100 96 60 59 46 51 14 49 93 89 38 100 100 98 85 98 100 100 100 93 100 100 100 98 100 90 100 100 100 100 100 100 100 100
100 100 100 100 100 100 100 100 100 100 100 100 100 73 77 72 32 22 5 54 90 32 91 94 73 86 71 77 96 100 100 100 100 100 100 100 100 100 100 100 100 100 100 100
100 100 100 100 100 100 100 100 100 100 100 100 100 100 100 100 100 100 54 11 23 52 9 52 43 58 46 34 54 96 94 100 100 100 100 100 100 100 100 100 100 100 100 100
100 100 100 100 100 100 100 100 100 100 100 100 100 100 100 100 100 100 93 91 100 96 84 94 100 100 100 100 100 100 100 100 100 100 100 100 100 100 100 100 100 100 100 100
100 100 100 100 100 100 100 100 100 100 100 100 100 98 92 90 90 81 93 100 100 100 100 100 80 57 72 94 100 100 100 100 100 100 100 100 100 100 100 100 100 100 100 100
100 100 100 100 100 100 100 100 100 100 100 93 84 81 92 100 100 100 100 100 97 99 100 100 100 99 98 100 100 100 100 100 100 100 100 100 100 100 100 100 100 100 100 100
100 100 100 100 100 100 100 100 100 100 100 100 100 100 100 100 100 100 100 100 100 100 100 100 100 100 100 100 100 100 100 100 100 100 100 100 100 100 100 100 100 100 100 100
100 100 100 100 98 90 96 98 91 100 100 100 100 100 100 100 100 100 100 100 100 100 100 100 100 100 100 100 100 100 100 100 100 100 100 100 100 100 100 100 100 100 100 100
100 100 100 100 100 100 100 100 100 100 100 100 100 100 100 100 100 100 100 100 100 100 100 100 100 100 100 100 100 100 100 100 100 100 100 100 100 100 100 91 92 92 99 100
100 100 100 100 100 100 100 100 100 100 100 100 100 100 100 100 100 100 100 100 100 100 100 100 100 100 100 100 99 95 98 100 100 100 100 100 100 98 78 80 73 77 79 72
100 100 100 100 100 100 100 100 100 100 100 100 100 100 100 100 100 100 100 100 100 99 86 77 66 60 71 82 84 72 75 71 60 86 100 100 100 100 98 78 78 71 68 82

GFSNGP_prec_cloud_081.txt.gz
Cloud_Cover
100 100 100 86 36 15 78 89 78 93 44 100 100 100 11 5 4 1 15 100 100 100 85 27 53 58 10 37 35 24 100 95 23 90 100 99 100 100 100 100 100 96 97 100
100 99 92 98 72 92 65 17 7 27 91 100 100 88 20 4 5 5 1 0 3 5 18 68 57 7 37 56 5 23 68 53 57 93 100 100 100 100 100 100 100 100 100 100
100 100 98 96 100 99 12 98 68 85 100 100 100 100 100 97 5 0 0 5 6 5 5 5 29 100 98 99 92 77 41 37 51 81 99 100 100 100 100 100 100 100 100 100
99 99 94 99 100 81 85 100 8 82 100 100 100 100 99 92 98 4 15 5 5 5 12 64 75 100 100 92 99 97 59 71 31 74 97 100 100 100 100 100 100 100 100 100
98 100 84 100 100 100 97 100 96 98 100 100 88 53 96 99 20 5 100 32 86 98 55 93 98 99 100 100 100 100 98 98 98 100 100 100 100 100 100 100 100 100 100 100
100 71 62 100 100 82 5 32 98 100 93 83 100 100 100 100 41 45 90 55 100 100 100 100 72 88 100 100 100 100 100 100 100 100 100 100 100 100 100 100 100 100 100 100
98 100 22 98 96 5 4 2 5 5 41 5 71 100 79 53 92 99 100 73 100 56 100 100 100 100 100 100 100 100 100 100 100 100 100 100 100 100 100 100 100 100 100 100
95 100 95 100 11 5 2 5 5 5 5 5 5 30 13 20 20 85 18 100 22 37 100 100 100 100 100 100 100 100 100 100 100 100 100 100 100 100 100 100 100 100 100 100
6 84 100 97 49 5 5 5 5 5 22 5 10 5 5 5 5 5 10 7 6 8 68 100 100 100 100 100 100 100 100 100 100 100 100 100 100 100 100 100 100 100 100 100
24 28 25 64 24 14 5 5 5 71 99 100 81 72 100 100 77 24 29 54 95 96 100 100 100 100 93 93 99 98 83 99 100 100 100 100 100 100 100 100 100 100 100 100
100 100 35 42 32 99 99 78 86 10 39 58 95 94 82 100 94 95 100 100 100 100 82 100 88 100 100 95 93 78 99 95 100 100 100 100 100 100 100 100 100 100 100 100
100 92 96 7 89 100 70 24 81 82 71 38 79 100 100 100 100 100 100 100 100 100 100 94 100 100 100 100 100 100 100 100 100 100 100 100 100 100 100 100 100 100 100 100
100 99 72 46 5 86 54 85 84 77 9 7 32 74 100 100 100 100 100 100 100 100 100 100 100 100 100 100 100 100 100 100 100 100 100 100 100 100 99 98 100 100 100 100
79 98 61 84 5 6 36 65 91 100 100 59 74 90 100 100 100 100 100 100 99 85 99 100 100 100 100 100 100 100 100 100 100 100 100 100 100 100 100 100 100 100 100 100
99 100 100 88 6 41 56 36 29 100 99 61 82 100 100 100 100 100 100 100 100 100 100 100 100 100 100 100 100 100 100 100 100 100 100 100 100 100 100 100 100 100 100 100
100 100 100 100 88 46 10 8 6 12 14 30 74 41 25 43 76 99 100 100 100 100 100 100 100 100 100 100 100 100 100 100 100 100 100 100 100 100 100 100 100 100 100 100
100 100 100 100 100 100 100 100 100 100 98 100 68 77 80 98 78 52 56 64 64 73 98 99 100 100 100 100 100 100 100 100 100 100 100 95 97 100 100 100 100 100 100 100
100 100 100 100 100 100 100 100 100 100 100 100 100 100 85 84 81 90 93 92 83 51 39 59 100 100 100 99 91 95 93 95 100 100 100 100 100 100 100 100 96 100 100 100
100 100 100 100 100 100 100 100 100 100 100 100 100 100 100 100 100 100 100 100 62 56 51 27 28 98 100 100 96 75 71 90 100 100 100 100 100 100 100 100 100 100 100 100
100 100 100 100 100 100 100 100 99 100 100 100 100 100 100 100 100 98 93 99 82 100 99 100 100 87 50 70 59 79 78 100 100 98 100 100 100 100 100 100 100 100 100 100
100 100 100 100 100 100 100 100 100 100 100 100 100 100 100 81 70 39 83 95 84 99 80 100 100 100 100 100 96 100 100 100 100 100 100 100 100 100 100 100 100 100 100 100
100 100 100 100 100 100 100 100 100 100 100 100 100 100 93 79 18 49 73 53 65 70 85 88 95 99 100 100 100 100 100 100 100 100 100 100 100 100 100 100 100 100 100 100
100 100 100 100 100 100 100 100 100 100 100 99 95 47 11 7 25 98 100 100 100 100 100 100 100 100 100 100 100 100 100 100 100 100 100 100 100 100 100 100 100 100 100 100
100 100 100 100 100 100 100 100 72 35 46 24 11 46 58 100 100 100 100 100 100 100 100 100 100 100 100 100 100 100 100 100 100 100 100 100 100 100 100 100 100 100 100 100
100 100 100 100 100 100 100 100 100 86 34 34 52 65 93 100 100 100 100 100 100 100 100 100 100 100 100 100 100 100 100 100 100 100 100 100 100 100 100 100 100 99 96 81
100 100 100 100 100 100 100 100 100 100 100 100 100 100 100 100 100 100 100 100 100 100 100 100 100 100 100 100 100 100 100 100 100 100 100 100 100 100 100 100 91 82 71 100
100 100 100 100 100 100 100 100 100 94 95 100 100 100 100 100 100 100 100 100 100 100 100 100 100 97 89 87 80 79 85 86 75 71 85 83 93 100 100 100 92 84 74 71

GFSNGP_prec_cloud_084.txt.gz
Cloud_Cover
100 100 100 100 100 92 80 62 83 100 100 100 100 100 7 8 5 5 5 7 71 100 100 100 100 99 98 100 100 100 59 100 100 100 100 10 38 57 52 94 100 44 71 84
100 100 100 100 88 22 5 86 22 60 100 100 100 100 83 11 5 0 3 5 3 0 19 91 51 100 100 95 52 97 100 100 100 100 100 92 100 96 100 100 100 100 100 100
100 100 100 99 100 100 82 41 26 19 96 97 99 99 52 8 5 12 5 0 0 0 0 0 0 6 55 84 29 13 21 12 23 5 66 77 75 84 100 100 100 100 100 100
100 100 89 91 100 59 66 100 34 5 86 82 4 16 99 50 5 5 3 0 4 0 0 2 4 25 79 58 64 33 5 44 95 100 88 91 100 100 100 100 100 100 100 100
100 100 26 100 100 93 90 100 5 5 97 100 34 6 99 34 81 5 45 5 0 3 14 5 35 24 90 100 97 100 68 70 83 100 98 100 100 100 100 100 100 100 100 100
100 100 84 100 100 100 5 100 6 56 100 100 100 100 92 75 100 84 4 6 5 80 44 100 14 30 77 45 98 100 100 100 100 95 98 100 100 100 100 100 100 100 100 100
100 100 69 100 100 76 23 95 100 100 100 100 74 76 13 31 100 100 100 41 81 99 85 14 81 100 88 95 86 100 98 98 99 100 100 99 100 100 100 100 100 100 100 100
100 100 98 100 100 5 4 5 5 5 6 41 98 66 46 16 28 92 100 100 79 94 6 60 23 10 97 99 97 78 99 99 100 100 100 100 100 100 100 100 100 100 100 100
58 41 93 100 96 5 5 5 36 78 26 5 5 5 5 5 7 50 100 43 94 45 100 75 5 20 100 100 100 100 100 100 100 100 100 100 100 100 100 100 100 100 100 100
99 100 84 100 99 7 16 90 6 5 5 88 97 34 5 5 5 12 84 81 63 13 12 34 71 63 97 97 100 100 97 100 100 100 100 100 100 100 100 100 100 100 100 100
90 100 45 74 70 74 70 83 17 5 5 5 5 22 76 24 5 5 47 60 47 96 88 59 87 64 88 98 92 97 96 97 100 100 100 100 100 100 100 100 100 100 100 100
100 100 28 95 40 12 66 92 100 99 100 64 5 16 41 6 53 98 44 37 73 94 100 100 100 100 100 100 85 96 99 100 98 100 100 100 100 100 100 100 100 100 100 100
10 11 96 35 98 100 100 100 100 99 100 97 61 27 74 36 14 37 77 100 100 100 100 100 100 100 100 100 91 100 100 100 100 100 100 100 100 100 100 100 100 100 100 100
95 50 100 100 59 76 100 100 92 91 100 100 100 100 100 100 86 76 74 75 91 97 100 100 100 100 100 100 100 100 100 100 100 100 100 100 100 100 100 100 100 100 100 100
100 100 99 100 100 100 100 40 6 80 100 98 84 73 97 100 100 100 98 94 84 86 100 100 93 73 100 100 100 100 100 100 100 100 100 100 100 100 100 100 100 100 100 100
88 98 100 97 100 100 97 9 35 15 15 68 89 78 74 100 100 94 74 83 62 72 99 100 100 100 100 100 100 100 100 100 100 100 100 100 100 100 100 100 100 100 100 100
80 95 100 100 100 100 100 60 93 85 75 67 77 79 71 68 36 43 44 34 52 76 90 96 93 100 100 100 100 100 100 100 100 100 100 100 100 100 100 100 100 94 85 93
56 100 100 100 100 100 100 100 97 67 65 26 77 78 99 100 95 92 94 93 100 96 68 89 96 99 99 100 100 100 100 100 100 100 100 100 100 100 100 100 100 100 100 100
100 100 100 100 100 100 100 95 98 100 92 89 100 100 100 100 100 100 100 100 100 100 100 100 35 52 86 100 100 100 100 100 100 100 100 98 100 100 100 100 100 100 100 100
100 100 100 100 100 100 100 100 99 100 100 100 100 100 100 100 100 100 100 100 100 93 99 98 99 79 93 99 90 96 100 100 100 100 100 100 100 100 100 100 100 100 100 100
100 100 100 100 100 100 100 100 100 100 100 100 100 100 100 100 100 83 75 64 69 55 42 13 68 100 100 100 100 100 100 100 100 100 100 100 100 100 100 100 100 100 100 100
100 100 100 100 100 100 100 99 100 100 100 100 100 100 100 100 91 88 70 70 87 41 30 13 38 75 76 100 100 100 100 100 100 100 100 100 100 100 100 100 100 100 100 100
100 100 100 100 100 100 100 96 99 100 98 97 98 100 98 100 98 38 9 7 20 98 96 79 100 100 100 100 100 100 100 100 100 100 100 100 100 100 100 100 100 100 100 100
100 100 100 100 100 100 100 100 100 100 93 73 61 60 43 12 24 11 19 99 100 100 100 100 100 100 100 100 100 100 100 100 100 100 100 100 100 100 100 100 100 100 100 100
100 100 100 100 100 100 100 100 100 100 100 100 100 100 100 84 91 95 100 100 100 100 100 100 100 100 100 100 100 100 100 100 100 100 100 100 100 100 100 100 100 100 100 100
100 100 100 100 100 100 100 100 100 100 100 100 100 100 100 100 100 100 100 100 100 100 100 100 100 100 100 100 100 100 100 100 100 100 100 100 100 100 100 100 100 100 100 100
100 100 100 100 100 100 100 100 100 100 100 100 100 100 100 100 100 100 100 100 100 100 100 100 100 100 100 100 100 100 100 100 96 91 92 90 87 80 90 100 100 100 100 100

GFSNGP_prec_cloud_090.txt.gz
Cloud_Cover
100 100 100 100 100 100 100 100 94 100 100 100 100 100 100 100 100 14 100 95 100 32 0 0 5 100 100 100 100 100 100 100 92 97 100 100 100 100 100 100 100 100 100 100
100 100 100 100 100 100 100 100 100 100 100 100 100 100 100 100 99 87 100 100 84 3 5 0 0 0 78 99 65 83 100 100 100 100 100 100 100 100 100 100 100 100 85 69
100 100 100 100 100 100 100 100 100 100 100 100 100 100 100 100 100 100 100 99 20 5 5 5 5 5 5 6 61 98 100 100 100 99 100 100 100 22 19 97 100 100 86 89
100 100 100 100 100 100 100 100 100 86 100 100 100 100 100 100 100 100 95 77 33 5 62 41 4 5 5 14 5 5 5 12 14 15 12 8 32 69 100 16 31 61 95 100
100 100 100 100 100 100 100 100 100 100 100 100 100 100 100 89 100 76 90 100 89 22 5 1 5 5 2 2 1 4 1 0 0 0 4 4 0 70 97 96 100 99 100 100
100 100 100 100 100 100 89 100 20 5 6 5 5 51 54 35 36 16 22 14 12 55 8 5 5 5 5 5 7 34 6 5 5 5 5 4 35 100 100 79 100 100 100 100
100 100 100 71 100 100 72 35 100 97 7 5 5 7 10 34 10 5 5 2 2 1 4 4 5 5 5 5 5 5 5 5 14 81 91 10 98 100 100 65 100 100 100 100
87 100 100 100 99 83 75 93 100 69 30 82 99 100 100 10 33 18 47 84 35 74 52 76 20 5 6 5 5 5 5 35 91 32 97 100 98 100 100 100 100 100 100 100
90 99 100 100 100 97 72 91 100 100 78 100 100 100 100 100 97 98 98 100 100 100 100 100 100 42 6 46 58 9 78 27 36 13 98 100 100 100 100 100 100 100 100 100
20 99 100 100 27 27 43 92 100 100 100 100 100 100 100 100 100 100 100 100 92 84 83 89 100 100 100 100 73 81 9 49 5 93 100 100 100 100 100 100 100 100 100 100
15 22 82 87 78 61 88 12 91 100 100 100 100 100 54 71 84 17 5 5 5 10 5 5 5 34 96 100 100 99 100 100 94 46 100 100 100 100 100 100 100 100 100 100
6 51 49 99 94 70 100 98 100 100 93 72 51 37 70 93 63 42 100 65 30 8 12 5 5 5 5 10 80 100 100 100 93 76 98 100 100 100 100 100 100 100 100 90
5 5 5 60 99 100 100 100 100 100 100 27 23 84 82 82 99 88 5 9 88 97 92 80 81 88 100 100 100 100 96 100 100 100 100 94 100 100 100 100 100 100 100 100
95 19 3 65 98 100 100 100 100 100 98 92 100 100 100 99 97 88 57 47 28 45 5 5 64 68 87 100 100 100 100 100 100 100 100 99 98 100 100 100 100 100 100 100
79 16 3 37 92 100 100 100 100 100 100 100 100 100 100 100 100 77 82 90 69 66 70 75 61 60 99 100 100 100 100 100 100 100 100 100 100 100 100 100 100 100 100 100
48 8 77 71 26 100 100 100 100 100 100 100 100 100 100 100 100 100 94 66 94 100 80 82 69 80 69 98 100 100 100 100 100 100 100 100 100 100 100 100 100 100 100 100
90 24 8 78 22 100 100 100 100 100 100 100 100 100 76 69 94 85 82 75 98 100 100 100 70 100 99 100 94 61 99 100 100 100 100 100 100 100 100 100 100 100 100 100
43 58 98 80 93 100 100 100 100 100 100 100 100 97 76 59 46 37 94 93 100 100 100 99 95 100 100 100 100 100 100 100 100 100 100 100 100 100 100 100 100 100 100 100
96 91 100 100 100 100 100 98 100 100 100 100 100 90 97 95 87 58 52 68 99 95 82 76 76 100 100 100 100 100 100 100 100 100 100 100 100 100 100 100 100 100 100 100
100 100 100 100 100 100 100 100 100 100 100 100 100 100 100 100 100 100 100 100 100 100 100 100 100 98 64 100 100 100 100 100 100 100 100 100 100 100 100 100 100 100 100 100
100 100 100 100 100 100 100 100 100 100 100 100 100 100 100 100 100 100 100 100 100 100 100 100 100 89 83 38 92 100 100 100 100 100 100 100 100 100 100 100 100 100 100 98
100 100 100 100 100 100 100 93 100 100 100 85 95 95 100 100 100 100 100 100 100 100 95 84 74 60 78 55 54 95 100 100 100 100 100 100 100 100 100 100 100 100 100 100
65 100 100 100 100 100 100 100 100 100 100 100 100 100 86 83 87 100 100 100 92 61 39 37 14 9 9 5 5 7 21 53 99 100 100 100 100 100 100 100 100 100 100 100
100 100 100 100 100 100 100 100 100 100 100 100 100 100 100 100 100 100 100 100 100 74 41 23 6 13 13 8 36 70 72 75 100 100 100 100 100 100 100 100 100 100 100 100
100 100 100 100 100 99 100 100 100 100 100 100 100 100 100 100 100 100 100 100 100 100 78 51 80 91 72 83 100 100 100 100 100 100 100 100 100 100 100 100 100 100 100 100
100 100 100 100 100 100 100 100 100 100 100 100 100 100 100 100 100 100 100 100 100 100 100 100 100 100 100 100 100 100 100 100 100 100 100 100 100 100 100 100 100 100 100 100
38 89 100 100 100 100 100 100 98 100 100 100 100 100 100 100 100 100 100 100 100 100 100 100 100 100 100 100 100 100 97 100 100 99 100 96 99 100 100 100 100 100 100 100

GFSNGP_prec_cloud_093.txt.gz
Cloud_Cover
100 100 100 100 100 100 100 100 91 97 100 100 98 99 27 73 88 3 5 6 40 42 59 100 100 99 1 9 10 58 100 100 65 100 100 100 100 100 100 100 100 100 100 97
100 99 93 100 100 100 100 100 100 100 100 100 100 100 91 97 39 5 5 91 91 100 100 100 100 90 1 0 1 95 100 100 100 100 100 100 100 100 100 100 100 100 100 100
100 100 100 100 100 100 100 100 100 97 100 100 100 100 100 100 100 94 27 100 100 83 100 100 100 96 5 0 0 0 7 94 100 100 100 100 100 100 100 100 100 100 100 100
100 100 100 100 100 100 100 100 100 72 100 100 100 100 100 100 100 100 64 88 100 100 100 100 100 100 30 5 5 0 4 1 2 18 26 78 100 100 100 100 100 100 100 100
100 100 100 100 100 100 100 98 100 100 100 100 100 100 100 100 100 100 100 100 100 100 100 84 96 98 46 12 5 5 5 4 5 5 5 4 2 5 68 100 96 95 86 92
91 97 100 100 100 100 100 100 100 100 100 78 99 100 100 100 99 100 100 100 100 100 99 66 38 99 55 17 5 5 5 5 5 9 91 44 23 42 58 100 100 89 100 100
94 82 100 97 80 73 96 98 51 100 100 100 100 100 100 100 53 22 80 97 93 78 91 94 100 35 57 82 70 22 69 81 87 100 91 17 100 69 100 100 74 80 100 100
99 100 100 100 100 83 20 100 100 100 100 100 76 89 40 47 38 18 6 5 5 5 5 5 8 5 8 25 30 54 66 89 57 12 5 26 29 94 100 100 99 100 100 100
100 99 52 64 100 100 94 100 100 100 100 100 96 64 53 99 98 72 81 38 34 33 44 46 85 61 100 100 29 8 64 16 84 62 68 14 40 100 100 100 100 100 100 100
4 27 70 100 100 100 100 100 100 100 100 100 100 100 100 100 100 100 100 100 100 100 100 100 100 100 100 100 100 100 95 89 70 56 59 76 100 100 100 100 100 100 100 100
4 10 7 34 98 100 92 94 100 100 100 100 100 100 100 100 100 100 100 100 100 100 100 100 100 75 71 84 100 100 100 100 100 100 100 100 100 100 100 91 84 100 100 100
5 4 24 51 56 98 99 100 82 97 100 100 100 100 100 100 99 79 100 100 89 63 52 29 5 5 5 11 20 12 41 100 100 100 100 100 100 100 99 92 100 100 100 100
5 72 65 6 100 72 100 100 100 100 100 100 100 100 100 100 100 86 92 82 50 75 70 99 100 76 11 59 97 99 100 100 100 100 100 100 100 100 100 100 100 100 100 100
100 92 11 67 5 5 98 100 100 100 100 100 100 100 100 100 100 96 86 98 99 84 72 66 66 69 48 48 76 99 100 100 100 100 100 100 100 98 100 100 100 100 100 100
85 89 72 6 40 8 75 100 100 100 100 100 100 100 100 100 100 100 100 100 100 100 100 100 100 91 89 73 44 33 100 100 100 100 100 100 100 100 100 100 100 100 100 100
98 36 46 92 27 78 100 100 100 100 100 100 100 100 100 100 100 100 100 100 100 100 100 100 100 100 100 96 86 71 82 100 100 100 100 100 100 100 100 100 100 100 100 100
100 32 5 38 94 100 100 100 100 100 100 100 100 100 100 100 100 100 95 80 99 100 100 100 100 100 100 100 89 100 100 94 100 100 100 100 100 100 100 100 100 100 100 100
100 100 43 92 98 100 100 100 100 100 100 100 100 100 100 99 96 93 83 96 67 94 100 100 100 100 100 100 100 100 99 100 100 100 100 100 100 100 100 100 100 100 100 100
100 100 100 100 100 100 100 100 100 100 100 100 100 100 100 99 100 100 100 97 43 61 56 98 100 100 100 100 100 100 100 100 100 100 100 100 100 100 100 100 100 100 100 100
100 100 100 100 100 100 100 100 100 100 100 100 100 96 100 100 100 100 100 100 100 100 98 92 100 100 100 100 100 100 100 100 100 100 100 100 100 100 100 100 100 100 100 100
100 100 100 100 100 100 100 100 100 100 100 99 99 97 100 100 100 100 100 100 100 100 100 100 100 100 100 100 100 100 100 100 100 100 100 100 100 100 100 100 100 100 100 100
100 100 100 100 100 98 100 100 100 100 100 100 84 78 76 95 100 100 100 100 100 100 100 100 100 100 88 81 90 80 95 96 100 100 100 100 100 100 100 100 100 100 100 100
89 41 67 86 97 100 99 100 100 100 100 100 100 99 100 100 98 100 100 100 100 100 100 100 100 96 81 79 58 50 28 37 34 51 52 55 100 100 90 100 100 100 100 100
100 100 77 56 99 100 100 100 100 100 100 100 100 100 100 100 100 100 100 100 100 100 100 100 94 76 42 26 7 45 26 25 57 72 62 89 100 100 100 100 97 100 100 100
100 100 100 100 100 100 100 100 100 100 100 100 100 100 100 100 100 100 100 100 100 100 100 100 100 99 60 46 44 96 100 88 83 100 100 100 100 100 100 100 100 100 100 100
92 100 100 100 100 100 100 100 100 100 100 100 100 100 100 100 100 100 100 100 100 100 100 100 100 100 100 100 100 100 100 100 100 100 100 100 100 100 100 96 56 68 77 92
33 73 75 83 54 96 100 100 100 100 100 100 100 100 100 100 100 100 100 100 100 100 100 100 100 100 100 100 100 100 100 100 100 100 100 97 86 70 53 40 50 61 73 58

GFSNGP_prec_cloud_096.txt.gz
Cloud_Cover
60 100 100 100 100 100 100 91 67 95 100 100 100 100 100 100 100 100 94 24 42 100 98 100 95 100 100 99 42 15 11 9 2 0 6 86 29 100 100 98 70 100 100 99
99 94 96 100 100 100 100 100 99 65 32 100 100 70 21 99 100 33 8 5 4 19 99 100 100 100 100 100 97 97 63 5 0 4 5 78 8 100 22 100 100 100 100 100
7 100 99 100 100 100 100 100 99 93 100 100 100 97 100 73 5 5 5 5 2 5 5 5 25 100 100 98 58 100 100 2 0 0 1 5 41 43 98 100 100 100 100 100
41 95 95 17 89 86 82 100 47 100 100 100 100 100 100 65 14 52 5 5 5 14 46 73 62 100 100 100 100 100 100 28 0 0 0 0 1 5 24 80 100 100 100 100
100 92 90 99 92 98 100 98 100 100 100 100 100 100 97 100 100 60 98 88 98 100 100 100 100 100 100 100 100 100 100 100 5 5 0 1 0 0 57 95 92 95 85 52
100 89 76 100 70 63 99 92 100 97 100 100 100 100 100 100 100 100 100 100 100 100 100 100 100 100 100 100 100 100 100 100 19 5 5 5 5 10 100 100 100 100 42 83
6 73 79 96 55 91 82 100 99 84 99 100 100 100 100 100 100 100 100 100 100 100 100 100 100 100 100 98 100 100 98 99 45 22 6 13 79 100 64 41 100 70 32 70
92 82 59 100 100 100 95 95 100 100 100 100 100 100 100 100 100 100 100 100 100 100 99 100 100 100 100 100 99 100 100 100 100 100 100 100 100 100 100 84 100 100 94 100
80 38 20 34 100 100 100 98 94 99 100 100 100 100 100 97 94 87 96 92 94 88 82 97 96 99 100 100 100 100 82 57 100 100 100 100 94 67 99 100 100 100 100 97
5 17 55 8 75 99 100 97 100 100 94 100 100 100 100 100 100 53 14 19 9 41 78 65 51 56 75 100 100 95 84 100 100 100 100 77 58 80 100 100 100 100 97 100
4 0 2 4 5 10 100 100 100 59 62 100 100 100 100 100 100 100 100 100 100 100 100 100 100 79 100 89 68 99 100 100 100 100 100 100 100 100 100 100 100 100 84 100
5 4 5 5 42 96 100 100 100 98 63 100 100 100 100 100 100 100 100 100 100 100 100 100 100 100 100 100 100 86 70 62 73 100 100 100 100 100 99 100 100 97 100 100
5 78 5 5 72 100 83 55 80 100 50 100 100 100 100 100 100 100 100 100 100 100 100 100 100 100 100 43 100 98 100 100 100 100 100 100 100 100 100 100 100 100 100 100
98 100 63 88 84 62 18 93 100 94 99 100 100 100 100 100 100 100 100 100 100 88 85 82 83 85 86 95 85 78 80 100 100 100 100 100 100 100 100 100 100 100 100 100
100 100 84 14 44 95 32 44 100 100 100 94 100 100 100 100 100 100 100 100 100 100 100 100 100 99 96 98 88 95 96 100 100 100 91 100 100 100 100 100 100 100 100 100
100 99 7 5 26 96 84 100 100 100 100 100 100 100 100 100 100 100 100 100 99 100 100 100 100 100 100 96 84 90 100 100 100 100 100 100 100 100 100 100 100 100 100 100
100 79 6 6 70 91 82 100 100 100 100 100 100 100 100 100 100 100 100 100 100 100 100 100 100 100 100 100 96 100 100 100 100 100 100 100 100 100 100 100 100 100 100 100
100 100 100 100 100 100 100 100 100 100 100 100 100 100 100 100 100 100 100 100 100 97 94 98 100 99 100 100 100 100 100 100 100 100 100 100 100 100 100 100 100 100 100 100
100 100 100 100 100 100 100 100 100 100 100 100 100 100 100 100 100 100 100 100 100 100 100 100 83 82 75 61 96 100 100 100 100 100 100 100 100 100 100 100 100 100 100 100
100 100 100 100 100 100 100 100 100 100 100 100 100 100 100 100 100 100 100 100 100 100 100 100 87 80 88 70 52 99 100 100 100 100 100 100 100 100 100 100 100 100 100 100
100 100 100 100 100 98 99 100 100 100 100 100 100 100 100 100 100 99 100 100 100 100 100 100 100 99 100 100 100 100 100 100 100 100 100 100 100 100 100 100 100 100 100 100
100 100 100 100 98 91 89 93 99 84 87 100 100 100 100 100 100 100 97 100 100 100 100 100 100 100 100 100 100 100 100 100 100 100 100 100 100 100 99 97 100 100 100 100
90 61 85 90 46 54 53 97 97 98 99 100 100 100 100 100 100 97 95 100 100 100 100 100 100 100 100 100 100 100 100 100 100 100 100 99 92 78 82 76 21 53 73 100
100 100 98 96 92 76 87 60 98 100 100 100 100 100 100 90 77 99 100 100 100 99 100 100 100 100 100 100 100 100 100 100 100 84 74 26 74 76 74 72 99 75 84 100
100 100 100 100 100 100 100 100 100 100 100 100 100 100 100 100 100 99 100 100 100 100 100 100 100 100 100 100 100 100 100 100 100 100 100 100 100 100 100 100 100 100 100 100
65 100 100 100 100 100 100 97 100 100 100 100 100 100 100 100 100 100 100 100 100 100 100 100 100 100 100 100 100 100 100 100 100 100 100 100 100 100 100 100 100 100 100 97
53 47 74 87 31 38 66 89 99 100 100 100 100 100 100 100 100 100 100 100 100 100 100 100 100 100 100 100 100 100 100 100 100 100 100 100 100 100 100 100 100 98 72 65

GFSNGP_prec_cloud_099.txt.gz
Cloud_Cover
95 83 100 100 100 100 100 62 95 77 100 100 100 100 100 100 100 100 100 100 98 100 100 100 98 99 47 5 32 27 1 20 55 92 99 74 35 47 43 56 4 7 28 80
64 16 100 100 100 100 100 100 100 64 37 100 100 100 100 97 51 12 68 85 100 100 100 100 100 96 77 22 76 89 57 79 100 100 100 83 32 27 31 0 5 5 5 5
88 100 32 51 100 99 81 100 100 100 100 100 100 100 100 100 100 100 39 100 100 100 59 98 61 77 99 100 92 100 98 52 51 85 78 63 20 5 0 0 12 28 95 100
88 92 82 94 55 84 78 100 94 100 100 100 100 100 92 59 53 69 5 5 35 89 99 5 3 5 36 84 100 100 100 100 100 100 40 94 93 20 4 2 0 2 4 55
99 98 75 99 36 49 81 100 100 92 100 100 100 100 100 91 86 60 96 29 5 5 52 41 9 4 0 10 100 99 98 100 100 100 80 100 100 97 51 95 91 95 80 90
100 100 55 95 27 38 82 37 79 100 100 100 100 100 100 100 100 100 5 90 100 100 100 100 100 46 54 49 88 100 100 100 100 99 100 100 100 100 100 100 100 100 100 34
82 73 5 17 71 100 100 100 100 100 100 100 100 100 100 100 100 100 100 100 100 100 100 100 100 100 95 94 100 100 100 100 100 100 100 100 100 100 100 100 100 98 98 31
76 93 49 5 93 100 100 100 95 100 100 100 100 100 100 100 100 100 100 100 100 100 100 100 100 100 100 78 97 100 100 100 100 100 100 100 100 100 100 73 82 98 100 91
18 5 16 39 5 47 100 100 100 100 100 100 100 100 100 100 100 100 100 100 100 100 100 100 100 100 100 100 100 100 100 100 100 100 100 96 95 96 100 100 100 100 100 100
6 3 5 5 7 62 6 76 100 100 98 100 100 100 100 100 100 100 100 100 100 100 100 100 66 83 80 76 80 100 100 100 100 99 97 99 100 54 51 100 100 100 100 94
5 1 0 1 0 1 2 5 5 100 100 26 82 100 100 100 100 100 100 100 99 98 100 100 100 97 65 67 86 100 100 100 83 95 100 99 55 52 75 100 100 100 88 97
0 1 5 5 5 59 40 20 58 35 100 100 100 100 100 100 100 100 100 100 100 70 96 100 96 76 57 77 98 97 100 100 100 76 55 98 100 100 100 100 100 100 99 100
5 5 5 5 5 24 56 64 7 33 100 100 96 98 100 100 100 100 100 100 100 100 100 100 100 100 100 100 100 100 100 100 100 83 99 100 100 100 100 100 100 100 100 99
87 65 34 48 21 8 6 16 5 5 100 100 100 100 100 100 100 100 100 100 100 100 100 100 100 100 100 100 100 100 84 79 100 99 100 100 100 100 100 100 100 100 100 100
66 100 100 39 5 80 100 92 26 45 73 100 100 100 100 100 100 100 100 100 100 100 100 100 100 100 100 100 100 95 64 47 93 100 100 100 100 95 100 100 100 100 100 100
99 100 100 47 5 48 100 90 100 100 99 100 100 100 100 100 100 100 100 100 100 100 100 100 100 100 99 78 91 93 100 100 100 94 99 100 100 100 100 100 100 100 100 100
100 100 100 30 22 98 100 100 100 100 100 100 100 100 100 100 100 100 100 100 100 100 100 100 100 100 100 100 100 100 100 100 100 100 100 100 100 100 100 100 100 100 100 100
100 100 100 87 100 100 100 100 100 100 100 100 100 100 100 100 100 100 100 100 100 100 100 100 100 100 99 100 100 100 100 100 100 100 100 100 100 100 100 100 100 100 100 100
100 100 100 100 100 100 100 100 100 100 100 100 100 100 100 100 100 100 100 100 100 100 100 100 96 96 100 100 100 99 100 100 100 100 100 100 100 100 100 100 100 100 100 100
100 100 100 100 100 100 100 100 100 100 100 100 100 100 100 100 100 100 100 100 100 100 100 100 100 91 76 100 99 95 100 100 100 100 100 100 100 100 100 100 100 100 100 100
100 100 100 100 100 100 99 100 99 72 61 77 92 98 98 69 84 99 100 100 100 100 100 100 100 100 100 100 100 95 100 77 98 100 100 100 100 100 100 100 100 100 100 100
100 100 100 100 99 89 98 74 73 78 69 64 77 79 97 100 100 100 100 100 100 93 94 100 100 100 100 100 100 100 100 100 98 100 100 100 100 100 100 100 100 100 93 54
89 83 79 31 47 73 5 82 68 82 82 89 99 100 100 100 100 100 100 100 100 90 89 89 96 100 100 100 100 100 100 100 100 100 100 100 100 100 100 100 93 56 79 65
100 100 93 80 100 100 41 87 78 76 90 96 98 100 100 100 100 100 100 100 100 100 100 100 100 100 100 100 100 100 100 100 100 100 100 100 100 100 100 98 76 67 97 100
100 100 100 100 100 100 100 100 100 95 84 80 76 99 100 100 100 100 100 100 100 100 100 100 100 100 100 100 100 100 100 100 100 100 100 100 100 100 100 100 100 100 100 100
69 98 100 83 100 100 99 100 100 96 99 72 100 100 100 100 100 100 100 100 100 100 100 100 100 100 100 100 100 100 100 100 100 100 100 100 100 100 100 100 100 100 100 100
88 85 89 37 17 98 96 96 97 100 99 85 100 100 100 100 100 100 100 100 100 100 100 100 100 100 100 100 100 100 100 100 100 100 100 100 100 100 100 100 100 100 100 100

GFSNGP_prec_cloud_102.txt.gz
Cloud_Cover
31 56 69 86 76 97 100 100 100 28 6 100 97 73 10 18 96 100 99 96 100 100 77 45 30 5 5 5 2 94 8 4 0 0 0 0 0 5 12 36 5 9 5 4
5 5 5 44 93 100 88 100 100 96 81 100 100 100 100 100 100 100 100 100 100 100 100 100 100 100 56 100 25 6 8 15 3 6 2 24 90 98 19 5 5 59 100 100
95 92 88 76 29 96 100 100 95 100 100 100 74 63 97 100 100 100 100 100 100 100 100 100 100 100 95 100 88 2 93 7 64 100 86 100 42 25 5 35 100 100 100 72
92 95 46 88 50 52 100 100 100 99 100 100 100 72 100 31 100 95 25 57 97 100 100 100 100 100 100 100 86 28 84 93 97 100 97 93 100 67 95 85 100 99 97 95
96 94 29 94 52 86 100 100 100 100 100 100 100 100 96 65 92 100 100 100 100 100 100 100 91 29 92 100 100 61 5 29 100 100 100 100 100 38 97 100 100 100 100 100
7 95 65 81 97 60 30 89 100 100 100 100 100 100 100 98 100 100 100 100 100 100 97 72 14 53 90 85 5 10 40 100 100 100 100 100 100 100 100 100 100 100 100 100
87 89 3 3 7 91 93 64 86 98 100 100 100 100 100 100 100 100 100 100 97 57 8 34 56 6 5 5 5 5 5 5 86 89 100 100 100 100 100 100 100 100 100 100
93 92 54 5 4 34 79 100 100 95 72 100 100 100 100 100 100 100 100 100 84 32 78 100 100 100 92 78 23 46 96 100 100 100 93 72 94 100 100 100 100 100 100 100
8 7 3 90 5 5 28 86 100 98 100 100 100 100 100 100 100 100 100 100 100 100 100 100 100 100 100 100 79 100 100 100 100 100 100 100 100 100 100 100 100 100 100 100
5 2 0 5 8 61 5 1 0 20 75 82 100 100 100 100 100 100 100 100 100 100 100 100 100 100 100 100 100 100 100 100 100 100 100 100 100 100 100 100 100 100 93 100
5 3 2 1 3 5 5 5 5 5 4 16 100 91 100 100 100 100 100 100 100 100 100 100 100 100 100 100 100 100 100 100 100 100 100 100 100 100 100 99 92 100 100 88
1 0 0 5 5 5 5 60 76 5 5 5 100 92 64 86 100 100 100 100 100 100 100 100 100 100 100 100 100 100 100 100 100 100 100 97 100 100 99 100 100 91 81 96
0 1 5 5 5 5 5 5 5 5 5 3 90 100 100 98 100 100 100 98 100 100 100 100 100 100 100 100 100 100 100 100 100 100 100 100 100 100 100 100 100 93 99 100
27 15 5 5 5 5 6 70 64 21 6 4 92 100 100 100 100 100 100 100 98 100 100 100 100 100 100 100 100 100 100 100 100 100 100 100 100 100 100 100 100 100 100 100
88 99 70 71 5 5 86 94 86 77 100 100 100 100 100 100 100 100 100 100 100 100 100 100 100 100 100 100 100 100 100 100 100 100 100 100 100 100 100 100 100 100 100 100
48 51 100 100 20 5 94 100 100 100 100 100 100 100 100 100 100 100 100 100 100 100 100 100 100 100 100 100 100 100 100 100 100 100 100 99 100 100 100 100 100 100 100 100
96 48 100 100 83 100 100 100 100 100 100 100 100 100 100 100 100 100 100 100 100 100 100 100 100 100 100 100 100 100 100 100 96 100 100 100 100 100 100 100 100 100 100 100
42 84 100 100 91 100 100 100 100 100 100 100 100 100 100 100 100 100 100 100 100 100 100 100 100 100 100 100 100 100 100 100 100 100 100 100 100 100 100 100 100 100 100 100
42 99 100 100 100 100 100 100 100 100 100 100 100 100 100 100 100 100 100 100 100 100 100 100 100 100 100 100 72 89 100 100 100 100 100 100 100 100 100 100 100 100 100 100
91 100 100 100 100 100 100 100 100 100 90 100 100 100 100 100 100 100 100 100 100 100 100 100 100 100 100 100 100 88 100 100 100 100 100 100 100 100 100 100 100 100 100 100
100 100 100 100 100 95 100 100 51 63 100 100 100 56 60 7 80 100 100 100 100 100 100 100 100 100 100 100 100 100 100 99 100 100 89 78 100 95 98 100 100 100 100 100
100 100 100 100 100 97 94 52 6 72 100 100 100 91 76 72 65 90 100 100 100 100 100 100 100 100 99 100 100 100 100 76 65 82 63 88 100 100 100 100 100 100 100 100
99 95 84 39 8 30 22 6 47 100 100 100 100 100 100 100 99 98 100 100 100 100 100 100 100 100 95 100 92 55 100 95 99 100 100 100 100 100 100 100 100 100 100 100
100 99 88 78 94 100 100 98 93 100 100 100 100 100 100 100 96 99 100 100 100 100 100 100 100 100 100 100 95 100 100 100 100 100 100 100 100 100 100 100 100 100 100 100
100 99 98 99 97 96 94 100 97 99 100 100 100 100 100 100 99 98 100 100 100 100 100 100 100 100 100 100 100 100 100 100 100 100 100 100 100 100 100 100 100 100 100 100
100 96 93 100 89 93 70 90 93 100 100 100 100 100 100 100 90 100 100 100 100 100 100 100 100 100 100 100 100 100 100 100 100 100 100 100 100 100 100 100 100 100 100 100
100 99 100 63 6 5 22 48 69 51 63 85 100 100 100 100 99 99 100 100 100 100 100 100 100 100 100 100 100 100 100 100 100 100 100 100 100 100 100 100 100 100 100 100

GFSNGP_prec_cloud_105.txt.gz
Cloud_Cover
5 5 5 33 81 76 32 82 100 100 87 97 100 23 99 100 100 100 100 100 100 100 100 66 67 95 99 100 100 100 100 100 100 100 100 100 100 96 100 94 64 88 80 26
70 90 5 5 5 5 5 5 100 90 100 100 98 42 86 46 100 100 100 100 100 100 100 100 100 100 100 89 75 13 14 38 72 100 100 100 100 100 100 100 100 100 100 84
22 92 44 15 98 51 21 13 89 82 100 100 100 43 49 98 69 99 68 91 99 100 100 100 100 100 100 100 100 100 91 82 5 5 52 5 5 5 5 10 15 5 8 64
80 5 15 95 77 84 96 100 76 100 100 100 100 100 98 5 24 36 30 100 88 74 97 100 100 100 100 92 99 7 13 52 7 4 5 2 5 43 2 3 20 96 100 73
72 96 6 8 41 24 64 90 100 100 100 100 100 100 99 82 49 20 100 86 5 31 62 100 100 75 58 96 100 99 60 95 93 100 100 100 100 100 49 94 100 100 100 100
5 86 16 6 20 5 5 38 99 100 100 100 100 100 100 100 100 84 64 18 82 96 100 100 38 72 100 99 100 100 100 100 100 100 98 100 100 90 100 100 100 100 100 100
82 83 3 0 5 5 48 12 100 99 100 100 100 100 100 100 100 100 99 50 41 70 100 100 100 100 100 99 69 83 92 39 82 94 100 100 100 100 100 100 100 100 100 100
52 84 21 3 5 21 5 7 46 57 75 100 96 86 100 100 100 100 100 100 100 100 100 100 100 100 100 100 32 5 2 2 91 100 100 100 100 100 100 100 100 100 98 100
5 2 0 5 5 5 8 6 4 10 7 60 100 100 100 100 100 100 100 100 100 100 100 100 100 100 36 6 5 8 20 97 100 18 13 31 100 100 100 100 90 74 98 96
5 3 1 4 4 25 5 5 4 0 0 1 5 83 100 100 100 100 100 100 100 100 100 100 98 38 84 64 100 92 97 100 100 100 100 100 100 100 100 100 100 100 100 100
5 2 0 0 2 4 5 5 5 5 5 5 3 5 100 97 100 100 100 100 100 100 100 100 100 100 100 100 100 100 100 100 100 100 100 100 100 100 100 100 100 100 100 100
1 0 0 0 1 5 5 5 5 8 5 5 5 0 57 100 94 100 100 100 97 100 91 100 100 100 100 100 99 100 100 100 100 100 100 100 100 100 100 100 100 100 100 100
0 0 1 5 5 5 5 5 5 22 84 5 5 3 76 100 100 100 96 100 100 100 44 29 100 100 100 100 100 100 100 100 100 100 100 100 100 100 100 100 100 100 100 100
5 5 5 5 5 5 5 5 28 91 100 58 14 5 64 100 100 99 100 100 100 100 77 90 100 100 100 100 100 91 100 100 100 100 100 100 100 100 100 100 100 100 100 100
5 21 40 5 5 5 5 41 100 100 100 100 100 45 100 100 100 100 100 100 100 100 100 100 90 98 100 100 100 100 100 100 100 100 99 100 100 100 100 100 100 100 100 100
5 69 18 89 10 5 73 100 100 100 100 100 100 100 100 100 100 100 100 100 100 100 100 100 100 100 100 100 100 100 100 100 100 100 100 100 100 100 100 100 100 100 100 100
5 64 28 100 98 100 100 100 100 100 100 100 100 100 100 100 100 87 100 100 100 100 100 70 100 100 100 100 100 100 100 100 100 100 100 100 100 100 100 100 100 100 100 100
5 12 80 100 73 100 100 100 100 100 100 100 100 100 100 100 100 100 100 100 100 100 100 100 100 100 100 100 100 100 100 100 100 100 100 100 100 100 100 100 100 100 100 100
48 96 55 90 100 100 100 100 100 100 100 100 100 100 100 100 100 100 100 100 100 100 100 100 100 100 100 100 100 100 100 100 100 100 100 100 100 100 100 100 100 100 100 100
98 100 100 100 100 100 100 100 100 79 72 81 100 100 99 100 100 100 100 100 100 100 100 100 100 100 100 100 100 100 100 100 100 100 100 100 100 100 100 100 100 100 100 100
96 100 100 100 100 100 89 76 98 84 78 13 94 96 98 90 62 58 64 96 94 93 100 100 100 100 100 100 100 100 100 100 100 100 100 99 95 77 82 100 96 87 95 100
99 100 100 100 57 26 65 54 99 100 14 9 50 93 82 78 100 100 87 97 100 100 100 100 100 100 100 100 100 100 100 100 100 100 100 100 100 78 82 93 100 100 100 100
99 24 11 54 6 97 84 38 63 49 85 70 73 61 66 70 100 100 46 52 83 100 100 100 100 100 100 100 100 100 100 100 100 97 98 100 100 100 100 100 100 100 100 100
100 98 67 64 29 33 57 98 100 100 100 100 100 100 77 99 98 87 84 90 99 83 99 100 100 100 100 100 100 100 100 100 100 100 100 100 100 100 100 100 100 100 100 100
100 99 99 100 82 53 63 100 72 40 17 51 74 20 17 100 91 63 86 100 100 100 100 100 100 100 100 100 100 100 100 100 100 100 100 100 100 100 100 100 100 100 100 100
100 88 80 99 83 82 43 99 49 40 96 100 31 10 64 47 68 99 100 100 100 100 100 100 100 100 100 100 100 100 100 100 100 100 100 100 100 100 100 100 100 100 100 100
100 100 100 84 32 41 61 77 58 15 12 7 76 5 10 5 26 46 55 87 100 100 100 100 100 100 100 100 100 100 100 100 100 100 100 100 100 100 100 100 100 100 100 100

GFSNGP_prec_cloud_108.txt.gz
Cloud_Cover
5 5 5 5 56 5 98 6 65 94 98 48 80 100 100 100 7 55 92 100 99 98 100 100 99 100 100 100 100 100 100 100 100 100 100 100 100 100 100 100 100 100 100 100
5 43 68 5 5 5 5 5 37 73 99 100 84 43 100 100 100 100 100 100 27 89 95 92 100 100 100 98 100 100 100 100 100 100 100 100 100 100 100 100 100 100 100 100
5 5 32 47 13 97 100 100 100 97 100 52 94 85 100 100 100 100 100 100 100 100 71 27 70 99 100 100 100 100 100 100 100 100 100 100 100 100 100 100 100 100 100 100
5 5 40 35 5 68 76 99 100 100 100 99 91 100 100 77 100 100 100 100 100 100 98 100 100 99 100 100 100 100 100 100 100 100 100 100 100 100 100 100 100 100 100 100
4 1 4 6 5 5 9 93 100 100 100 100 78 100 100 100 100 100 100 100 89 94 100 100 100 88 67 59 100 100 100 98 100 100 100 100 100 100 100 100 100 100 100 100
13 2 0 6 5 5 5 58 95 100 100 100 100 100 100 100 98 100 100 82 58 52 100 100 100 100 100 96 48 100 99 100 93 99 100 100 100 100 98 100 100 60 73 100
5 1 0 1 5 5 79 32 29 58 100 100 98 100 100 100 100 86 100 100 74 9 99 93 22 28 64 89 89 100 99 98 59 100 100 100 100 100 100 100 92 100 97 20
6 5 0 0 5 8 2 1 6 69 95 77 34 100 100 95 98 100 100 100 100 91 76 58 96 20 98 99 30 60 100 96 100 100 100 100 100 100 96 79 66 59 51 53
0 0 0 0 0 0 0 5 7 0 0 0 2 6 95 97 81 98 100 100 100 100 100 97 99 65 100 100 72 70 22 14 6 31 94 100 100 100 100 100 73 33 18 37
4 0 0 0 0 3 2 5 5 1 0 0 0 0 5 80 100 89 100 100 100 95 99 100 100 100 100 100 100 100 100 100 100 100 100 47 64 100 83 99 86 95 96 36
5 0 0 0 0 3 3 5 5 5 5 5 5 0 0 2 100 95 73 100 100 100 100 100 100 96 100 100 100 100 55 72 84 93 99 100 100 100 100 100 100 100 100 100
0 0 0 0 0 0 4 5 5 5 5 5 5 5 1 0 100 100 100 100 100 100 100 100 62 98 82 100 100 100 98 100 100 100 100 100 100 100 100 100 100 100 100 100
0 0 0 2 5 5 5 5 5 5 5 24 5 5 5 0 100 100 100 100 89 87 100 91 100 99 97 100 100 100 100 100 100 100 100 100 100 100 100 100 100 100 100 100
0 2 4 5 5 5 5 5 15 57 79 100 84 62 62 46 100 100 100 100 100 88 100 44 78 87 72 99 100 98 96 100 100 100 100 100 100 100 100 100 100 100 100 100
5 4 5 5 5 5 5 80 100 90 100 100 100 99 100 100 100 100 100 100 100 100 100 100 99 98 85 96 100 100 100 100 100 100 97 100 100 100 100 100 100 100 100 100
5 5 5 5 5 5 33 100 100 100 100 100 100 100 100 100 100 100 100 100 100 100 100 100 100 100 100 100 95 100 100 100 100 100 100 100 100 100 100 100 100 100 100 100
5 43 38 5 25 36 100 100 100 100 100 100 100 100 100 100 100 100 100 100 100 100 100 100 100 100 100 96 100 100 100 100 100 100 100 100 100 100 100 100 100 100 100 100
2 5 5 5 31 98 100 100 100 100 100 100 100 100 100 100 100 100 100 100 100 100 100 100 100 100 100 100 100 100 100 100 100 100 100 100 100 100 100 100 100 100 100 100
5 5 6 5 39 82 100 100 100 100 100 100 100 100 100 100 100 100 100 100 100 92 100 100 100 100 100 100 100 100 100 100 100 100 100 100 100 100 100 100 100 100 100 100
73 98 100 100 100 100 100 100 100 90 70 64 61 56 82 81 100 99 100 100 100 100 100 100 100 100 100 100 100 100 100 100 100 100 100 100 100 100 100 100 100 100 100 100
99 100 100 99 100 100 98 18 75 29 20 16 70 77 69 46 29 45 98 100 100 80 93 83 100 100 100 100 100 100 100 100 100 100 100 100 100 100 100 100 100 100 98 87
80 100 100 100 100 55 22 5 5 18 8 5 38 80 17 20 20 48 100 100 100 5 5 5 46 99 98 100 99 100 100 100 100 100 100 100 100 100 100 100 100 94 85 89
45 90 100 100 22 5 5 5 5 27 17 89 100 100 100 100 100 96 100 100 76 76 61 60 26 57 91 88 100 100 100 100 100 100 100 100 100 100 100 100 81 85 96 99
97 86 25 26 6 5 9 14 91 99 98 89 96 64 59 74 64 100 100 100 80 98 100 100 97 93 100 91 100 100 100 100 100 100 100 100 100 100 100 84 97 97 100 100
100 100 100 100 81 51 59 94 58 18 5 85 94 87 26 23 89 94 100 83 76 97 100 100 100 100 100 100 100 100 100 100 100 100 100 100 100 100 100 100 100 100 100 100
100 91 56 58 63 40 20 8 10 6 6 7 26 60 10 26 84 63 33 37 62 75 93 100 100 100 100 100 100 100 100 100 100 100 100 100 100 100 100 100 100 100 100 100
100 100 100 92 62 13 5 5 5 5 12 50 29 30 5 6 24 5 5 5 8 16 48 100 100 100 100 100 100 100 100 100 100 100 100 100 100 100 100 100 100 100 100 100

GFSNGP_prec_cloud_111.txt.gz
Cloud_Cover
5 13 5 5 5 0 3 22 31 29 29 73 95 100 99 40 71 100 100 100 100 100 100 100 100 100 100 100 100 100 100 100 100 100 100 100 100 100 100 100 100 100 100 100
5 5 26 1 0 0 2 6 8 6 24 33 62 56 98 100 99 50 100 100 100 100 100 100 100 100 100 100 100 100 100 92 100 100 100 100 100 100 100 100 100 100 100 100
3 4 12 44 60 30 83 100 92 91 45 5 25 94 46 26 56 100 92 87 100 100 100 100 100 100 100 100 100 100 100 100 100 100 100 100 100 100 100 100 100 100 100 100
4 13 44 52 5 36 78 36 70 23 87 97 48 80 20 7 7 94 100 99 33 24 91 100 100 100 100 100 100 100 100 100 100 100 100 100 100 100 100 100 100 100 100 100
4 0 0 5 4 45 65 17 83 92 53 42 68 68 96 27 45 44 62 100 100 100 94 48 100 100 100 100 100 100 100 100 100 100 100 100 100 100 100 100 100 100 100 100
5 1 0 5 5 2 5 48 53 89 100 100 15 98 92 38 98 71 100 92 99 100 100 100 100 83 91 100 100 100 100 100 100 100 100 100 100 100 100 100 100 100 100 100
0 1 0 1 0 0 56 36 36 66 87 69 43 78 70 59 94 94 100 100 100 97 92 82 97 98 41 91 100 100 100 100 100 100 100 100 100 100 100 100 100 100 100 100
0 1 0 0 0 4 1 0 4 45 100 88 39 8 44 82 83 92 92 100 86 67 100 100 24 67 52 5 5 36 31 99 100 100 100 100 100 100 100 100 100 100 100 100
0 0 0 0 4 0 0 4 18 3 5 1 0 0 0 5 26 85 94 26 10 22 69 92 78 56 34 17 75 50 5 66 92 38 90 100 100 100 100 100 100 100 100 100
0 0 0 0 0 0 4 3 2 4 5 5 5 1 1 0 21 89 76 24 62 100 100 80 76 97 89 92 100 99 83 62 76 100 80 82 100 100 90 85 98 100 97 98
0 0 0 0 0 3 3 2 5 5 5 5 5 5 5 2 0 12 65 54 45 24 60 100 94 100 97 100 100 100 99 100 100 100 100 100 98 100 55 76 100 100 100 100
0 0 0 0 0 0 0 3 5 5 5 5 14 47 5 5 2 2 100 100 100 79 33 78 88 90 99 100 98 100 100 100 100 100 99 99 100 100 100 100 100 100 100 100
5 0 0 0 0 0 4 2 4 5 6 15 88 96 77 18 12 23 100 100 100 100 100 56 86 99 99 100 100 55 100 100 100 100 100 100 100 100 100 100 100 100 100 100
5 0 0 0 1 3 1 1 4 22 38 96 100 67 100 100 62 100 100 100 100 97 98 100 100 64 51 97 100 100 100 91 100 100 100 100 100 100 100 100 100 100 100 100
5 2 0 0 4 4 5 5 93 100 88 100 100 100 89 59 54 100 100 100 100 97 100 100 100 100 99 87 95 100 100 100 100 100 100 100 100 100 100 100 100 100 100 100
6 5 5 4 5 5 5 21 100 100 100 100 100 100 100 100 100 100 100 100 100 100 100 100 100 100 100 100 100 100 100 100 100 100 100 100 100 100 100 100 100 100 100 100
14 5 4 5 5 5 5 100 100 100 100 100 100 100 100 100 100 100 100 100 100 100 100 100 100 100 100 78 73 100 100 100 100 100 100 100 100 100 100 100 100 100 100 100
32 8 5 4 5 5 73 100 100 100 100 94 100 100 100 100 100 100 100 100 100 100 100 100 100 100 100 100 97 97 100 100 100 100 100 100 100 100 100 100 100 100 100 100
42 18 5 5 5 32 95 100 100 100 100 100 100 100 100 100 89 89 100 100 100 100 100 100 100 98 100 100 100 100 100 100 100 100 100 100 100 100 100 100 100 100 100 100
5 9 7 38 100 98 100 100 100 100 46 5 5 5 48 78 54 46 96 22 100 100 100 100 88 76 100 100 100 100 100 100 100 100 100 100 100 100 100 100 100 100 100 100
50 14 88 91 100 100 100 79 56 5 5 5 2 7 12 29 35 24 79 16 94 100 100 60 5 7 6 85 100 100 100 100 100 100 100 100 100 100 100 100 100 100 100 100
10 74 76 100 89 97 55 19 5 5 3 3 5 27 80 87 100 82 72 52 100 100 31 5 8 37 65 36 10 63 99 100 100 100 100 100 100 100 100 100 100 100 100 100
44 100 100 100 100 49 5 5 5 5 8 45 100 98 94 97 100 100 75 99 80 68 11 14 37 53 30 58 87 56 42 52 74 98 100 100 100 100 100 100 100 100 100 100
90 100 97 47 5 5 5 5 36 47 96 88 30 32 45 16 29 45 54 100 61 36 14 8 21 31 74 98 100 100 97 86 84 96 100 100 100 100 100 100 100 100 100 100
6 22 28 16 36 93 24 73 34 5 5 7 5 5 5 35 62 16 84 28 24 86 100 43 54 82 74 100 100 100 100 100 100 100 100 100 100 100 100 100 100 100 100 100
81 84 98 99 41 14 32 10 5 5 27 5 4 5 5 5 41 13 26 5 10 31 100 100 100 100 81 88 100 100 100 100 100 100 100 100 100 100 100 100 100 100 100 100
100 92 100 99 82 19 43 5 5 5 5 5 0 4 5 5 5 17 5 5 5 5 6 31 94 100 100 98 92 100 100 100 100 100 100 100 100 100 100 100 100 100 100 100

GFSNGP_prec_cloud_114.txt.gz
Cloud_Cover
1 5 5 4 0 0 5 3 12 8 14 94 74 86 96 58 22 93 38 63 100 100 100 100 100 100 100 100 100 100 100 100 100 100 100 100 100 100 100 100 100 100 100 100
5 0 0 0 0 0 2 6 5 5 88 100 99 5 25 99 100 26 72 49 100 100 100 100 100 100 100 100 100 100 100 100 100 100 100 100 100 100 100 100 100 100 100 100
4 0 5 5 5 5 5 91 57 81 9 5 15 74 63 5 38 65 45 6 83 100 100 100 100 100 100 100 100 100 100 100 100 100 100 100 100 100 100 100 100 100 100 100
4 5 14 5 0 5 5 5 5 5 61 74 100 100 52 5 5 5 41 100 93 94 100 100 100 100 100 100 100 100 100 100 100 100 100 100 100 100 100 100 100 100 100 100
5 4 0 0 0 3 5 1 5 8 28 16 20 100 97 22 5 5 5 5 21 89 100 98 100 100 100 100 100 100 100 100 100 100 100 100 100 100 100 100 100 100 100 100
5 4 0 0 0 0 0 14 3 4 5 5 5 35 98 12 35 6 5 5 5 5 74 94 93 67 99 94 92 100 100 100 100 100 100 100 100 100 100 100 100 100 100 100
4 3 0 0 0 0 4 1 0 0 5 10 39 75 6 88 34 45 10 94 5 50 25 31 100 72 71 100 95 99 100 100 100 100 100 100 100 100 100 100 100 100 100 100
0 2 2 0 0 2 0 0 1 5 3 5 4 4 5 5 5 97 9 5 17 5 9 5 5 45 100 100 92 100 97 100 99 100 100 100 100 100 100 100 100 100 100 100
0 0 0 0 0 0 0 0 2 4 5 5 0 0 0 1 0 6 100 5 5 21 17 19 5 70 5 12 30 61 89 100 80 92 70 100 100 100 100 100 100 100 100 100
0 0 0 0 0 0 0 0 0 0 0 0 2 2 5 0 0 0 29 91 64 100 63 7 5 5 5 6 24 25 51 44 84 100 100 100 100 100 100 100 100 100 100 100
5 5 5 2 0 0 0 0 0 0 3 2 5 5 5 3 5 4 0 32 100 98 8 14 5 8 5 95 100 100 100 99 94 100 100 100 100 100 100 100 100 100 100 100
5 5 5 5 4 0 0 0 0 4 0 5 5 5 69 6 5 5 0 6 100 100 100 98 100 59 69 24 100 78 26 73 95 100 100 100 100 100 100 100 100 100 100 100
12 5 5 10 5 0 0 0 0 0 4 5 7 98 100 99 12 27 5 60 81 100 100 100 100 100 100 100 86 89 100 94 99 100 100 100 100 100 100 100 100 100 100 100
37 5 5 5 5 1 0 0 0 2 1 5 92 100 100 100 100 78 98 100 82 100 100 100 100 100 100 99 88 100 100 99 100 100 100 100 100 100 100 100 100 100 100 100
47 7 5 5 5 5 0 5 5 8 96 100 100 100 100 60 71 100 100 100 100 100 100 100 100 100 100 100 96 83 90 80 65 86 100 100 100 100 100 100 100 100 100 100
53 7 15 5 5 5 5 5 13 100 100 100 100 100 100 99 100 100 100 100 100 100 100 100 100 100 100 100 100 100 100 100 100 100 99 100 100 100 100 100 100 100 100 100
66 18 33 9 5 5 5 5 40 100 100 100 100 91 100 100 100 100 100 100 100 100 100 100 100 100 100 100 100 100 100 97 97 100 100 100 100 100 100 100 100 100 100 100
90 15 65 12 5 5 5 10 89 100 100 100 100 100 100 100 99 84 100 100 100 100 94 91 100 100 100 100 99 99 100 100 100 100 100 100 100 100 100 100 100 100 100 100
100 30 55 39 44 7 5 73 100 100 100 100 100 89 88 99 100 99 86 98 62 52 59 97 100 100 99 85 80 89 100 100 100 100 100 100 100 100 100 100 100 100 100 100
80 67 65 79 49 46 53 100 100 100 100 17 5 5 5 5 5 5 4 5 5 70 7 36 98 71 17 5 12 77 96 100 100 100 100 100 100 100 100 100 100 100 100 100
65 55 77 78 77 99 94 100 100 92 5 5 0 5 5 5 5 8 13 14 6 12 5 55 11 5 5 9 64 74 67 71 94 100 100 100 100 100 100 100 100 100 100 100
44 42 85 68 89 74 68 11 6 5 5 0 5 5 24 64 91 90 86 68 20 18 39 8 5 5 6 5 5 62 92 86 83 92 100 100 100 100 100 100 100 100 100 100
62 57 63 92 100 100 37 5 5 7 5 5 11 7 67 14 14 11 9 5 5 10 36 56 5 7 10 5 20 80 91 93 98 96 40 25 88 93 100 100 100 100 100 100
100 100 65 100 100 82 5 5 8 67 84 81 57 29 22 5 5 5 5 5 5 6 33 93 83 56 79 51 26 59 88 90 90 89 94 61 88 83 100 100 100 100 100 100
100 100 100 81 66 57 53 13 44 58 60 89 5 5 5 5 5 5 5 5 5 5 63 100 100 100 100 99 85 93 68 78 87 100 100 99 86 97 100 100 100 100 100 100
100 100 98 99 100 50 18 12 17 86 48 5 5 5 5 5 5 5 5 5 5 5 17 9 76 100 100 100 99 93 96 92 89 99 98 100 100 100 100 100 100 100 100 100
100 100 100 100 83 78 40 5 9 50 5 5 5 5 5 5 0 2 2 5 0 4 5 5 5 10 85 100 100 100 100 94 99 97 98 100 100 100 100 100 100 100 100 100

GFSNGP_prec_cloud_117.txt.gz
Cloud_Cover
0 1 0 0 0 0 2 2 18 5 70 27 5 46 97 12 7 5 5 6 81 99 100 100 100 100 100 100 100 100 100 100 100 100 100 100 100 100 100 100 100 100 100 100
50 0 2 0 0 0 5 5 5 5 23 5 5 5 5 5 0 5 5 5 88 100 100 100 100 100 100 100 100 100 100 100 100 100 100 100 100 100 100 100 100 100 100 100
4 0 5 3 0 0 5 5 5 5 5 5 44 64 5 5 5 5 5 5 5 5 63 98 82 100 100 100 100 100 100 100 100 100 100 100 100 100 100 100 100 100 100 100
61 5 1 0 0 1 0 0 0 0 4 44 87 100 8 5 5 5 5 5 5 5 5 39 47 69 100 100 100 100 100 100 100 100 100 100 100 100 100 100 100 100 100 100
5 30 0 0 0 0 0 0 0 0 1 5 6 11 10 5 5 4 2 5 5 5 5 5 5 5 6 100 100 100 100 100 100 100 100 100 100 100 100 100 100 100 100 100
5 5 1 0 0 0 0 4 0 0 1 5 5 39 5 15 5 5 5 5 2 3 1 4 3 47 24 97 55 100 100 100 100 100 100 100 100 100 100 100 100 100 100 100
38 4 0 0 0 0 0 0 0 0 0 0 2 3 4 5 1 5 5 5 5 5 5 5 5 2 3 62 100 99 100 84 100 100 100 100 100 100 100 100 100 100 100 100
3 4 4 0 0 0 0 0 0 0 0 0 0 1 3 1 0 1 5 5 5 5 5 3 4 0 1 5 14 100 100 100 100 100 100 100 100 100 100 100 100 100 100 100
5 0 0 5 5 5 1 0 0 0 0 0 1 0 0 0 0 0 0 2 5 5 5 5 5 5 5 3 1 5 2 8 26 79 100 100 100 100 100 100 100 100 100 100
5 5 5 5 5 5 5 5 0 0 2 0 0 0 0 0 0 0 0 0 4 24 4 5 5 5 3 0 0 0 0 4 4 28 100 100 100 100 100 100 100 100 100 100
8 8 5 5 5 5 5 5 5 0 0 0 0 0 0 4 0 0 2 0 4 100 44 2 0 0 0 3 5 5 1 5 93 100 100 100 100 100 100 100 100 100 100 100
63 10 7 5 5 5 5 5 5 1 0 0 0 3 23 56 5 5 5 3 4 17 100 100 62 16 5 3 6 5 51 42 93 100 100 100 100 100 100 100 100 100 100 100
34 5 20 33 5 54 6 5 5 5 2 0 0 15 99 100 35 18 5 5 88 60 97 100 100 99 98 96 100 100 100 100 100 100 100 100 100 100 100 100 100 100 100 100
60 8 8 23 28 69 17 5 5 5 3 1 5 56 100 100 100 100 90 39 100 100 100 100 100 100 100 100 100 100 88 99 96 94 100 100 100 100 100 100 100 100 100 100
60 38 31 8 40 71 26 5 6 5 5 29 10 16 94 100 25 88 100 100 100 100 100 100 100 100 100 100 100 100 100 100 100 87 38 96 100 100 100 100 100 100 100 100
60 47 39 33 13 23 38 5 10 5 35 100 100 82 15 82 99 100 100 85 100 99 100 100 100 100 100 100 100 100 100 100 100 100 100 100 100 100 100 100 100 100 100 100
68 43 54 54 36 5 56 40 44 6 58 100 100 100 100 100 100 79 76 76 72 90 100 100 100 100 100 100 100 100 100 100 100 100 100 100 100 100 100 100 100 100 100 100
37 24 32 66 43 50 11 58 100 93 97 100 100 100 100 100 100 100 100 100 99 81 67 42 50 67 100 91 30 16 75 92 91 94 100 100 100 100 100 100 100 100 100 100
74 9 66 65 26 61 20 87 100 99 100 100 100 97 63 46 83 57 19 5 5 8 5 5 14 98 100 100 88 12 6 8 10 36 68 100 100 100 100 100 100 100 100 100
100 8 58 63 66 56 64 64 86 99 100 100 55 5 18 12 5 5 5 25 5 2 5 5 5 30 59 12 6 56 68 81 96 87 76 85 98 100 100 100 100 100 100 100
100 67 39 78 78 79 99 100 77 100 100 80 6 13 5 5 5 7 25 48 7 10 6 12 8 5 5 5 5 5 5 5 48 74 87 99 100 100 100 100 100 100 100 100
100 100 96 83 16 76 83 100 100 100 81 26 39 5 5 5 22 37 25 5 5 5 5 5 34 23 5 5 8 8 38 76 82 81 79 38 80 93 80 95 98 100 100 100
100 100 100 100 44 71 77 81 97 95 51 6 5 5 5 10 18 37 10 8 5 5 5 5 53 70 66 58 63 82 72 87 85 78 69 49 100 100 99 77 93 88 100 100
55 100 100 100 100 100 100 100 99 47 42 29 23 43 20 5 5 5 5 35 5 5 5 7 71 100 100 100 100 100 100 88 98 85 78 72 87 100 100 80 99 100 99 100
90 100 100 100 100 100 100 100 100 100 18 18 18 9 5 5 5 5 6 17 5 8 5 5 14 15 86 100 100 100 100 99 96 94 78 77 88 87 88 84 100 100 99 100
61 86 98 97 99 100 100 100 100 100 10 31 19 6 5 5 5 5 32 13 5 6 5 5 20 5 5 41 97 100 100 100 100 100 97 82 94 99 92 94 92 100 100 100
66 47 74 62 98 100 100 100 100 100 100 40 7 5 5 5 5 5 36 25 5 5 5 5 5 5 5 8 36 91 100 100 100 100 99 94 92 96 99 100 100 100 100 100

GFSNGP_prec_cloud_120.txt.gz
Cloud_Cover
0 0 0 1 0 0 2 4 5 1 5 5 5 5 18 12 13 47 23 98 74 100 83 43 86 51 100 100 100 100 100 100 100 100 100 100 100 100 100 100 100 100 100 100
5 0 5 0 0 0 3 3 2 5 4 5 5 5 5 5 3 5 13 6 26 34 97 41 99 36 88 100 100 100 100 100 100 100 100 100 100 100 100 100 100 100 100 100
4 5 3 0 0 0 0 1 0 5 0 5 5 36 5 5 5 5 3 10 25 77 10 6 83 99 100 100 99 100 100 100 100 100 100 100 100 100 100 100 100 100 100 100
17 4 0 0 0 0 0 0 0 0 0 4 5 5 5 5 5 5 5 1 5 20 90 72 12 14 96 91 92 91 100 100 100 100 100 100 100 100 100 100 100 100 100 100
4 34 0 0 0 0 1 0 0 0 0 4 3 5 5 5 5 5 5 5 1 0 1 3 19 55 80 99 97 100 100 100 100 100 100 100 100 100 100 100 100 100 100 100
36 2 0 0 0 0 0 0 0 0 0 0 5 94 4 5 5 5 5 5 5 3 0 0 0 0 0 3 74 100 100 100 100 100 100 100 100 100 100 100 100 100 100 100
52 28 1 3 0 1 0 0 0 0 0 0 0 0 0 2 3 0 5 4 2 5 5 5 1 0 0 0 0 4 5 86 100 100 100 100 100 100 100 100 100 100 100 100
5 5 4 3 5 5 5 0 0 0 0 0 0 0 0 0 0 0 0 2 4 0 2 5 2 2 0 0 0 0 0 5 95 93 100 99 99 100 100 100 100 100 100 100
5 5 5 5 5 5 5 5 5 0 0 0 0 0 0 0 0 0 0 0 1 5 5 3 5 2 0 0 0 0 3 3 4 3 10 100 100 100 100 100 100 100 100 100
68 12 5 5 5 5 5 5 5 2 0 0 0 2 0 0 0 0 0 0 0 3 5 5 5 4 0 0 0 0 0 0 2 43 69 96 99 100 100 100 100 100 100 100
63 58 11 5 5 5 8 5 5 5 4 0 0 0 0 0 0 0 0 0 0 2 5 5 5 5 5 4 4 3 5 5 50 100 100 86 99 100 100 100 100 100 100 100
14 61 38 11 5 5 32 62 8 5 5 5 5 4 5 2 4 5 1 2 0 0 4 5 17 95 96 74 5 5 6 95 96 100 100 100 100 100 100 99 100 100 97 100
34 26 74 6 53 5 5 48 26 5 5 5 5 5 5 5 55 6 5 5 4 2 8 5 11 100 100 100 100 38 8 32 67 100 100 100 100 100 100 100 100 100 100 100
42 8 6 30 18 5 5 27 25 5 27 38 18 5 5 5 97 100 100 76 8 12 79 100 62 99 100 100 100 100 100 100 99 100 100 100 76 79 100 100 100 100 100 100
7 25 5 6 5 5 6 24 33 6 21 63 41 7 5 16 15 15 32 86 97 53 96 73 99 98 100 100 100 100 100 100 100 98 100 100 100 100 100 100 100 100 100 100
5 37 6 5 5 5 5 12 23 14 5 37 52 71 24 11 5 8 76 92 63 59 91 98 100 100 100 100 100 100 100 100 98 100 100 100 100 100 100 100 100 100 100 100
97 18 5 20 5 5 5 5 5 11 5 9 61 100 100 100 100 100 73 97 100 99 100 99 37 65 65 63 100 68 36 47 12 8 69 72 100 100 100 100 100 100 100 100
97 55 7 5 5 5 5 5 5 5 47 6 99 100 100 100 100 100 100 100 94 43 5 5 5 39 100 100 100 62 19 6 5 5 34 100 100 100 100 100 100 100 100 100
100 100 85 5 5 5 5 5 5 23 41 29 100 100 100 100 70 56 46 6 8 7 4 4 5 5 5 46 100 100 45 8 5 5 9 42 99 100 100 100 100 100 100 100
100 100 100 76 49 5 5 4 5 17 18 16 100 100 100 30 5 20 5 4 5 5 5 5 5 5 5 5 22 23 23 5 6 5 5 7 53 99 100 99 99 100 100 100
100 100 100 100 91 30 5 2 5 5 5 90 100 68 71 22 27 63 11 5 5 5 5 5 5 5 5 5 5 12 87 5 5 12 12 15 41 40 13 7 16 98 87 79
100 100 100 100 100 100 6 5 5 5 40 100 100 99 86 26 60 76 11 5 5 5 5 5 5 7 40 53 53 50 50 84 77 80 74 69 40 63 45 42 60 34 74 85
100 100 100 100 100 100 84 5 12 73 98 100 100 93 82 91 49 33 5 5 5 5 5 5 13 35 100 100 100 100 100 100 100 96 93 88 66 66 46 55 63 99 84 56
100 100 100 100 100 100 100 37 59 99 100 100 100 41 25 99 18 5 5 5 5 5 5 5 6 12 7 5 10 94 100 100 100 100 89 86 70 64 72 72 67 80 100 97
100 95 100 100 100 100 100 100 78 15 70 100 95 100 100 100 99 30 63 50 5 5 5 5 5 5 5 5 5 14 80 100 100 100 100 96 88 75 60 74 56 64 87 100
100 100 100 100 98 100 100 100 96 59 41 94 100 100 100 100 100 69 77 13 5 5 29 6 5 5 5 5 15 6 44 98 100 100 100 100 100 100 94 82 84 61 82 100
100 100 100 100 100 100 100 100 69 57 66 100 100 100 100 73 79 93 72 42 12 29 100 8 5 5 5 31 11 5 5 5 20 57 100 100 100 98 100 100 94 87 91 96

GFSNGP_prec_cloud_123.txt.gz
Cloud_Cover
0 0 0 0 0 0 2 5 5 0 5 5 5 5 6 4 83 100 99 84 100 100 84 95 100 100 100 100 100 99 100 100 100 100 100 100 100 100 100 100 100 100 100 100
4 0 4 5 0 0 0 0 0 3 4 5 5 5 5 9 13 100 100 100 100 48 100 100 66 98 100 99 100 56 53 70 100 100 100 100 100 100 100 100 100 100 100 100
0 4 1 0 0 0 0 0 0 5 0 5 5 5 5 5 5 5 12 26 95 43 88 96 100 97 100 58 70 92 99 67 100 100 100 100 100 100 100 100 100 100 100 100
4 2 0 0 0 0 0 0 0 0 0 0 5 5 5 5 5 4 0 6 95 10 39 73 61 83 93 83 88 54 54 91 100 100 100 100 100 100 100 100 100 100 100 100
1 28 0 0 0 0 0 0 0 0 0 0 5 5 5 3 5 5 5 4 0 0 0 3 52 100 63 97 98 100 100 99 83 97 100 100 100 100 100 100 100 100 100 100
42 5 5 0 0 0 0 0 0 0 0 0 0 51 0 0 4 5 0 0 5 1 0 0 0 0 0 0 4 86 98 100 100 100 100 100 100 100 100 100 100 100 100 100
47 23 5 5 5 1 0 0 0 0 0 0 0 0 0 0 2 3 0 0 0 0 0 0 0 0 0 0 0 2 0 0 8 68 100 100 100 100 100 100 100 100 100 100
48 13 5 5 5 5 4 0 0 0 0 0 0 0 0 0 0 0 0 0 0 4 0 2 0 0 0 0 0 0 0 0 0 0 0 2 64 100 100 100 100 100 100 100
13 32 5 5 6 5 5 5 1 0 0 0 0 0 0 0 0 0 0 0 0 0 5 5 0 0 0 0 0 0 0 0 0 0 0 0 0 0 4 98 96 100 100 100
5 19 5 5 10 7 5 5 5 5 5 1 0 0 0 0 0 0 0 0 0 0 0 14 5 5 2 0 0 0 0 0 0 0 7 31 4 26 96 100 100 100 100 100
54 13 13 5 5 5 10 5 5 5 5 5 5 5 4 1 0 0 0 0 0 0 0 3 4 4 5 5 5 5 5 5 4 11 88 93 100 75 40 94 90 100 100 100
100 20 90 5 2 5 5 6 5 5 5 5 6 9 5 5 5 5 5 3 0 0 0 0 5 5 5 35 77 31 5 5 5 6 33 100 100 66 84 89 100 100 100 100
100 72 53 87 5 5 0 5 5 5 5 5 5 5 5 10 20 5 7 5 5 5 5 4 35 16 5 29 100 100 98 86 74 56 82 96 90 88 97 25 88 100 100 100
78 89 7 45 100 21 5 0 0 5 5 5 5 5 5 5 6 5 6 36 13 6 50 37 90 100 100 86 83 100 100 100 100 100 100 100 100 100 100 100 100 99 92 100
72 56 71 88 93 64 5 5 0 3 5 5 5 5 5 29 26 6 5 5 49 95 100 100 91 74 94 100 100 100 100 100 100 92 100 100 100 100 100 100 100 100 100 100
7 96 100 86 7 21 73 57 5 3 5 5 5 1 3 31 56 43 5 7 42 30 48 44 25 94 17 47 56 87 100 100 45 6 6 10 53 80 100 100 100 100 100 100
100 100 100 47 5 15 100 17 32 5 5 5 5 1 5 7 81 94 98 58 100 100 100 100 99 20 20 76 98 100 92 21 18 5 5 77 100 100 100 100 100 100 100 100
65 100 100 100 5 5 100 23 44 59 7 5 2 5 5 83 100 100 100 100 100 74 23 16 6 5 5 5 40 100 100 80 10 5 5 5 19 97 100 100 100 100 100 100
1 57 100 100 90 5 82 42 55 10 42 5 5 5 18 100 100 100 100 78 12 34 34 46 37 5 5 5 5 84 100 97 16 5 5 6 14 5 74 94 99 100 100 100
0 0 63 100 100 98 25 5 5 32 15 14 5 5 77 100 100 35 6 28 82 55 14 5 5 5 5 5 5 8 61 10 5 5 5 6 18 15 9 11 28 8 6 80
5 0 5 87 100 100 100 17 21 96 6 25 23 37 97 99 11 5 5 5 64 100 93 91 5 5 5 5 9 11 8 17 30 17 37 29 43 26 20 24 23 43 89 72
5 5 4 75 100 100 100 86 78 100 100 49 11 57 100 62 56 10 5 7 94 85 100 51 7 10 20 73 58 77 76 88 15 42 99 100 86 84 60 12 35 18 31 37
72 5 5 12 100 100 100 97 100 100 100 100 87 100 44 80 100 99 75 100 100 100 100 5 18 9 20 25 77 10 22 18 39 35 100 100 100 98 94 82 58 22 18 38
57 10 5 5 25 100 100 100 100 71 97 100 100 98 62 99 100 100 100 100 100 100 95 42 5 5 5 84 61 50 12 12 38 93 100 100 100 100 100 95 77 53 46 63
5 5 5 5 5 85 100 100 100 100 98 100 100 100 100 100 100 100 100 100 100 100 96 34 5 5 7 98 35 52 59 26 64 89 100 99 100 100 100 99 86 75 73 89
26 5 5 5 5 19 100 100 100 100 100 100 100 100 100 100 100 100 100 100 100 100 46 5 5 5 11 29 35 10 16 20 21 5 50 82 74 86 96 100 98 100 94 87
15 13 32 17 14 28 94 100 100 100 100 100 98 100 100 100 100 100 100 100 100 80 5 5 6 18 7 16 5 5 44 10 13 15 6 14 52 93 95 92 98 99 97 100

GFSNGP_prec_cloud_126.txt.gz
Cloud_Cover
0 0 3 0 0 0 3 5 4 0 5 5 4 1 5 89 74 39 100 100 100 100 100 100 100 100 100 96 100 100 100 100 100 100 100 100 100 100 100 100 100 100 100 100
5 0 4 5 0 0 0 0 0 0 5 0 5 0 0 59 43 84 94 93 100 100 100 100 100 88 100 74 66 100 100 100 100 100 100 100 100 100 100 100 100 100 100 100
0 0 3 0 0 0 0 0 0 5 0 0 3 5 5 3 8 30 98 74 100 100 100 100 100 99 89 97 30 56 12 66 59 78 99 95 100 100 100 100 100 100 100 100
4 1 0 0 0 0 0 0 0 0 0 0 0 0 4 5 1 0 1 23 100 86 68 98 98 96 100 100 99 71 73 100 98 99 93 94 98 87 100 100 100 100 100 100
1 26 1 0 0 0 0 0 0 0 0 0 0 0 0 0 0 0 0 0 0 15 99 96 97 100 100 100 100 100 100 100 99 100 100 100 100 100 100 100 100 100 100 100
40 5 0 0 0 0 0 0 0 0 0 0 3 28 0 0 0 0 0 0 0 0 0 0 0 0 0 1 25 92 85 77 98 100 100 100 100 100 100 100 100 100 100 100
43 27 23 4 1 5 0 0 0 0 0 0 0 0 0 0 0 0 0 0 0 0 0 0 0 0 0 0 4 11 0 0 0 0 0 0 40 87 100 100 100 100 100 100
29 66 92 62 11 4 4 3 0 0 0 0 0 0 0 0 0 0 0 0 0 0 0 2 0 0 0 0 0 0 0 0 0 0 0 0 0 0 1 31 98 74 70 89
5 5 12 64 100 36 5 5 5 0 0 0 0 0 0 0 0 0 0 0 0 0 0 0 5 5 0 0 3 0 0 0 0 3 3 0 0 0 0 2 12 59 64 82
100 29 97 16 15 89 11 5 5 5 5 0 0 0 0 0 0 0 0 0 0 0 0 0 2 5 5 5 3 0 2 0 0 4 5 5 2 5 17 36 31 71 100 100
100 78 98 87 6 5 7 16 10 5 5 5 4 0 0 0 0 0 0 0 0 0 0 0 0 4 5 5 5 5 5 5 5 5 5 5 4 5 12 6 68 100 100 100
95 100 98 100 46 5 27 93 6 5 5 5 5 5 5 2 1 4 0 3 0 0 1 0 0 2 4 5 5 5 5 5 7 5 5 5 5 5 5 5 5 5 22 88
0 43 100 100 90 16 100 8 5 5 5 5 5 5 5 5 5 5 5 5 5 5 5 0 0 0 99 87 32 12 19 23 54 85 83 93 77 75 88 7 4 7 42 56
0 0 52 98 100 81 96 52 5 5 5 5 5 1 5 5 5 5 5 6 5 5 6 20 6 5 66 100 100 100 100 100 100 100 97 25 40 56 35 76 100 99 100 100
0 0 0 16 100 78 10 12 5 5 5 5 3 3 5 5 4 5 5 7 24 7 37 100 100 98 63 49 90 68 67 96 100 94 8 8 8 36 92 100 100 100 100 100
20 0 3 3 98 100 49 12 38 5 5 5 5 0 0 0 0 0 0 5 5 40 100 100 100 85 57 40 37 42 50 92 28 5 5 5 25 31 18 69 78 84 99 100
0 5 1 0 0 95 100 55 69 28 5 68 13 5 5 5 5 5 5 5 9 89 100 100 100 97 24 91 100 99 100 100 74 9 5 5 5 5 5 13 60 75 100 100
1 0 0 0 0 1 89 100 100 86 42 9 6 13 14 24 7 8 29 98 100 100 96 32 5 8 44 99 42 38 39 100 100 33 5 5 5 5 5 5 5 17 6 5
3 0 2 24 1 0 1 99 100 100 96 90 93 100 12 91 46 61 99 100 100 84 5 5 5 64 100 100 100 99 41 99 100 27 5 8 9 5 10 5 5 5 5 5
5 12 99 9 5 3 0 1 100 100 100 100 100 100 100 95 38 99 100 98 26 6 5 5 17 74 100 100 99 100 95 59 26 8 5 33 68 64 60 26 17 8 21 54
16 5 5 5 5 5 2 0 6 100 100 100 100 100 100 100 100 100 100 90 27 61 77 84 100 100 100 100 100 78 86 77 96 99 86 68 31 79 100 99 90 69 33 19
14 15 5 0 0 54 88 1 0 48 100 100 100 100 100 100 100 100 97 72 86 87 100 100 100 100 100 100 99 82 65 21 57 70 88 72 41 72 100 100 99 96 74 41
5 9 5 0 0 2 69 6 0 2 88 100 100 100 100 100 100 100 100 100 100 99 100 100 100 100 100 100 77 66 59 69 40 32 53 17 88 100 100 100 99 100 96 81
5 5 5 5 0 1 8 6 0 2 5 85 100 100 100 100 100 100 100 100 100 100 100 100 100 100 100 96 82 74 78 81 74 59 94 81 50 95 83 87 99 100 99 93
5 8 20 12 0 0 2 18 38 5 5 64 100 100 100 100 100 100 100 100 100 100 100 100 100 100 100 95 60 81 89 87 78 57 26 5 58 80 85 65 89 100 100 95
18 14 5 5 3 0 6 5 38 6 5 5 42 100 100 100 100 100 100 100 100 100 100 100 100 98 98 53 33 52 27 59 28 33 8 16 64 55 61 91 100 86 85 98
27 25 53 20 8 5 6 6 6 35 7 5 79 99 100 100 100 100 100 100 100 100 100 100 94 100 78 30 63 10 5 16 26 49 56 29 52 92 100 100 100 100 100 99

GFSNGP_prec_cloud_129.txt.gz
Cloud_Cover
0 0 0 5 1 0 5 4 5 0 5 0 0 0 1 96 30 97 82 86 100 100 100 49 76 86 100 100 100 97 100 100 100 100 100 100 100 100 100 100 100 100 100 100
5 0 4 5 0 0 0 0 5 4 4 0 0 0 0 1 6 14 84 93 100 100 100 100 5 48 42 100 44 100 98 96 100 100 98 100 100 100 100 100 100 100 100 100
5 7 4 0 0 0 0 0 0 4 0 0 0 0 0 0 3 12 5 65 65 64 46 95 100 46 60 84 99 74 34 27 12 100 100 96 96 100 100 100 100 100 100 100
5 5 73 36 0 0 0 0 0 0 0 0 0 0 0 0 0 0 50 100 100 100 100 100 96 100 100 94 86 100 100 100 100 100 70 8 23 80 100 100 100 100 100 100
5 5 5 62 85 4 0 0 0 0 0 0 0 0 0 0 0 0 0 0 8 13 14 54 100 100 96 97 100 100 100 100 100 100 100 100 100 100 91 100 100 100 100 100
91 5 5 5 15 100 5 0 0 0 0 0 0 3 2 0 0 0 0 0 0 0 0 0 0 0 0 3 26 93 100 100 100 100 100 98 80 100 100 100 100 100 100 100
100 97 33 5 5 5 80 24 1 0 0 0 0 0 0 0 0 0 0 0 0 0 0 0 0 0 0 0 0 11 0 0 0 0 0 0 0 1 0 23 35 88 94 95
100 100 100 93 10 5 6 45 48 5 1 0 0 0 0 0 0 0 0 0 0 0 0 0 0 0 0 0 0 0 0 0 0 0 0 0 0 0 0 0 0 0 1 2
4 54 50 100 77 67 5 6 41 66 7 4 4 0 0 0 0 0 0 0 0 0 0 0 0 0 0 0 0 0 0 0 0 5 5 0 1 1 0 5 25 27 27 12
0 0 0 77 100 80 60 5 6 5 6 23 5 4 5 5 5 5 4 0 0 0 0 0 0 0 0 0 0 0 0 0 0 0 0 0 0 0 1 83 100 100 100 100
0 0 0 8 100 100 100 74 63 9 5 5 5 5 0 1 4 5 5 5 5 3 1 0 0 0 0 2 4 2 0 0 0 0 0 0 0 0 3 4 40 44 48 87
3 0 0 0 56 100 100 100 100 97 21 5 5 5 5 0 0 1 5 5 5 17 22 5 5 4 1 4 5 5 5 5 4 4 3 14 1 0 3 0 4 4 12 83
0 0 0 0 5 5 5 98 100 100 100 5 5 5 5 1 0 0 0 4 5 5 46 61 18 5 63 99 98 88 86 95 100 100 100 100 61 95 100 7 0 29 100 100
0 0 4 0 0 0 6 34 3 89 100 100 42 74 10 64 4 0 0 5 5 4 5 9 60 34 28 7 79 100 100 100 100 100 100 87 29 84 67 100 94 5 5 9
0 0 4 4 0 0 0 0 29 7 26 100 94 100 100 93 9 14 4 3 4 8 9 24 100 100 97 82 59 82 50 46 50 97 32 22 8 11 9 5 5 5 5 5
2 5 5 5 0 0 0 0 0 4 4 1 59 92 100 72 66 100 35 8 36 43 5 41 100 100 100 100 98 62 99 100 100 68 63 28 67 47 5 5 5 5 5 5
50 21 5 5 5 0 0 1 0 0 4 98 8 8 23 100 100 100 72 98 77 51 32 100 100 100 100 100 100 99 68 28 100 100 78 90 100 15 5 5 5 5 5 5
90 5 5 5 5 3 0 4 4 0 0 0 5 5 49 100 100 75 99 100 100 100 100 100 97 47 5 5 5 5 5 49 64 99 34 34 100 5 7 13 6 5 5 5
81 5 4 5 5 4 1 0 0 2 4 0 0 8 89 50 100 100 100 100 100 100 100 99 94 73 31 5 5 5 5 5 94 100 35 59 70 7 11 19 28 28 21 17
93 21 59 16 11 0 0 0 0 0 0 0 0 0 0 90 86 100 100 100 100 100 100 100 100 100 100 99 87 61 61 88 62 91 96 100 100 95 37 11 10 44 94 93
100 91 98 28 6 5 2 0 5 0 0 0 0 0 0 5 92 100 100 100 100 100 100 100 100 100 100 100 100 100 100 100 100 100 100 90 87 74 19 8 58 100 94 96
76 100 86 5 0 15 8 5 4 5 0 0 3 5 2 5 51 94 100 100 100 100 100 100 100 100 100 100 100 100 100 100 100 100 60 48 17 49 65 33 100 100 97 96
5 97 31 12 9 92 19 5 5 5 0 0 1 5 10 4 7 99 100 100 100 100 100 100 100 100 100 100 100 100 100 100 99 79 85 80 73 73 79 36 76 97 96 97
72 100 22 16 6 98 82 5 28 8 2 0 2 2 5 5 10 94 100 100 100 100 100 100 100 100 100 100 100 100 100 100 76 88 95 56 10 8 58 73 94 94 94 82
100 95 8 8 5 87 98 70 53 50 7 5 5 5 5 5 7 21 98 100 100 100 100 100 100 100 100 100 100 100 100 76 77 90 93 23 50 68 56 28 43 85 94 100
100 100 90 15 69 88 45 31 37 61 29 24 10 41 76 24 10 29 41 100 99 100 100 100 100 100 100 100 100 100 94 93 82 97 70 53 67 59 56 67 97 100 100 99
100 86 68 92 100 97 15 29 28 46 22 5 31 24 23 28 37 18 90 100 100 100 100 100 100 100 100 100 100 100 100 96 98 100 80 29 56 72 84 94 100 100 100 84

GFSNGP_prec_cloud_132.txt.gz
Cloud_Cover
0 0 0 0 0 0 3 0 0 0 0 0 0 0 5 11 10 7 91 49 61 27 6 65 73 99 100 100 100 100 100 100 100 100 100 100 100 100 100 100 100 100 100 100
5 0 0 0 0 0 0 0 0 0 0 0 0 0 0 5 5 5 5 5 6 88 68 50 5 60 89 37 100 100 100 99 100 100 100 100 100 100 100 100 100 100 100 100
5 5 5 0 0 0 0 0 0 0 0 0 0 0 0 0 1 22 17 8 38 58 99 100 100 97 93 70 73 100 100 100 100 100 95 100 100 100 100 100 100 100 100 100
49 70 74 6 2 0 0 0 0 0 0 0 0 0 0 0 0 0 1 82 72 76 89 100 99 100 100 99 99 92 100 100 16 87 100 100 100 100 100 100 100 100 100 100
5 7 96 99 72 5 5 1 0 0 0 0 0 0 0 0 0 0 0 0 2 63 100 100 100 100 100 94 74 100 89 57 98 93 95 72 87 97 100 100 100 100 100 100
0 0 34 100 70 92 6 5 5 0 0 0 0 0 0 0 0 0 0 0 0 0 0 0 0 0 0 1 3 18 100 100 100 67 100 95 95 100 71 17 95 100 100 100
0 0 0 5 95 100 94 49 11 4 1 0 0 0 0 0 0 0 0 0 0 0 0 0 0 0 0 0 0 0 11 96 100 100 100 98 100 94 54 69 50 2 7 3
0 0 0 0 4 29 100 100 94 63 8 5 0 0 0 3 0 0 0 0 0 0 0 0 0 0 0 0 0 0 0 0 0 0 0 1 2 2 3 0 0 0 0 0
0 5 2 0 0 3 57 100 100 100 100 72 5 4 0 0 5 5 4 0 0 0 0 0 0 0 0 0 0 0 0 0 0 0 0 0 0 0 0 0 0 6 36 83
0 5 5 0 0 0 1 12 97 100 100 100 98 64 5 4 0 0 4 5 5 1 0 0 0 0 0 3 3 2 0 0 0 0 0 0 0 0 0 2 7 22 41 67
76 0 5 1 0 0 0 1 5 45 100 100 100 82 61 20 5 5 1 2 5 4 5 5 5 3 0 4 2 5 5 3 0 0 0 0 0 0 0 17 19 24 32 76
26 1 3 2 0 0 0 0 0 2 5 40 100 100 100 100 77 16 19 5 1 5 5 5 17 23 5 5 4 5 5 5 5 16 26 52 51 31 13 1 2 2 100 100
9 10 34 4 5 0 1 2 5 5 0 0 6 90 100 100 100 100 99 37 5 5 0 5 5 5 35 50 31 98 91 94 100 100 76 87 67 47 51 3 4 5 5 4
21 67 85 6 99 84 20 5 0 0 0 0 0 4 5 80 100 100 92 100 84 6 5 5 5 5 5 8 13 51 42 100 100 100 65 76 30 53 6 5 5 4 5 5
28 32 76 100 100 100 89 56 14 4 0 0 0 0 0 4 23 42 99 100 100 100 82 11 14 40 69 43 19 57 38 67 58 84 98 65 26 5 5 5 5 5 5 16
4 85 61 13 86 70 100 100 100 22 5 4 0 0 0 0 1 43 64 100 100 100 100 99 25 8 100 100 100 100 99 100 100 100 99 41 5 5 5 5 5 5 5 6
1 13 96 100 11 5 5 8 95 33 5 5 3 0 0 0 0 0 1 5 5 82 100 100 100 100 100 100 100 100 100 98 19 97 96 9 5 5 22 31 37 74 6 32
3 2 37 85 15 4 1 1 13 66 28 0 0 0 0 0 0 0 0 0 77 100 100 96 100 100 100 100 99 94 20 6 5 7 19 47 49 49 79 75 100 100 100 22
77 99 5 5 5 5 21 41 2 3 93 38 4 0 0 0 0 0 0 2 30 94 98 100 100 100 100 100 100 100 100 100 100 100 96 100 100 100 100 100 100 100 50 64
47 100 99 57 71 33 100 97 0 2 2 1 3 4 0 0 0 0 0 0 3 6 6 100 100 100 100 100 100 100 100 100 100 100 100 100 100 100 100 100 92 70 69 97
100 100 100 100 100 100 100 31 4 13 66 5 5 5 0 0 0 0 0 25 33 5 5 42 99 100 100 100 100 100 100 100 100 100 100 100 100 100 100 90 34 71 86 97
100 100 100 100 91 100 100 55 93 95 91 5 24 74 3 19 25 2 0 0 4 5 12 11 59 98 100 100 100 100 100 100 100 100 100 100 100 100 95 84 95 100 100 99
100 100 100 100 100 100 100 100 89 53 96 5 16 75 12 7 12 15 20 4 5 6 20 27 27 95 86 100 100 100 100 100 100 100 100 100 100 100 86 74 72 77 66 74
100 100 100 100 100 100 55 5 50 45 60 36 5 52 36 35 45 11 5 5 5 8 5 18 96 99 95 99 87 100 100 100 100 100 100 100 100 100 56 5 36 51 52 30
100 100 100 100 82 52 89 100 100 14 28 22 73 62 16 5 49 55 34 12 74 35 8 58 41 98 100 99 100 100 97 100 100 100 100 100 100 99 87 67 78 95 100 100
100 100 100 100 96 4 24 22 78 100 57 48 49 96 88 26 100 76 56 49 87 25 6 24 63 95 97 100 93 81 99 87 100 100 100 100 91 70 79 92 100 100 100 99
100 100 94 99 28 8 92 84 100 71 41 5 15 30 42 63 83 97 75 51 56 13 8 60 94 100 91 86 80 89 97 94 100 100 100 100 99 100 100 100 100 100 100 100